<?xml version="1.0" encoding="UTF-8"?>
<gpx version="1.1" creator="2bulu-scraper" xmlns="http://www.topografix.com/GPX/1/1">
  <metadata><name>登峨眉山</name><desc>source: 2bulu.com trackId=88399567; exported 2026-09-01T16:05:41.293Z</desc>
    <bounds minlat="29.5227196" minlon="103.3268492" maxlat="29.5830858" maxlon="103.4429805"/>
    <link href="https://www.2bulu.com/track/t-fx1AquljHtHp%252FR2KBg5Tzw%253D%253D.htm"><text>2bulu 源页面</text></link>
  </metadata>
  <wpt lat="29.5722826" lon="103.4426605"><ele>493</ele><name>
        </name></wpt>
  <wpt lat="29.5707637" lon="103.4414355"><ele>495</ele><name>报国寺
        </name></wpt>
  <wpt lat="29.5649239" lon="103.4266975"><ele>610</ele><name>
        </name></wpt>
  <wpt lat="29.5651661" lon="103.4257491"><ele>650</ele><name>雷音寺
        </name></wpt>
  <wpt lat="29.5653615" lon="103.4212015"><ele>788</ele><name>
        </name></wpt>
  <wpt lat="29.5690239" lon="103.4198594"><ele>891</ele><name>
        </name></wpt>
  <wpt lat="29.566572" lon="103.4076992"><ele>777</ele><name>圣水阁
        </name></wpt>
  <wpt lat="29.5741297" lon="103.3923363"><ele>681</ele><name>清音阁
        </name></wpt>
  <wpt lat="29.5741548" lon="103.392245"><ele>649</ele><name>99拐封路
        </name></wpt>
  <wpt lat="29.5784044" lon="103.3889908"><ele>771</ele><name>
        </name></wpt>
  <wpt lat="29.5812549" lon="103.3843031"><ele>912</ele><name>
        </name></wpt>
  <wpt lat="29.5812872" lon="103.3828944"><ele>965</ele><name>万年寺
        </name></wpt>
  <wpt lat="29.5818524" lon="103.3828856"><ele>953</ele><name>
        </name></wpt>
  <wpt lat="29.5783025" lon="103.3716242"><ele>1386</ele><name>
        </name></wpt>
  <wpt lat="29.577753" lon="103.3712106"><ele>1416</ele><name>息心所
        </name></wpt>
  <wpt lat="29.5745773" lon="103.3642083"><ele>1497</ele><name>
        </name></wpt>
  <wpt lat="29.5687547" lon="103.3597284"><ele>1691</ele><name>初殿
        </name></wpt>
  <wpt lat="29.5643016" lon="103.3564318"><ele>1862</ele><name>华严顶
        </name></wpt>
  <wpt lat="29.558535" lon="103.3441674"><ele>2028</ele><name>
        </name></wpt>
  <wpt lat="29.5583361" lon="103.3438852"><ele>2034</ele><name>洗象池
        </name></wpt>
  <wpt lat="29.5466066" lon="103.3370588"><ele>2422</ele><name>云亭小吃
        </name></wpt>
  <wpt lat="29.5432592" lon="103.3331842"><ele>2388</ele><name>
        </name></wpt>
  <wpt lat="29.5422501" lon="103.3320273"><ele>2396</ele><name>灵觉寺
        </name></wpt>
  <wpt lat="29.5385671" lon="103.333206"><ele>2418</ele><name>
        </name></wpt>
  <wpt lat="29.535392" lon="103.3336041"><ele>2471</ele><name>
        </name></wpt>
  <wpt lat="29.5338569" lon="103.3332053"><ele>2529</ele><name>
        </name></wpt>
  <wpt lat="29.529612" lon="103.3278563"><ele>2817</ele><name>
        </name></wpt>
  <wpt lat="29.5273134" lon="103.3325183"><ele>2909</ele><name>天门石

        </name></wpt>
  <wpt lat="29.5231916" lon="103.3348069"><ele>3001</ele><name>金顶
        </name></wpt>
  <wpt lat="29.5227983" lon="103.3348752"><ele>3001</ele><name>
        </name></wpt>
  <wpt lat="29.5251664" lon="103.3358438"><ele>3006</ele><name>
        </name></wpt>
  <trk><name>登峨眉山</name>
      <trkseg>
        <trkpt lat="29.5725275" lon="103.4429805"><ele>506.6</ele><time>2026-08-15T14:22:47.000Z</time></trkpt>
        <trkpt lat="29.5724613" lon="103.4429105"><ele>506.6</ele><time>2026-08-15T14:23:00.000Z</time></trkpt>
        <trkpt lat="29.5723914" lon="103.4428186"><ele>502.74</ele><time>2026-08-15T14:23:12.000Z</time></trkpt>
        <trkpt lat="29.5723192" lon="103.4427282"><ele>499.96</ele><time>2026-08-15T14:23:32.000Z</time></trkpt>
        <trkpt lat="29.5722826" lon="103.4426605"><ele>494.87</ele><time>2026-08-15T14:23:42.000Z</time></trkpt>
        <trkpt lat="29.5722541" lon="103.4425593"><ele>494.27</ele><time>2026-08-15T14:24:08.000Z</time></trkpt>
        <trkpt lat="29.5722084" lon="103.4424563"><ele>496.05</ele><time>2026-08-15T14:24:18.000Z</time></trkpt>
        <trkpt lat="29.5721564" lon="103.4423584"><ele>495.78</ele><time>2026-08-15T14:24:26.000Z</time></trkpt>
        <trkpt lat="29.5721161" lon="103.4422481"><ele>494.46</ele><time>2026-08-15T14:24:42.000Z</time></trkpt>
        <trkpt lat="29.572076" lon="103.4421423"><ele>493.24</ele><time>2026-08-15T14:24:52.000Z</time></trkpt>
        <trkpt lat="29.572041" lon="103.4420397"><ele>493.52</ele><time>2026-08-15T14:25:02.000Z</time></trkpt>
        <trkpt lat="29.5720006" lon="103.4419387"><ele>494.47</ele><time>2026-08-15T14:25:12.000Z</time></trkpt>
        <trkpt lat="29.5719509" lon="103.4418279"><ele>493.69</ele><time>2026-08-15T14:25:24.000Z</time></trkpt>
        <trkpt lat="29.5719065" lon="103.44172"><ele>494.85</ele><time>2026-08-15T14:25:34.000Z</time></trkpt>
        <trkpt lat="29.5718692" lon="103.4416109"><ele>496.7</ele><time>2026-08-15T14:25:44.000Z</time></trkpt>
        <trkpt lat="29.5718106" lon="103.4415105"><ele>497</ele><time>2026-08-15T14:25:56.000Z</time></trkpt>
        <trkpt lat="29.5717408" lon="103.4414251"><ele>496.9</ele><time>2026-08-15T14:26:06.000Z</time></trkpt>
        <trkpt lat="29.5716648" lon="103.4413521"><ele>495.99</ele><time>2026-08-15T14:26:38.000Z</time></trkpt>
        <trkpt lat="29.5715626" lon="103.4413207"><ele>494.99</ele><time>2026-08-15T14:26:48.000Z</time></trkpt>
        <trkpt lat="29.5714536" lon="103.4413365"><ele>493.98</ele><time>2026-08-15T14:26:58.000Z</time></trkpt>
        <trkpt lat="29.5713534" lon="103.4413511"><ele>493.94</ele><time>2026-08-15T14:27:06.000Z</time></trkpt>
        <trkpt lat="29.571249" lon="103.4413708"><ele>494.44</ele><time>2026-08-15T14:27:16.000Z</time></trkpt>
        <trkpt lat="29.5711537" lon="103.4413898"><ele>495.52</ele><time>2026-08-15T14:27:26.000Z</time></trkpt>
        <trkpt lat="29.5710576" lon="103.4414042"><ele>496.87</ele><time>2026-08-15T14:27:36.000Z</time></trkpt>
        <trkpt lat="29.5709588" lon="103.4414191"><ele>497.27</ele><time>2026-08-15T14:27:46.000Z</time></trkpt>
        <trkpt lat="29.5708611" lon="103.4414338"><ele>496.77</ele><time>2026-08-15T14:27:56.000Z</time></trkpt>
        <trkpt lat="29.5707637" lon="103.4414355"><ele>496.19</ele><time>2026-08-15T14:28:10.000Z</time></trkpt>
        <trkpt lat="29.5707047" lon="103.4413462"><ele>495.71</ele><time>2026-08-15T14:29:18.000Z</time></trkpt>
        <trkpt lat="29.5707015" lon="103.4412584"><ele>495</ele><time>2026-08-15T14:29:30.000Z</time></trkpt>
        <trkpt lat="29.5706481" lon="103.4413168"><ele>492.9</ele><time>2026-08-15T14:30:22.000Z</time></trkpt>
        <trkpt lat="29.5705723" lon="103.4413796"><ele>492.01</ele><time>2026-08-15T14:30:32.000Z</time></trkpt>
        <trkpt lat="29.5704763" lon="103.4413719"><ele>491.08</ele><time>2026-08-15T14:30:44.000Z</time></trkpt>
        <trkpt lat="29.5703779" lon="103.4413332"><ele>490.62</ele><time>2026-08-15T14:30:56.000Z</time></trkpt>
        <trkpt lat="29.5702714" lon="103.4412981"><ele>491.02</ele><time>2026-08-15T14:31:08.000Z</time></trkpt>
        <trkpt lat="29.570181" lon="103.441253"><ele>492.65</ele><time>2026-08-15T14:31:18.000Z</time></trkpt>
        <trkpt lat="29.5700811" lon="103.4412233"><ele>495.27</ele><time>2026-08-15T14:31:30.000Z</time></trkpt>
        <trkpt lat="29.5700615" lon="103.4412185"><ele>497.22</ele><time>2026-08-15T14:31:32.000Z</time></trkpt>
        <trkpt lat="29.5700307" lon="103.4411485"><ele>497.92</ele><time>2026-08-15T14:31:52.000Z</time></trkpt>
        <trkpt lat="29.5699593" lon="103.4410977"><ele>498</ele><time>2026-08-15T14:32:02.000Z</time></trkpt>
        <trkpt lat="29.569862" lon="103.4410416"><ele>497.98</ele><time>2026-08-15T14:32:19.000Z</time></trkpt>
        <trkpt lat="29.5697589" lon="103.4410161"><ele>498.37</ele><time>2026-08-15T14:32:29.000Z</time></trkpt>
        <trkpt lat="29.5696637" lon="103.4409928"><ele>499.63</ele><time>2026-08-15T14:32:37.000Z</time></trkpt>
        <trkpt lat="29.5695717" lon="103.4409803"><ele>498.44</ele><time>2026-08-15T14:32:47.000Z</time></trkpt>
        <trkpt lat="29.569473" lon="103.440981"><ele>497.45</ele><time>2026-08-15T14:32:57.000Z</time></trkpt>
        <trkpt lat="29.569375" lon="103.4409924"><ele>497.18</ele><time>2026-08-15T14:33:07.000Z</time></trkpt>
        <trkpt lat="29.5692758" lon="103.4410006"><ele>496.79</ele><time>2026-08-15T14:33:17.000Z</time></trkpt>
        <trkpt lat="29.5691896" lon="103.4409565"><ele>496.48</ele><time>2026-08-15T14:33:27.000Z</time></trkpt>
        <trkpt lat="29.569149" lon="103.4408563"><ele>494.45</ele><time>2026-08-15T14:33:35.000Z</time></trkpt>
        <trkpt lat="29.5691223" lon="103.4407412"><ele>492.78</ele><time>2026-08-15T14:33:43.000Z</time></trkpt>
        <trkpt lat="29.5690595" lon="103.4406667"><ele>492.48</ele><time>2026-08-15T14:33:53.000Z</time></trkpt>
        <trkpt lat="29.5689949" lon="103.4405807"><ele>492.53</ele><time>2026-08-15T14:34:07.000Z</time></trkpt>
        <trkpt lat="29.568955" lon="103.4404831"><ele>492.25</ele><time>2026-08-15T14:34:45.000Z</time></trkpt>
        <trkpt lat="29.5689472" lon="103.4403702"><ele>492.16</ele><time>2026-08-15T14:34:55.000Z</time></trkpt>
        <trkpt lat="29.5689171" lon="103.4402577"><ele>493.04</ele><time>2026-08-15T14:35:07.000Z</time></trkpt>
        <trkpt lat="29.5688971" lon="103.4401508"><ele>494.23</ele><time>2026-08-15T14:35:17.000Z</time></trkpt>
        <trkpt lat="29.5688434" lon="103.4400671"><ele>495.03</ele><time>2026-08-15T14:35:29.000Z</time></trkpt>
        <trkpt lat="29.5687803" lon="103.4399795"><ele>495.15</ele><time>2026-08-15T14:35:39.000Z</time></trkpt>
        <trkpt lat="29.5687114" lon="103.4398844"><ele>494.3</ele><time>2026-08-15T14:35:49.000Z</time></trkpt>
        <trkpt lat="29.5686444" lon="103.4397837"><ele>493.77</ele><time>2026-08-15T14:35:59.000Z</time></trkpt>
        <trkpt lat="29.5685629" lon="103.4397128"><ele>494.19</ele><time>2026-08-15T14:36:07.000Z</time></trkpt>
        <trkpt lat="29.5685097" lon="103.4396266"><ele>495.12</ele><time>2026-08-15T14:36:15.000Z</time></trkpt>
        <trkpt lat="29.5684664" lon="103.4395297"><ele>496.45</ele><time>2026-08-15T14:36:23.000Z</time></trkpt>
        <trkpt lat="29.56839" lon="103.4394573"><ele>497.35</ele><time>2026-08-15T14:36:33.000Z</time></trkpt>
        <trkpt lat="29.5683075" lon="103.4393814"><ele>498.18</ele><time>2026-08-15T14:36:43.000Z</time></trkpt>
        <trkpt lat="29.5682272" lon="103.4392942"><ele>499.08</ele><time>2026-08-15T14:36:53.000Z</time></trkpt>
        <trkpt lat="29.5681463" lon="103.439233"><ele>499.66</ele><time>2026-08-15T14:37:01.000Z</time></trkpt>
        <trkpt lat="29.568065" lon="103.439158"><ele>500.65</ele><time>2026-08-15T14:37:11.000Z</time></trkpt>
        <trkpt lat="29.5679929" lon="103.4390823"><ele>501.81</ele><time>2026-08-15T14:37:19.000Z</time></trkpt>
        <trkpt lat="29.5679221" lon="103.4390031"><ele>502.49</ele><time>2026-08-15T14:37:27.000Z</time></trkpt>
        <trkpt lat="29.5678677" lon="103.4389115"><ele>502.77</ele><time>2026-08-15T14:37:35.000Z</time></trkpt>
        <trkpt lat="29.5678349" lon="103.4388122"><ele>502.26</ele><time>2026-08-15T14:37:43.000Z</time></trkpt>
        <trkpt lat="29.5677787" lon="103.4387116"><ele>501.7</ele><time>2026-08-15T14:37:53.000Z</time></trkpt>
        <trkpt lat="29.5677099" lon="103.4386237"><ele>501.66</ele><time>2026-08-15T14:38:03.000Z</time></trkpt>
        <trkpt lat="29.5676408" lon="103.4385278"><ele>503.05</ele><time>2026-08-15T14:38:13.000Z</time></trkpt>
        <trkpt lat="29.5675739" lon="103.4384291"><ele>503.28</ele><time>2026-08-15T14:38:23.000Z</time></trkpt>
        <trkpt lat="29.5674998" lon="103.4383454"><ele>503.68</ele><time>2026-08-15T14:38:35.000Z</time></trkpt>
        <trkpt lat="29.567429" lon="103.438265"><ele>505.11</ele><time>2026-08-15T14:38:45.000Z</time></trkpt>
        <trkpt lat="29.5673661" lon="103.438181"><ele>505.96</ele><time>2026-08-15T14:38:55.000Z</time></trkpt>
        <trkpt lat="29.5673059" lon="103.4380933"><ele>506.75</ele><time>2026-08-15T14:39:05.000Z</time></trkpt>
        <trkpt lat="29.5672504" lon="103.4379983"><ele>508.98</ele><time>2026-08-15T14:39:13.000Z</time></trkpt>
        <trkpt lat="29.5672023" lon="103.4379049"><ele>510.71</ele><time>2026-08-15T14:39:21.000Z</time></trkpt>
        <trkpt lat="29.5671445" lon="103.437815"><ele>512.87</ele><time>2026-08-15T14:39:31.000Z</time></trkpt>
        <trkpt lat="29.5670944" lon="103.4377187"><ele>514.11</ele><time>2026-08-15T14:39:41.000Z</time></trkpt>
        <trkpt lat="29.567031" lon="103.4376238"><ele>515.16</ele><time>2026-08-15T14:39:51.000Z</time></trkpt>
        <trkpt lat="29.5669656" lon="103.4375279"><ele>515.83</ele><time>2026-08-15T14:40:01.000Z</time></trkpt>
        <trkpt lat="29.5669123" lon="103.4374311"><ele>517.59</ele><time>2026-08-15T14:40:11.000Z</time></trkpt>
        <trkpt lat="29.5668635" lon="103.437338"><ele>518.28</ele><time>2026-08-15T14:40:19.000Z</time></trkpt>
        <trkpt lat="29.5668135" lon="103.4372479"><ele>518.39</ele><time>2026-08-15T14:40:29.000Z</time></trkpt>
        <trkpt lat="29.5667588" lon="103.4371502"><ele>519.39</ele><time>2026-08-15T14:40:39.000Z</time></trkpt>
        <trkpt lat="29.5667227" lon="103.4370671"><ele>519.67</ele><time>2026-08-15T14:40:47.000Z</time></trkpt>
        <trkpt lat="29.5666631" lon="103.4369927"><ele>519.86</ele><time>2026-08-15T14:40:59.000Z</time></trkpt>
        <trkpt lat="29.5666088" lon="103.4369089"><ele>520.52</ele><time>2026-08-15T14:41:07.000Z</time></trkpt>
        <trkpt lat="29.5665565" lon="103.4368149"><ele>520.28</ele><time>2026-08-15T14:41:17.000Z</time></trkpt>
        <trkpt lat="29.5665031" lon="103.4367123"><ele>519.51</ele><time>2026-08-15T14:41:27.000Z</time></trkpt>
        <trkpt lat="29.5664502" lon="103.4366178"><ele>519.46</ele><time>2026-08-15T14:41:35.000Z</time></trkpt>
        <trkpt lat="29.566415" lon="103.4365173"><ele>520.32</ele><time>2026-08-15T14:41:43.000Z</time></trkpt>
        <trkpt lat="29.5663785" lon="103.4364126"><ele>521.23</ele><time>2026-08-15T14:41:51.000Z</time></trkpt>
        <trkpt lat="29.5663488" lon="103.4363035"><ele>521.73</ele><time>2026-08-15T14:41:59.000Z</time></trkpt>
        <trkpt lat="29.566315" lon="103.4361969"><ele>521.4</ele><time>2026-08-15T14:42:07.000Z</time></trkpt>
        <trkpt lat="29.5662735" lon="103.436091"><ele>521.96</ele><time>2026-08-15T14:42:15.000Z</time></trkpt>
        <trkpt lat="29.5662347" lon="103.4359936"><ele>523.11</ele><time>2026-08-15T14:42:23.000Z</time></trkpt>
        <trkpt lat="29.5661949" lon="103.4358892"><ele>523.8</ele><time>2026-08-15T14:42:31.000Z</time></trkpt>
        <trkpt lat="29.566164" lon="103.4357706"><ele>525.88</ele><time>2026-08-15T14:42:41.000Z</time></trkpt>
        <trkpt lat="29.5661363" lon="103.435663"><ele>526.26</ele><time>2026-08-15T14:42:49.000Z</time></trkpt>
        <trkpt lat="29.5660985" lon="103.4355491"><ele>525.62</ele><time>2026-08-15T14:42:59.000Z</time></trkpt>
        <trkpt lat="29.5660577" lon="103.4354368"><ele>525.21</ele><time>2026-08-15T14:43:09.000Z</time></trkpt>
        <trkpt lat="29.5660139" lon="103.4353291"><ele>524.45</ele><time>2026-08-15T14:43:19.000Z</time></trkpt>
        <trkpt lat="29.5659807" lon="103.4352289"><ele>524.64</ele><time>2026-08-15T14:43:27.000Z</time></trkpt>
        <trkpt lat="29.5659341" lon="103.4351382"><ele>526.03</ele><time>2026-08-15T14:43:35.000Z</time></trkpt>
        <trkpt lat="29.5658992" lon="103.4350437"><ele>527.17</ele><time>2026-08-15T14:43:45.000Z</time></trkpt>
        <trkpt lat="29.5658438" lon="103.4349563"><ele>527.48</ele><time>2026-08-15T14:43:57.000Z</time></trkpt>
        <trkpt lat="29.5657646" lon="103.4348954"><ele>527.03</ele><time>2026-08-15T14:44:07.000Z</time></trkpt>
        <trkpt lat="29.5656757" lon="103.4348412"><ele>527.59</ele><time>2026-08-15T14:44:17.000Z</time></trkpt>
        <trkpt lat="29.5655933" lon="103.4347808"><ele>529.43</ele><time>2026-08-15T14:44:27.000Z</time></trkpt>
        <trkpt lat="29.5655292" lon="103.4346996"><ele>531</ele><time>2026-08-15T14:44:37.000Z</time></trkpt>
        <trkpt lat="29.5655049" lon="103.434598"><ele>531.18</ele><time>2026-08-15T14:44:47.000Z</time></trkpt>
        <trkpt lat="29.5655309" lon="103.434483"><ele>531.41</ele><time>2026-08-15T14:44:57.000Z</time></trkpt>
        <trkpt lat="29.5655911" lon="103.4343784"><ele>531.69</ele><time>2026-08-15T14:45:07.000Z</time></trkpt>
        <trkpt lat="29.5656767" lon="103.4343025"><ele>532.72</ele><time>2026-08-15T14:45:17.000Z</time></trkpt>
        <trkpt lat="29.5657291" lon="103.4342086"><ele>533.68</ele><time>2026-08-15T14:45:27.000Z</time></trkpt>
        <trkpt lat="29.5657603" lon="103.4341094"><ele>536.21</ele><time>2026-08-15T14:45:41.000Z</time></trkpt>
        <trkpt lat="29.5657481" lon="103.4340059"><ele>538.36</ele><time>2026-08-15T14:45:55.000Z</time></trkpt>
        <trkpt lat="29.5657247" lon="103.4338929"><ele>541.19</ele><time>2026-08-15T14:46:11.000Z</time></trkpt>
        <trkpt lat="29.565711" lon="103.4337855"><ele>543.45</ele><time>2026-08-15T14:46:19.000Z</time></trkpt>
        <trkpt lat="29.5656975" lon="103.4336768"><ele>546.74</ele><time>2026-08-15T14:46:31.000Z</time></trkpt>
        <trkpt lat="29.5657142" lon="103.4335735"><ele>549.5</ele><time>2026-08-15T14:46:45.000Z</time></trkpt>
        <trkpt lat="29.5657315" lon="103.4334678"><ele>550.3</ele><time>2026-08-15T14:46:57.000Z</time></trkpt>
        <trkpt lat="29.565743" lon="103.4333543"><ele>550.11</ele><time>2026-08-15T14:47:09.000Z</time></trkpt>
        <trkpt lat="29.5657109" lon="103.4332521"><ele>549.6</ele><time>2026-08-15T14:47:19.000Z</time></trkpt>
        <trkpt lat="29.5656941" lon="103.4331366"><ele>549.78</ele><time>2026-08-15T14:47:27.000Z</time></trkpt>
        <trkpt lat="29.5656844" lon="103.4330163"><ele>550.77</ele><time>2026-08-15T14:47:37.000Z</time></trkpt>
        <trkpt lat="29.5656548" lon="103.4329024"><ele>552.31</ele><time>2026-08-15T14:47:49.000Z</time></trkpt>
        <trkpt lat="29.5656069" lon="103.432827"><ele>552.97</ele><time>2026-08-15T14:48:01.000Z</time></trkpt>
        <trkpt lat="29.5655622" lon="103.4327381"><ele>551.23</ele><time>2026-08-15T14:48:33.000Z</time></trkpt>
        <trkpt lat="29.5655282" lon="103.4326333"><ele>550.09</ele><time>2026-08-15T14:48:43.000Z</time></trkpt>
        <trkpt lat="29.5654783" lon="103.4325429"><ele>549.57</ele><time>2026-08-15T14:48:53.000Z</time></trkpt>
        <trkpt lat="29.5654533" lon="103.4324344"><ele>549</ele><time>2026-08-15T14:49:03.000Z</time></trkpt>
        <trkpt lat="29.5654359" lon="103.4323151"><ele>548.67</ele><time>2026-08-15T14:49:13.000Z</time></trkpt>
        <trkpt lat="29.5654005" lon="103.4322026"><ele>549.98</ele><time>2026-08-15T14:49:25.000Z</time></trkpt>
        <trkpt lat="29.5653539" lon="103.4320903"><ele>551.54</ele><time>2026-08-15T14:49:37.000Z</time></trkpt>
        <trkpt lat="29.5653023" lon="103.4319875"><ele>553.11</ele><time>2026-08-15T14:49:49.000Z</time></trkpt>
        <trkpt lat="29.5652803" lon="103.4318801"><ele>556.77</ele><time>2026-08-15T14:50:01.000Z</time></trkpt>
        <trkpt lat="29.5653064" lon="103.431783"><ele>558.89</ele><time>2026-08-15T14:50:11.000Z</time></trkpt>
        <trkpt lat="29.565348" lon="103.4316892"><ele>560</ele><time>2026-08-15T14:50:19.000Z</time></trkpt>
        <trkpt lat="29.5653789" lon="103.4315729"><ele>560.91</ele><time>2026-08-15T14:50:31.000Z</time></trkpt>
        <trkpt lat="29.5654064" lon="103.4314546"><ele>561.99</ele><time>2026-08-15T14:50:43.000Z</time></trkpt>
        <trkpt lat="29.5654453" lon="103.4313498"><ele>564.91</ele><time>2026-08-15T14:50:53.000Z</time></trkpt>
        <trkpt lat="29.5654879" lon="103.4312441"><ele>567.79</ele><time>2026-08-15T14:51:07.000Z</time></trkpt>
        <trkpt lat="29.5655136" lon="103.4311274"><ele>568.26</ele><time>2026-08-15T14:51:19.000Z</time></trkpt>
        <trkpt lat="29.5655185" lon="103.4310102"><ele>568.9</ele><time>2026-08-15T14:51:31.000Z</time></trkpt>
        <trkpt lat="29.5654742" lon="103.4309108"><ele>571.41</ele><time>2026-08-15T14:51:41.000Z</time></trkpt>
        <trkpt lat="29.5653978" lon="103.4308357"><ele>573.79</ele><time>2026-08-15T14:51:51.000Z</time></trkpt>
        <trkpt lat="29.5653508" lon="103.4307408"><ele>574.4</ele><time>2026-08-15T14:52:01.000Z</time></trkpt>
        <trkpt lat="29.56533" lon="103.4306263"><ele>574.65</ele><time>2026-08-15T14:52:11.000Z</time></trkpt>
        <trkpt lat="29.5653105" lon="103.430513"><ele>575.47</ele><time>2026-08-15T14:52:21.000Z</time></trkpt>
        <trkpt lat="29.5652937" lon="103.4304006"><ele>576.37</ele><time>2026-08-15T14:52:31.000Z</time></trkpt>
        <trkpt lat="29.5652897" lon="103.4302894"><ele>576.45</ele><time>2026-08-15T14:52:41.000Z</time></trkpt>
        <trkpt lat="29.5652834" lon="103.4301672"><ele>576.54</ele><time>2026-08-15T14:52:51.000Z</time></trkpt>
        <trkpt lat="29.5652617" lon="103.4300551"><ele>577.28</ele><time>2026-08-15T14:52:59.000Z</time></trkpt>
        <trkpt lat="29.5652336" lon="103.4299451"><ele>579.9</ele><time>2026-08-15T14:53:07.000Z</time></trkpt>
        <trkpt lat="29.5652033" lon="103.4298437"><ele>580.79</ele><time>2026-08-15T14:53:15.000Z</time></trkpt>
        <trkpt lat="29.5651601" lon="103.4297434"><ele>581.29</ele><time>2026-08-15T14:53:25.000Z</time></trkpt>
        <trkpt lat="29.5651243" lon="103.4296385"><ele>580.78</ele><time>2026-08-15T14:53:35.000Z</time></trkpt>
        <trkpt lat="29.5650979" lon="103.429522"><ele>579.64</ele><time>2026-08-15T14:53:45.000Z</time></trkpt>
        <trkpt lat="29.5650419" lon="103.4294154"><ele>578.09</ele><time>2026-08-15T14:53:55.000Z</time></trkpt>
        <trkpt lat="29.5649854" lon="103.429313"><ele>578.07</ele><time>2026-08-15T14:54:05.000Z</time></trkpt>
        <trkpt lat="29.5649568" lon="103.4291948"><ele>578.16</ele><time>2026-08-15T14:54:15.000Z</time></trkpt>
        <trkpt lat="29.5649324" lon="103.4290836"><ele>578.48</ele><time>2026-08-15T14:54:23.000Z</time></trkpt>
        <trkpt lat="29.5649081" lon="103.4289756"><ele>578.66</ele><time>2026-08-15T14:54:31.000Z</time></trkpt>
        <trkpt lat="29.5648859" lon="103.4288716"><ele>581.11</ele><time>2026-08-15T14:54:39.000Z</time></trkpt>
        <trkpt lat="29.5648661" lon="103.4287645"><ele>583.77</ele><time>2026-08-15T14:54:47.000Z</time></trkpt>
        <trkpt lat="29.5648479" lon="103.4286556"><ele>585.42</ele><time>2026-08-15T14:54:55.000Z</time></trkpt>
        <trkpt lat="29.5648322" lon="103.4285443"><ele>586.66</ele><time>2026-08-15T14:55:03.000Z</time></trkpt>
        <trkpt lat="29.5648392" lon="103.4284393"><ele>587.14</ele><time>2026-08-15T14:55:11.000Z</time></trkpt>
        <trkpt lat="29.5649121" lon="103.4283689"><ele>588.33</ele><time>2026-08-15T14:55:21.000Z</time></trkpt>
        <trkpt lat="29.5650138" lon="103.4283174"><ele>588.69</ele><time>2026-08-15T14:55:31.000Z</time></trkpt>
        <trkpt lat="29.5651006" lon="103.4282581"><ele>588.99</ele><time>2026-08-15T14:55:39.000Z</time></trkpt>
        <trkpt lat="29.5651964" lon="103.4281929"><ele>589.94</ele><time>2026-08-15T14:55:49.000Z</time></trkpt>
        <trkpt lat="29.565275" lon="103.4281219"><ele>590.64</ele><time>2026-08-15T14:55:57.000Z</time></trkpt>
        <trkpt lat="29.565344" lon="103.4280492"><ele>591.29</ele><time>2026-08-15T14:56:05.000Z</time></trkpt>
        <trkpt lat="29.5654245" lon="103.4279687"><ele>592.04</ele><time>2026-08-15T14:56:15.000Z</time></trkpt>
        <trkpt lat="29.5654623" lon="103.4278697"><ele>592.77</ele><time>2026-08-15T14:56:23.000Z</time></trkpt>
        <trkpt lat="29.5654585" lon="103.4277571"><ele>594.38</ele><time>2026-08-15T14:56:33.000Z</time></trkpt>
        <trkpt lat="29.5654298" lon="103.4276397"><ele>596.23</ele><time>2026-08-15T14:56:43.000Z</time></trkpt>
        <trkpt lat="29.5653934" lon="103.4275208"><ele>598.17</ele><time>2026-08-15T14:56:53.000Z</time></trkpt>
        <trkpt lat="29.5653563" lon="103.4274018"><ele>599.09</ele><time>2026-08-15T14:57:03.000Z</time></trkpt>
        <trkpt lat="29.565324" lon="103.4272931"><ele>600.05</ele><time>2026-08-15T14:57:13.000Z</time></trkpt>
        <trkpt lat="29.565292" lon="103.4271821"><ele>601.03</ele><time>2026-08-15T14:57:23.000Z</time></trkpt>
        <trkpt lat="29.5652399" lon="103.4270905"><ele>603.18</ele><time>2026-08-15T14:57:33.000Z</time></trkpt>
        <trkpt lat="29.5651668" lon="103.4270137"><ele>606.04</ele><time>2026-08-15T14:57:45.000Z</time></trkpt>
        <trkpt lat="29.5650766" lon="103.4269446"><ele>606.6</ele><time>2026-08-15T14:57:55.000Z</time></trkpt>
        <trkpt lat="29.564977" lon="103.4268978"><ele>607.08</ele><time>2026-08-15T14:58:05.000Z</time></trkpt>
        <trkpt lat="29.5649175" lon="103.4268083"><ele>608.45</ele><time>2026-08-15T14:58:15.000Z</time></trkpt>
        <trkpt lat="29.5649239" lon="103.4266975"><ele>609.42</ele><time>2026-08-15T14:58:25.000Z</time></trkpt>
        <trkpt lat="29.5649585" lon="103.4265908"><ele>609.87</ele><time>2026-08-15T14:59:06.000Z</time></trkpt>
        <trkpt lat="29.5649975" lon="103.4264822"><ele>611.15</ele><time>2026-08-15T14:59:32.000Z</time></trkpt>
        <trkpt lat="29.5650167" lon="103.4263681"><ele>611.19</ele><time>2026-08-15T15:00:02.000Z</time></trkpt>
        <trkpt lat="29.5650619" lon="103.4262662"><ele>616.51</ele><time>2026-08-15T15:00:20.000Z</time></trkpt>
        <trkpt lat="29.5650752" lon="103.4261613"><ele>621.1</ele><time>2026-08-15T15:00:50.000Z</time></trkpt>
        <trkpt lat="29.5651065" lon="103.4260561"><ele>627.15</ele><time>2026-08-15T15:01:14.000Z</time></trkpt>
        <trkpt lat="29.5651276" lon="103.4259518"><ele>631.39</ele><time>2026-08-15T15:01:42.000Z</time></trkpt>
        <trkpt lat="29.5651572" lon="103.4258534"><ele>635.49</ele><time>2026-08-15T15:01:56.000Z</time></trkpt>
        <trkpt lat="29.5651661" lon="103.4257491"><ele>639.72</ele><time>2026-08-15T15:02:24.000Z</time></trkpt>
        <trkpt lat="29.5651326" lon="103.4256556"><ele>644.35</ele><time>2026-08-15T15:02:50.000Z</time></trkpt>
        <trkpt lat="29.565102" lon="103.4255494"><ele>647.89</ele><time>2026-08-15T15:03:00.000Z</time></trkpt>
        <trkpt lat="29.5650402" lon="103.425463"><ele>650.61</ele><time>2026-08-15T15:03:08.000Z</time></trkpt>
        <trkpt lat="29.5649778" lon="103.4253811"><ele>654.91</ele><time>2026-08-15T15:03:18.000Z</time></trkpt>
        <trkpt lat="29.5649182" lon="103.4253"><ele>656.33</ele><time>2026-08-15T15:03:26.000Z</time></trkpt>
        <trkpt lat="29.5648546" lon="103.4252173"><ele>654.72</ele><time>2026-08-15T15:03:34.000Z</time></trkpt>
        <trkpt lat="29.5647618" lon="103.4251743"><ele>654.26</ele><time>2026-08-15T15:03:42.000Z</time></trkpt>
        <trkpt lat="29.5647294" lon="103.4250811"><ele>654.26</ele><time>2026-08-15T15:04:10.000Z</time></trkpt>
        <trkpt lat="29.5647142" lon="103.4249748"><ele>656.57</ele><time>2026-08-15T15:04:18.000Z</time></trkpt>
        <trkpt lat="29.5646753" lon="103.4248758"><ele>659.96</ele><time>2026-08-15T15:04:30.000Z</time></trkpt>
        <trkpt lat="29.5646578" lon="103.4247614"><ele>661.88</ele><time>2026-08-15T15:04:46.000Z</time></trkpt>
        <trkpt lat="29.5646696" lon="103.4246434"><ele>663.44</ele><time>2026-08-15T15:04:58.000Z</time></trkpt>
        <trkpt lat="29.5646756" lon="103.424525"><ele>663.92</ele><time>2026-08-15T15:05:14.000Z</time></trkpt>
        <trkpt lat="29.5646575" lon="103.4244137"><ele>664.75</ele><time>2026-08-15T15:05:28.000Z</time></trkpt>
        <trkpt lat="29.5646423" lon="103.4242997"><ele>664.12</ele><time>2026-08-15T15:05:44.000Z</time></trkpt>
        <trkpt lat="29.5646308" lon="103.4241901"><ele>666.48</ele><time>2026-08-15T15:06:04.000Z</time></trkpt>
        <trkpt lat="29.5646047" lon="103.4240887"><ele>671.77</ele><time>2026-08-15T15:06:32.000Z</time></trkpt>
        <trkpt lat="29.564573" lon="103.4239884"><ele>678.35</ele><time>2026-08-15T15:06:48.000Z</time></trkpt>
        <trkpt lat="29.5645054" lon="103.4239168"><ele>682.8</ele><time>2026-08-15T15:07:04.000Z</time></trkpt>
        <trkpt lat="29.5644795" lon="103.4238189"><ele>686.25</ele><time>2026-08-15T15:07:22.000Z</time></trkpt>
        <trkpt lat="29.5644574" lon="103.4237091"><ele>691.01</ele><time>2026-08-15T15:07:44.000Z</time></trkpt>
        <trkpt lat="29.5644632" lon="103.4236001"><ele>696.9</ele><time>2026-08-15T15:08:02.000Z</time></trkpt>
        <trkpt lat="29.564476" lon="103.4234899"><ele>699.76</ele><time>2026-08-15T15:08:14.000Z</time></trkpt>
        <trkpt lat="29.5645002" lon="103.4233826"><ele>700</ele><time>2026-08-15T15:08:28.000Z</time></trkpt>
        <trkpt lat="29.5645093" lon="103.4232748"><ele>699.75</ele><time>2026-08-15T15:08:44.000Z</time></trkpt>
        <trkpt lat="29.5645163" lon="103.4231647"><ele>700.62</ele><time>2026-08-15T15:09:00.000Z</time></trkpt>
        <trkpt lat="29.5644937" lon="103.4230639"><ele>701.76</ele><time>2026-08-15T15:09:14.000Z</time></trkpt>
        <trkpt lat="29.5645041" lon="103.4229604"><ele>703.13</ele><time>2026-08-15T15:09:26.000Z</time></trkpt>
        <trkpt lat="29.5645087" lon="103.4228542"><ele>706.29</ele><time>2026-08-15T15:09:42.000Z</time></trkpt>
        <trkpt lat="29.5645187" lon="103.4227489"><ele>711.46</ele><time>2026-08-15T15:09:58.000Z</time></trkpt>
        <trkpt lat="29.5644779" lon="103.4226633"><ele>715.83</ele><time>2026-08-15T15:10:12.000Z</time></trkpt>
        <trkpt lat="29.564466" lon="103.4225638"><ele>717.54</ele><time>2026-08-15T15:10:26.000Z</time></trkpt>
        <trkpt lat="29.5644502" lon="103.4224611"><ele>718.65</ele><time>2026-08-15T15:10:42.000Z</time></trkpt>
        <trkpt lat="29.5644406" lon="103.4223451"><ele>721.05</ele><time>2026-08-15T15:11:04.000Z</time></trkpt>
        <trkpt lat="29.5644015" lon="103.4222371"><ele>724.12</ele><time>2026-08-15T15:11:32.000Z</time></trkpt>
        <trkpt lat="29.5643982" lon="103.4221291"><ele>727.78</ele><time>2026-08-15T15:11:44.000Z</time></trkpt>
        <trkpt lat="29.5643784" lon="103.4220232"><ele>731.14</ele><time>2026-08-15T15:12:06.000Z</time></trkpt>
        <trkpt lat="29.5643842" lon="103.4219183"><ele>735.71</ele><time>2026-08-15T15:12:26.000Z</time></trkpt>
        <trkpt lat="29.5644349" lon="103.421832"><ele>740.17</ele><time>2026-08-15T15:12:42.000Z</time></trkpt>
        <trkpt lat="29.5644297" lon="103.4217315"><ele>744.19</ele><time>2026-08-15T15:12:56.000Z</time></trkpt>
        <trkpt lat="29.5643801" lon="103.4216474"><ele>746.64</ele><time>2026-08-15T15:13:10.000Z</time></trkpt>
        <trkpt lat="29.5643435" lon="103.4215531"><ele>747.27</ele><time>2026-08-15T15:13:34.000Z</time></trkpt>
        <trkpt lat="29.5643134" lon="103.4214533"><ele>748.73</ele><time>2026-08-15T15:13:58.000Z</time></trkpt>
        <trkpt lat="29.5642932" lon="103.421341"><ele>751.85</ele><time>2026-08-15T15:14:16.000Z</time></trkpt>
        <trkpt lat="29.5643604" lon="103.4212983"><ele>756.45</ele><time>2026-08-15T15:14:30.000Z</time></trkpt>
        <trkpt lat="29.5644672" lon="103.4212929"><ele>759.31</ele><time>2026-08-15T15:14:40.000Z</time></trkpt>
        <trkpt lat="29.5645617" lon="103.4212399"><ele>759.97</ele><time>2026-08-15T15:14:56.000Z</time></trkpt>
        <trkpt lat="29.5646248" lon="103.4211534"><ele>762.18</ele><time>2026-08-15T15:15:06.000Z</time></trkpt>
        <trkpt lat="29.5647121" lon="103.4211294"><ele>765.06</ele><time>2026-08-15T15:15:30.000Z</time></trkpt>
        <trkpt lat="29.5647948" lon="103.4211872"><ele>766.18</ele><time>2026-08-15T15:15:42.000Z</time></trkpt>
        <trkpt lat="29.5648617" lon="103.421273"><ele>769.63</ele><time>2026-08-15T15:15:54.000Z</time></trkpt>
        <trkpt lat="29.5649278" lon="103.4213571"><ele>771.12</ele><time>2026-08-15T15:16:12.000Z</time></trkpt>
        <trkpt lat="29.5650099" lon="103.4213595"><ele>775.79</ele><time>2026-08-15T15:16:36.000Z</time></trkpt>
        <trkpt lat="29.5650963" lon="103.4213273"><ele>777.73</ele><time>2026-08-15T15:16:56.000Z</time></trkpt>
        <trkpt lat="29.5651844" lon="103.4212906"><ele>780.24</ele><time>2026-08-15T15:17:10.000Z</time></trkpt>
        <trkpt lat="29.5652693" lon="103.4212425"><ele>781.81</ele><time>2026-08-15T15:17:32.000Z</time></trkpt>
        <trkpt lat="29.5653615" lon="103.4212015"><ele>782.12</ele><time>2026-08-15T15:17:58.000Z</time></trkpt>
        <trkpt lat="29.5654432" lon="103.4211471"><ele>784.67</ele><time>2026-08-15T15:18:44.000Z</time></trkpt>
        <trkpt lat="29.5655376" lon="103.4210958"><ele>787.29</ele><time>2026-08-15T15:19:00.000Z</time></trkpt>
        <trkpt lat="29.5656389" lon="103.4210565"><ele>789.78</ele><time>2026-08-15T15:19:12.000Z</time></trkpt>
        <trkpt lat="29.5657383" lon="103.4210623"><ele>790.55</ele><time>2026-08-15T15:19:22.000Z</time></trkpt>
        <trkpt lat="29.5658335" lon="103.4210718"><ele>792.4</ele><time>2026-08-15T15:19:32.000Z</time></trkpt>
        <trkpt lat="29.565929" lon="103.4210907"><ele>793.93</ele><time>2026-08-15T15:19:42.000Z</time></trkpt>
        <trkpt lat="29.5660224" lon="103.4210978"><ele>794.66</ele><time>2026-08-15T15:19:52.000Z</time></trkpt>
        <trkpt lat="29.5661148" lon="103.421097"><ele>795.39</ele><time>2026-08-15T15:20:08.000Z</time></trkpt>
        <trkpt lat="29.5661909" lon="103.4210465"><ele>798.32</ele><time>2026-08-15T15:20:22.000Z</time></trkpt>
        <trkpt lat="29.5662364" lon="103.4209542"><ele>800.88</ele><time>2026-08-15T15:20:40.000Z</time></trkpt>
        <trkpt lat="29.5662586" lon="103.4208429"><ele>804.55</ele><time>2026-08-15T15:20:50.000Z</time></trkpt>
        <trkpt lat="29.566295" lon="103.4207393"><ele>806.31</ele><time>2026-08-15T15:21:00.000Z</time></trkpt>
        <trkpt lat="29.5663255" lon="103.4206297"><ele>807.91</ele><time>2026-08-15T15:21:10.000Z</time></trkpt>
        <trkpt lat="29.5663511" lon="103.420515"><ele>809.07</ele><time>2026-08-15T15:21:22.000Z</time></trkpt>
        <trkpt lat="29.5664062" lon="103.420405"><ele>808.54</ele><time>2026-08-15T15:21:32.000Z</time></trkpt>
        <trkpt lat="29.5664774" lon="103.4203069"><ele>807.68</ele><time>2026-08-15T15:21:42.000Z</time></trkpt>
        <trkpt lat="29.5665677" lon="103.420252"><ele>806.07</ele><time>2026-08-15T15:21:52.000Z</time></trkpt>
        <trkpt lat="29.5666517" lon="103.4201917"><ele>803.17</ele><time>2026-08-15T15:22:00.000Z</time></trkpt>
        <trkpt lat="29.5666459" lon="103.4201822"><ele>801.81</ele><time>2026-08-15T15:22:02.000Z</time></trkpt>
        <trkpt lat="29.5666661" lon="103.4201075"><ele>800.96</ele><time>2026-08-15T15:22:16.000Z</time></trkpt>
        <trkpt lat="29.5666696" lon="103.4200063"><ele>803.01</ele><time>2026-08-15T15:22:26.000Z</time></trkpt>
        <trkpt lat="29.5666773" lon="103.4198975"><ele>805.66</ele><time>2026-08-15T15:22:38.000Z</time></trkpt>
        <trkpt lat="29.5667381" lon="103.4198312"><ele>807.73</ele><time>2026-08-15T15:22:54.000Z</time></trkpt>
        <trkpt lat="29.5668264" lon="103.4198267"><ele>809.42</ele><time>2026-08-15T15:23:02.000Z</time></trkpt>
        <trkpt lat="29.566892" lon="103.4199075"><ele>809.8</ele><time>2026-08-15T15:23:24.000Z</time></trkpt>
        <trkpt lat="29.5669739" lon="103.4199762"><ele>810.89</ele><time>2026-08-15T15:23:42.000Z</time></trkpt>
        <trkpt lat="29.5670205" lon="103.4200741"><ele>812.77</ele><time>2026-08-15T15:24:00.000Z</time></trkpt>
        <trkpt lat="29.5670189" lon="103.4201928"><ele>814.93</ele><time>2026-08-15T15:24:10.000Z</time></trkpt>
        <trkpt lat="29.5670398" lon="103.4203037"><ele>816.34</ele><time>2026-08-15T15:24:22.000Z</time></trkpt>
        <trkpt lat="29.5670935" lon="103.4203896"><ele>817.31</ele><time>2026-08-15T15:24:40.000Z</time></trkpt>
        <trkpt lat="29.5671687" lon="103.4204561"><ele>820.25</ele><time>2026-08-15T15:25:08.000Z</time></trkpt>
        <trkpt lat="29.5672643" lon="103.4204656"><ele>820.63</ele><time>2026-08-15T15:25:30.000Z</time></trkpt>
        <trkpt lat="29.5673611" lon="103.420443"><ele>824.31</ele><time>2026-08-15T15:25:48.000Z</time></trkpt>
        <trkpt lat="29.5674535" lon="103.4204048"><ele>829.25</ele><time>2026-08-15T15:26:08.000Z</time></trkpt>
        <trkpt lat="29.5675404" lon="103.4203505"><ele>832.04</ele><time>2026-08-15T15:26:30.000Z</time></trkpt>
        <trkpt lat="29.567623" lon="103.4202928"><ele>835.24</ele><time>2026-08-15T15:26:50.000Z</time></trkpt>
        <trkpt lat="29.5677098" lon="103.4202927"><ele>839.8</ele><time>2026-08-15T15:27:16.000Z</time></trkpt>
        <trkpt lat="29.5677853" lon="103.42025"><ele>842.91</ele><time>2026-08-15T15:27:28.000Z</time></trkpt>
        <trkpt lat="29.5678571" lon="103.4201868"><ele>844.57</ele><time>2026-08-15T15:27:40.000Z</time></trkpt>
        <trkpt lat="29.5679464" lon="103.4201367"><ele>846.39</ele><time>2026-08-15T15:28:00.000Z</time></trkpt>
        <trkpt lat="29.5680189" lon="103.4200659"><ele>849.25</ele><time>2026-08-15T15:28:20.000Z</time></trkpt>
        <trkpt lat="29.5681035" lon="103.4200539"><ele>853.6</ele><time>2026-08-15T15:28:44.000Z</time></trkpt>
        <trkpt lat="29.5681996" lon="103.4200488"><ele>858.06</ele><time>2026-08-15T15:29:06.000Z</time></trkpt>
        <trkpt lat="29.5682949" lon="103.4200363"><ele>860.04</ele><time>2026-08-15T15:29:28.000Z</time></trkpt>
        <trkpt lat="29.568392" lon="103.420031"><ele>864.28</ele><time>2026-08-15T15:29:50.000Z</time></trkpt>
        <trkpt lat="29.5684881" lon="103.4200136"><ele>867.86</ele><time>2026-08-15T15:30:20.000Z</time></trkpt>
        <trkpt lat="29.5685833" lon="103.4200125"><ele>873.66</ele><time>2026-08-15T15:30:42.000Z</time></trkpt>
        <trkpt lat="29.5686779" lon="103.4200213"><ele>878.27</ele><time>2026-08-15T15:31:04.000Z</time></trkpt>
        <trkpt lat="29.568757" lon="103.4199814"><ele>881.16</ele><time>2026-08-15T15:31:28.000Z</time></trkpt>
        <trkpt lat="29.5688392" lon="103.4199357"><ele>884.83</ele><time>2026-08-15T15:31:38.000Z</time></trkpt>
        <trkpt lat="29.5689246" lon="103.4198818"><ele>886.97</ele><time>2026-08-15T15:31:54.000Z</time></trkpt>
        <trkpt lat="29.5690239" lon="103.4198594"><ele>890.16</ele><time>2026-08-15T15:32:14.000Z</time></trkpt>
        <trkpt lat="29.5691192" lon="103.419814"><ele>890.62</ele><time>2026-08-15T15:32:32.000Z</time></trkpt>
        <trkpt lat="29.5692117" lon="103.4197752"><ele>891.69</ele><time>2026-08-15T15:32:48.000Z</time></trkpt>
        <trkpt lat="29.5692951" lon="103.419717"><ele>892.66</ele><time>2026-08-15T15:33:00.000Z</time></trkpt>
        <trkpt lat="29.5693774" lon="103.419659"><ele>892.81</ele><time>2026-08-15T15:33:10.000Z</time></trkpt>
        <trkpt lat="29.5694545" lon="103.4195993"><ele>891.87</ele><time>2026-08-15T15:33:20.000Z</time></trkpt>
        <trkpt lat="29.5695335" lon="103.4195389"><ele>890.31</ele><time>2026-08-15T15:33:30.000Z</time></trkpt>
        <trkpt lat="29.5695993" lon="103.41946"><ele>889.85</ele><time>2026-08-15T15:33:40.000Z</time></trkpt>
        <trkpt lat="29.5696413" lon="103.4193623"><ele>890.03</ele><time>2026-08-15T15:33:50.000Z</time></trkpt>
        <trkpt lat="29.5697061" lon="103.4192932"><ele>890.66</ele><time>2026-08-15T15:34:10.000Z</time></trkpt>
        <trkpt lat="29.5697559" lon="103.4192067"><ele>890.37</ele><time>2026-08-15T15:34:20.000Z</time></trkpt>
        <trkpt lat="29.5697646" lon="103.4191206"><ele>889.63</ele><time>2026-08-15T15:34:32.000Z</time></trkpt>
        <trkpt lat="29.569677" lon="103.4190388"><ele>891.08</ele><time>2026-08-15T15:35:38.000Z</time></trkpt>
        <trkpt lat="29.5697102" lon="103.4189365"><ele>890.55</ele><time>2026-08-15T15:35:44.000Z</time></trkpt>
        <trkpt lat="29.5697365" lon="103.4188255"><ele>890.35</ele><time>2026-08-15T15:35:52.000Z</time></trkpt>
        <trkpt lat="29.5697584" lon="103.418721"><ele>892.02</ele><time>2026-08-15T15:36:00.000Z</time></trkpt>
        <trkpt lat="29.5697924" lon="103.4186095"><ele>893</ele><time>2026-08-15T15:36:08.000Z</time></trkpt>
        <trkpt lat="29.5698288" lon="103.4184938"><ele>891.27</ele><time>2026-08-15T15:36:18.000Z</time></trkpt>
        <trkpt lat="29.5698286" lon="103.4183734"><ele>890.48</ele><time>2026-08-15T15:36:26.000Z</time></trkpt>
        <trkpt lat="29.5698411" lon="103.4182634"><ele>889.91</ele><time>2026-08-15T15:36:34.000Z</time></trkpt>
        <trkpt lat="29.569866" lon="103.4181438"><ele>891.08</ele><time>2026-08-15T15:36:44.000Z</time></trkpt>
        <trkpt lat="29.5699071" lon="103.4180415"><ele>891.68</ele><time>2026-08-15T15:36:52.000Z</time></trkpt>
        <trkpt lat="29.5699767" lon="103.4179507"><ele>891.47</ele><time>2026-08-15T15:37:02.000Z</time></trkpt>
        <trkpt lat="29.5700214" lon="103.4178535"><ele>890.75</ele><time>2026-08-15T15:37:10.000Z</time></trkpt>
        <trkpt lat="29.5700561" lon="103.4177544"><ele>889.56</ele><time>2026-08-15T15:37:18.000Z</time></trkpt>
        <trkpt lat="29.5700585" lon="103.4176492"><ele>888.94</ele><time>2026-08-15T15:37:28.000Z</time></trkpt>
        <trkpt lat="29.5700725" lon="103.4175263"><ele>886.33</ele><time>2026-08-15T15:37:38.000Z</time></trkpt>
        <trkpt lat="29.5700946" lon="103.4174162"><ele>884.8</ele><time>2026-08-15T15:37:46.000Z</time></trkpt>
        <trkpt lat="29.5701334" lon="103.4173082"><ele>885.75</ele><time>2026-08-15T15:37:54.000Z</time></trkpt>
        <trkpt lat="29.5701658" lon="103.417199"><ele>887.17</ele><time>2026-08-15T15:38:02.000Z</time></trkpt>
        <trkpt lat="29.5702189" lon="103.4171076"><ele>887.67</ele><time>2026-08-15T15:38:10.000Z</time></trkpt>
        <trkpt lat="29.5703027" lon="103.4170714"><ele>887.71</ele><time>2026-08-15T15:38:18.000Z</time></trkpt>
        <trkpt lat="29.5703919" lon="103.4170361"><ele>888.11</ele><time>2026-08-15T15:38:28.000Z</time></trkpt>
        <trkpt lat="29.5704281" lon="103.4169413"><ele>886.65</ele><time>2026-08-15T15:38:36.000Z</time></trkpt>
        <trkpt lat="29.5704281" lon="103.4168184"><ele>885.74</ele><time>2026-08-15T15:38:44.000Z</time></trkpt>
        <trkpt lat="29.5704279" lon="103.4166877"><ele>884.34</ele><time>2026-08-15T15:38:54.000Z</time></trkpt>
        <trkpt lat="29.570426" lon="103.4165724"><ele>884.6</ele><time>2026-08-15T15:39:02.000Z</time></trkpt>
        <trkpt lat="29.5704277" lon="103.4164648"><ele>885.61</ele><time>2026-08-15T15:39:10.000Z</time></trkpt>
        <trkpt lat="29.5704276" lon="103.4163606"><ele>884.82</ele><time>2026-08-15T15:39:18.000Z</time></trkpt>
        <trkpt lat="29.5704418" lon="103.416251"><ele>884.16</ele><time>2026-08-15T15:39:28.000Z</time></trkpt>
        <trkpt lat="29.5705085" lon="103.4161812"><ele>883.69</ele><time>2026-08-15T15:39:38.000Z</time></trkpt>
        <trkpt lat="29.5705961" lon="103.4161289"><ele>884.2</ele><time>2026-08-15T15:39:50.000Z</time></trkpt>
        <trkpt lat="29.5706821" lon="103.4160727"><ele>883.48</ele><time>2026-08-15T15:40:06.000Z</time></trkpt>
        <trkpt lat="29.5707696" lon="103.4160327"><ele>882.88</ele><time>2026-08-15T15:40:28.000Z</time></trkpt>
        <trkpt lat="29.5707798" lon="103.4159489"><ele>884.29</ele><time>2026-08-15T15:40:46.000Z</time></trkpt>
        <trkpt lat="29.5707128" lon="103.4158722"><ele>884.17</ele><time>2026-08-15T15:40:54.000Z</time></trkpt>
        <trkpt lat="29.5706189" lon="103.4158018"><ele>884.84</ele><time>2026-08-15T15:41:02.000Z</time></trkpt>
        <trkpt lat="29.5705174" lon="103.41576"><ele>884.64</ele><time>2026-08-15T15:41:10.000Z</time></trkpt>
        <trkpt lat="29.570438" lon="103.415696"><ele>883.88</ele><time>2026-08-15T15:41:18.000Z</time></trkpt>
        <trkpt lat="29.5703779" lon="103.4156149"><ele>883.77</ele><time>2026-08-15T15:41:26.000Z</time></trkpt>
        <trkpt lat="29.5702941" lon="103.4155435"><ele>884.06</ele><time>2026-08-15T15:41:36.000Z</time></trkpt>
        <trkpt lat="29.5701976" lon="103.4155192"><ele>883.53</ele><time>2026-08-15T15:41:46.000Z</time></trkpt>
        <trkpt lat="29.5700943" lon="103.4155134"><ele>885.06</ele><time>2026-08-15T15:41:58.000Z</time></trkpt>
        <trkpt lat="29.5700073" lon="103.4154614"><ele>885.53</ele><time>2026-08-15T15:42:12.000Z</time></trkpt>
        <trkpt lat="29.569928" lon="103.4153738"><ele>887.68</ele><time>2026-08-15T15:42:24.000Z</time></trkpt>
        <trkpt lat="29.5698773" lon="103.4152686"><ele>889.2</ele><time>2026-08-15T15:42:34.000Z</time></trkpt>
        <trkpt lat="29.5698548" lon="103.4151539"><ele>890.27</ele><time>2026-08-15T15:42:44.000Z</time></trkpt>
        <trkpt lat="29.569855" lon="103.4150252"><ele>889.69</ele><time>2026-08-15T15:42:54.000Z</time></trkpt>
        <trkpt lat="29.5698173" lon="103.4149109"><ele>888.85</ele><time>2026-08-15T15:43:04.000Z</time></trkpt>
        <trkpt lat="29.5697472" lon="103.4148231"><ele>887.71</ele><time>2026-08-15T15:43:14.000Z</time></trkpt>
        <trkpt lat="29.5696623" lon="103.4147409"><ele>886.94</ele><time>2026-08-15T15:43:24.000Z</time></trkpt>
        <trkpt lat="29.5695574" lon="103.4147119"><ele>886.74</ele><time>2026-08-15T15:43:34.000Z</time></trkpt>
        <trkpt lat="29.5694556" lon="103.4147312"><ele>886.59</ele><time>2026-08-15T15:43:44.000Z</time></trkpt>
        <trkpt lat="29.5693544" lon="103.414773"><ele>885.73</ele><time>2026-08-15T15:43:54.000Z</time></trkpt>
        <trkpt lat="29.5692544" lon="103.4148146"><ele>884.06</ele><time>2026-08-15T15:44:04.000Z</time></trkpt>
        <trkpt lat="29.5691867" lon="103.4147522"><ele>882.06</ele><time>2026-08-15T15:44:16.000Z</time></trkpt>
        <trkpt lat="29.569132" lon="103.4146609"><ele>881.92</ele><time>2026-08-15T15:44:26.000Z</time></trkpt>
        <trkpt lat="29.5690868" lon="103.414546"><ele>882.46</ele><time>2026-08-15T15:44:36.000Z</time></trkpt>
        <trkpt lat="29.5690817" lon="103.4144248"><ele>883.26</ele><time>2026-08-15T15:44:46.000Z</time></trkpt>
        <trkpt lat="29.569094" lon="103.4143122"><ele>883.9</ele><time>2026-08-15T15:44:54.000Z</time></trkpt>
        <trkpt lat="29.5690984" lon="103.4141992"><ele>883.94</ele><time>2026-08-15T15:45:02.000Z</time></trkpt>
        <trkpt lat="29.5690931" lon="103.4140851"><ele>884.22</ele><time>2026-08-15T15:45:10.000Z</time></trkpt>
        <trkpt lat="29.5691204" lon="103.4139854"><ele>884.35</ele><time>2026-08-15T15:45:18.000Z</time></trkpt>
        <trkpt lat="29.5691468" lon="103.4138683"><ele>884.55</ele><time>2026-08-15T15:45:28.000Z</time></trkpt>
        <trkpt lat="29.5691187" lon="103.4137659"><ele>883.85</ele><time>2026-08-15T15:45:36.000Z</time></trkpt>
        <trkpt lat="29.5690775" lon="103.4136619"><ele>883.31</ele><time>2026-08-15T15:45:46.000Z</time></trkpt>
        <trkpt lat="29.5690356" lon="103.4135628"><ele>883.89</ele><time>2026-08-15T15:45:54.000Z</time></trkpt>
        <trkpt lat="29.5690041" lon="103.4134613"><ele>884.6</ele><time>2026-08-15T15:46:02.000Z</time></trkpt>
        <trkpt lat="29.5690182" lon="103.4133415"><ele>884.94</ele><time>2026-08-15T15:46:12.000Z</time></trkpt>
        <trkpt lat="29.5690145" lon="103.4132186"><ele>885.24</ele><time>2026-08-15T15:46:22.000Z</time></trkpt>
        <trkpt lat="29.5690583" lon="103.413113"><ele>885.6</ele><time>2026-08-15T15:46:32.000Z</time></trkpt>
        <trkpt lat="29.5691311" lon="103.4130336"><ele>886.3</ele><time>2026-08-15T15:46:40.000Z</time></trkpt>
        <trkpt lat="29.5691938" lon="103.4129427"><ele>884.63</ele><time>2026-08-15T15:46:50.000Z</time></trkpt>
        <trkpt lat="29.569253" lon="103.4128479"><ele>882.2</ele><time>2026-08-15T15:47:00.000Z</time></trkpt>
        <trkpt lat="29.5693209" lon="103.4127732"><ele>879.39</ele><time>2026-08-15T15:47:08.000Z</time></trkpt>
        <trkpt lat="29.5693914" lon="103.4127038"><ele>878.13</ele><time>2026-08-15T15:47:16.000Z</time></trkpt>
        <trkpt lat="29.5693767" lon="103.4126109"><ele>877.04</ele><time>2026-08-15T15:47:26.000Z</time></trkpt>
        <trkpt lat="29.5693805" lon="103.412506"><ele>876.2</ele><time>2026-08-15T15:47:38.000Z</time></trkpt>
        <trkpt lat="29.5693515" lon="103.4124023"><ele>873.54</ele><time>2026-08-15T15:47:48.000Z</time></trkpt>
        <trkpt lat="29.5693486" lon="103.4122866"><ele>871.81</ele><time>2026-08-15T15:47:58.000Z</time></trkpt>
        <trkpt lat="29.5693527" lon="103.4121771"><ele>872.49</ele><time>2026-08-15T15:48:12.000Z</time></trkpt>
        <trkpt lat="29.5692846" lon="103.4121353"><ele>872.92</ele><time>2026-08-15T15:48:30.000Z</time></trkpt>
        <trkpt lat="29.5691838" lon="103.4121363"><ele>870.24</ele><time>2026-08-15T15:48:44.000Z</time></trkpt>
        <trkpt lat="29.5690745" lon="103.4121227"><ele>868.22</ele><time>2026-08-15T15:48:58.000Z</time></trkpt>
        <trkpt lat="29.5689864" lon="103.4120719"><ele>866.56</ele><time>2026-08-15T15:49:08.000Z</time></trkpt>
        <trkpt lat="29.5689185" lon="103.411997"><ele>864.5</ele><time>2026-08-15T15:49:16.000Z</time></trkpt>
        <trkpt lat="29.568861" lon="103.4119121"><ele>863.98</ele><time>2026-08-15T15:49:24.000Z</time></trkpt>
        <trkpt lat="29.5687682" lon="103.411877"><ele>862.46</ele><time>2026-08-15T15:49:36.000Z</time></trkpt>
        <trkpt lat="29.5686635" lon="103.4118798"><ele>858.53</ele><time>2026-08-15T15:49:46.000Z</time></trkpt>
        <trkpt lat="29.5685838" lon="103.411835"><ele>854.98</ele><time>2026-08-15T15:49:58.000Z</time></trkpt>
        <trkpt lat="29.5685061" lon="103.4117781"><ele>853.98</ele><time>2026-08-15T15:50:08.000Z</time></trkpt>
        <trkpt lat="29.5684259" lon="103.411699"><ele>855.49</ele><time>2026-08-15T15:50:18.000Z</time></trkpt>
        <trkpt lat="29.5683767" lon="103.4115944"><ele>857.61</ele><time>2026-08-15T15:50:34.000Z</time></trkpt>
        <trkpt lat="29.5683401" lon="103.4114879"><ele>854.65</ele><time>2026-08-15T15:50:46.000Z</time></trkpt>
        <trkpt lat="29.568357" lon="103.4113852"><ele>849.7</ele><time>2026-08-15T15:50:54.000Z</time></trkpt>
        <trkpt lat="29.5684014" lon="103.4112764"><ele>846.99</ele><time>2026-08-15T15:51:02.000Z</time></trkpt>
        <trkpt lat="29.5684569" lon="103.411183"><ele>844.7</ele><time>2026-08-15T15:51:10.000Z</time></trkpt>
        <trkpt lat="29.5684953" lon="103.4110664"><ele>842.36</ele><time>2026-08-15T15:51:18.000Z</time></trkpt>
        <trkpt lat="29.5685254" lon="103.4109463"><ele>841.12</ele><time>2026-08-15T15:51:26.000Z</time></trkpt>
        <trkpt lat="29.5685536" lon="103.4108294"><ele>840.75</ele><time>2026-08-15T15:51:34.000Z</time></trkpt>
        <trkpt lat="29.568586" lon="103.4107263"><ele>838.91</ele><time>2026-08-15T15:51:42.000Z</time></trkpt>
        <trkpt lat="29.5686224" lon="103.4106282"><ele>837.91</ele><time>2026-08-15T15:51:50.000Z</time></trkpt>
        <trkpt lat="29.5686481" lon="103.4105134"><ele>836.46</ele><time>2026-08-15T15:52:00.000Z</time></trkpt>
        <trkpt lat="29.5686755" lon="103.4104022"><ele>835.79</ele><time>2026-08-15T15:52:08.000Z</time></trkpt>
        <trkpt lat="29.5686637" lon="103.4102808"><ele>834.58</ele><time>2026-08-15T15:52:18.000Z</time></trkpt>
        <trkpt lat="29.5686547" lon="103.4101544"><ele>833.51</ele><time>2026-08-15T15:52:28.000Z</time></trkpt>
        <trkpt lat="29.5686151" lon="103.4100374"><ele>832.43</ele><time>2026-08-15T15:52:36.000Z</time></trkpt>
        <trkpt lat="29.5685361" lon="103.4099502"><ele>831.79</ele><time>2026-08-15T15:52:46.000Z</time></trkpt>
        <trkpt lat="29.5684359" lon="103.4099183"><ele>830.34</ele><time>2026-08-15T15:52:54.000Z</time></trkpt>
        <trkpt lat="29.5683589" lon="103.4098514"><ele>828.48</ele><time>2026-08-15T15:53:02.000Z</time></trkpt>
        <trkpt lat="29.5682842" lon="103.4097651"><ele>826.95</ele><time>2026-08-15T15:53:12.000Z</time></trkpt>
        <trkpt lat="29.5682384" lon="103.4096672"><ele>826.62</ele><time>2026-08-15T15:53:20.000Z</time></trkpt>
        <trkpt lat="29.5682093" lon="103.4096039"><ele>825.55</ele><time>2026-08-15T15:53:26.000Z</time></trkpt>
        <trkpt lat="29.568172" lon="103.4095049"><ele>825.02</ele><time>2026-08-15T15:53:36.000Z</time></trkpt>
        <trkpt lat="29.5681335" lon="103.4093992"><ele>824.94</ele><time>2026-08-15T15:53:48.000Z</time></trkpt>
        <trkpt lat="29.568095" lon="103.4092968"><ele>824.39</ele><time>2026-08-15T15:54:08.000Z</time></trkpt>
        <trkpt lat="29.5680571" lon="103.4091926"><ele>820.43</ele><time>2026-08-15T15:54:24.000Z</time></trkpt>
        <trkpt lat="29.5680107" lon="103.4090922"><ele>815.78</ele><time>2026-08-15T15:54:36.000Z</time></trkpt>
        <trkpt lat="29.567947" lon="103.4090123"><ele>810.92</ele><time>2026-08-15T15:54:48.000Z</time></trkpt>
        <trkpt lat="29.567889" lon="103.4089247"><ele>807.58</ele><time>2026-08-15T15:54:58.000Z</time></trkpt>
        <trkpt lat="29.5678576" lon="103.4088129"><ele>804.33</ele><time>2026-08-15T15:55:14.000Z</time></trkpt>
        <trkpt lat="29.5678429" lon="103.4086959"><ele>801.25</ele><time>2026-08-15T15:55:26.000Z</time></trkpt>
        <trkpt lat="29.5677971" lon="103.4085886"><ele>798.17</ele><time>2026-08-15T15:55:36.000Z</time></trkpt>
        <trkpt lat="29.5677445" lon="103.4084876"><ele>795.12</ele><time>2026-08-15T15:55:46.000Z</time></trkpt>
        <trkpt lat="29.5676629" lon="103.4084173"><ele>790.64</ele><time>2026-08-15T15:56:00.000Z</time></trkpt>
        <trkpt lat="29.5675945" lon="103.4084775"><ele>787.49</ele><time>2026-08-15T15:56:12.000Z</time></trkpt>
        <trkpt lat="29.5675403" lon="103.4085765"><ele>783.86</ele><time>2026-08-15T15:56:20.000Z</time></trkpt>
        <trkpt lat="29.5674591" lon="103.4086253"><ele>780.25</ele><time>2026-08-15T15:56:28.000Z</time></trkpt>
        <trkpt lat="29.5673548" lon="103.408614"><ele>778.2</ele><time>2026-08-15T15:56:42.000Z</time></trkpt>
        <trkpt lat="29.5672512" lon="103.4085581"><ele>775.66</ele><time>2026-08-15T15:56:52.000Z</time></trkpt>
        <trkpt lat="29.5671588" lon="103.408498"><ele>773.24</ele><time>2026-08-15T15:57:00.000Z</time></trkpt>
        <trkpt lat="29.5670506" lon="103.4084757"><ele>771.56</ele><time>2026-08-15T15:57:08.000Z</time></trkpt>
        <trkpt lat="29.5669387" lon="103.4084802"><ele>772.76</ele><time>2026-08-15T15:57:16.000Z</time></trkpt>
        <trkpt lat="29.5668389" lon="103.4084813"><ele>773.94</ele><time>2026-08-15T15:57:24.000Z</time></trkpt>
        <trkpt lat="29.5667471" lon="103.4084642"><ele>775.11</ele><time>2026-08-15T15:57:32.000Z</time></trkpt>
        <trkpt lat="29.5666904" lon="103.4083739"><ele>774.91</ele><time>2026-08-15T15:57:42.000Z</time></trkpt>
        <trkpt lat="29.5666948" lon="103.4082657"><ele>773.83</ele><time>2026-08-15T15:57:50.000Z</time></trkpt>
        <trkpt lat="29.5667163" lon="103.4081512"><ele>773.98</ele><time>2026-08-15T15:57:58.000Z</time></trkpt>
        <trkpt lat="29.5667083" lon="103.4080288"><ele>773.49</ele><time>2026-08-15T15:58:06.000Z</time></trkpt>
        <trkpt lat="29.5666664" lon="103.4079069"><ele>773.9</ele><time>2026-08-15T15:58:16.000Z</time></trkpt>
        <trkpt lat="29.5666328" lon="103.4078006"><ele>773.8</ele><time>2026-08-15T15:58:24.000Z</time></trkpt>
        <trkpt lat="29.5665975" lon="103.407691"><ele>773.66</ele><time>2026-08-15T15:58:34.000Z</time></trkpt>
        <trkpt lat="29.566572" lon="103.4076992"><ele>774.84</ele><time>2026-08-15T15:58:42.000Z</time></trkpt>
        <trkpt lat="29.5665408" lon="103.4076353"><ele>775.62</ele><time>2026-08-15T15:58:54.000Z</time></trkpt>
        <trkpt lat="29.5665152" lon="103.4075851"><ele>776.24</ele><time>2026-08-15T15:59:00.000Z</time></trkpt>
        <trkpt lat="29.5665166" lon="103.4074928"><ele>776.89</ele><time>2026-08-15T15:59:14.000Z</time></trkpt>
        <trkpt lat="29.5664894" lon="103.407388"><ele>777.64</ele><time>2026-08-15T15:59:22.000Z</time></trkpt>
        <trkpt lat="29.5664571" lon="103.4072845"><ele>778.08</ele><time>2026-08-15T15:59:30.000Z</time></trkpt>
        <trkpt lat="29.5664335" lon="103.4071796"><ele>777.97</ele><time>2026-08-15T15:59:38.000Z</time></trkpt>
        <trkpt lat="29.5664092" lon="103.4070775"><ele>777.31</ele><time>2026-08-15T15:59:46.000Z</time></trkpt>
        <trkpt lat="29.5664018" lon="103.4069684"><ele>776.41</ele><time>2026-08-15T15:59:54.000Z</time></trkpt>
        <trkpt lat="29.5664261" lon="103.4068593"><ele>775.56</ele><time>2026-08-15T16:00:02.000Z</time></trkpt>
        <trkpt lat="29.5664791" lon="103.4067681"><ele>774.98</ele><time>2026-08-15T16:00:10.000Z</time></trkpt>
        <trkpt lat="29.5665409" lon="103.4067608"><ele>774.34</ele><time>2026-08-15T16:00:24.000Z</time></trkpt>
        <trkpt lat="29.5665872" lon="103.4066803"><ele>773.7</ele><time>2026-08-15T16:01:12.000Z</time></trkpt>
        <trkpt lat="29.5666585" lon="103.4065843"><ele>773.9</ele><time>2026-08-15T16:01:20.000Z</time></trkpt>
        <trkpt lat="29.5667294" lon="103.4064709"><ele>773.43</ele><time>2026-08-15T16:01:30.000Z</time></trkpt>
        <trkpt lat="29.5668002" lon="103.4063719"><ele>773.41</ele><time>2026-08-15T16:01:38.000Z</time></trkpt>
        <trkpt lat="29.5668661" lon="103.4062809"><ele>772.8</ele><time>2026-08-15T16:01:46.000Z</time></trkpt>
        <trkpt lat="29.5669307" lon="103.4061861"><ele>772.3</ele><time>2026-08-15T16:01:54.000Z</time></trkpt>
        <trkpt lat="29.5669773" lon="103.4060866"><ele>772.03</ele><time>2026-08-15T16:02:00.000Z</time></trkpt>
        <trkpt lat="29.5670331" lon="103.4059804"><ele>771.97</ele><time>2026-08-15T16:02:08.000Z</time></trkpt>
        <trkpt lat="29.5670868" lon="103.4058736"><ele>772.2</ele><time>2026-08-15T16:02:16.000Z</time></trkpt>
        <trkpt lat="29.5670995" lon="103.4057659"><ele>772.06</ele><time>2026-08-15T16:02:26.000Z</time></trkpt>
        <trkpt lat="29.5670444" lon="103.405686"><ele>770.6</ele><time>2026-08-15T16:02:34.000Z</time></trkpt>
        <trkpt lat="29.5669675" lon="103.4056008"><ele>768.73</ele><time>2026-08-15T16:02:44.000Z</time></trkpt>
        <trkpt lat="29.5668924" lon="103.4055256"><ele>768.25</ele><time>2026-08-15T16:02:52.000Z</time></trkpt>
        <trkpt lat="29.5668081" lon="103.4054513"><ele>768.55</ele><time>2026-08-15T16:03:00.000Z</time></trkpt>
        <trkpt lat="29.5667296" lon="103.4053617"><ele>768.61</ele><time>2026-08-15T16:03:08.000Z</time></trkpt>
        <trkpt lat="29.5666939" lon="103.4052602"><ele>769.46</ele><time>2026-08-15T16:03:16.000Z</time></trkpt>
        <trkpt lat="29.5666968" lon="103.4051507"><ele>768.14</ele><time>2026-08-15T16:03:24.000Z</time></trkpt>
        <trkpt lat="29.5667659" lon="103.4050651"><ele>766.97</ele><time>2026-08-15T16:03:32.000Z</time></trkpt>
        <trkpt lat="29.5668769" lon="103.405043"><ele>766.05</ele><time>2026-08-15T16:03:40.000Z</time></trkpt>
        <trkpt lat="29.5669721" lon="103.4050005"><ele>765.08</ele><time>2026-08-15T16:03:52.000Z</time></trkpt>
        <trkpt lat="29.5670793" lon="103.4050121"><ele>763.01</ele><time>2026-08-15T16:04:00.000Z</time></trkpt>
        <trkpt lat="29.567189" lon="103.4050205"><ele>762.66</ele><time>2026-08-15T16:04:08.000Z</time></trkpt>
        <trkpt lat="29.5672955" lon="103.4050103"><ele>762.75</ele><time>2026-08-15T16:04:16.000Z</time></trkpt>
        <trkpt lat="29.5674008" lon="103.4050003"><ele>762.1</ele><time>2026-08-15T16:04:24.000Z</time></trkpt>
        <trkpt lat="29.5675024" lon="103.405002"><ele>761.67</ele><time>2026-08-15T16:04:32.000Z</time></trkpt>
        <trkpt lat="29.567602" lon="103.4050194"><ele>762.08</ele><time>2026-08-15T16:04:40.000Z</time></trkpt>
        <trkpt lat="29.5676972" lon="103.405037"><ele>761.81</ele><time>2026-08-15T16:04:48.000Z</time></trkpt>
        <trkpt lat="29.567804" lon="103.4050471"><ele>761.9</ele><time>2026-08-15T16:04:58.000Z</time></trkpt>
        <trkpt lat="29.5678973" lon="103.4049936"><ele>761.41</ele><time>2026-08-15T16:05:06.000Z</time></trkpt>
        <trkpt lat="29.5679793" lon="103.4049344"><ele>761.67</ele><time>2026-08-15T16:05:14.000Z</time></trkpt>
        <trkpt lat="29.5680638" lon="103.404857"><ele>761.4</ele><time>2026-08-15T16:05:22.000Z</time></trkpt>
        <trkpt lat="29.5681559" lon="103.4048146"><ele>761.68</ele><time>2026-08-15T16:05:30.000Z</time></trkpt>
        <trkpt lat="29.5682388" lon="103.4047577"><ele>761.4</ele><time>2026-08-15T16:05:38.000Z</time></trkpt>
        <trkpt lat="29.5683155" lon="103.4046782"><ele>760.12</ele><time>2026-08-15T16:05:46.000Z</time></trkpt>
        <trkpt lat="29.5683789" lon="103.4045846"><ele>759.38</ele><time>2026-08-15T16:05:54.000Z</time></trkpt>
        <trkpt lat="29.5684441" lon="103.40449"><ele>759.18</ele><time>2026-08-15T16:06:02.000Z</time></trkpt>
        <trkpt lat="29.5685075" lon="103.4044019"><ele>758.57</ele><time>2026-08-15T16:06:10.000Z</time></trkpt>
        <trkpt lat="29.5685569" lon="103.4042976"><ele>758.79</ele><time>2026-08-15T16:06:18.000Z</time></trkpt>
        <trkpt lat="29.5686052" lon="103.4041893"><ele>758.51</ele><time>2026-08-15T16:06:26.000Z</time></trkpt>
        <trkpt lat="29.5686544" lon="103.4040873"><ele>757.3</ele><time>2026-08-15T16:06:34.000Z</time></trkpt>
        <trkpt lat="29.5687182" lon="103.4039967"><ele>756.07</ele><time>2026-08-15T16:06:42.000Z</time></trkpt>
        <trkpt lat="29.5687896" lon="103.4039099"><ele>754.29</ele><time>2026-08-15T16:06:50.000Z</time></trkpt>
        <trkpt lat="29.5688934" lon="103.4038797"><ele>753.51</ele><time>2026-08-15T16:06:58.000Z</time></trkpt>
        <trkpt lat="29.5690077" lon="103.4039023"><ele>753.57</ele><time>2026-08-15T16:07:06.000Z</time></trkpt>
        <trkpt lat="29.56912" lon="103.4039346"><ele>752.21</ele><time>2026-08-15T16:07:14.000Z</time></trkpt>
        <trkpt lat="29.5692205" lon="103.4039196"><ele>750.95</ele><time>2026-08-15T16:07:22.000Z</time></trkpt>
        <trkpt lat="29.5693142" lon="103.4038695"><ele>749.1</ele><time>2026-08-15T16:07:30.000Z</time></trkpt>
        <trkpt lat="29.5693942" lon="103.4038095"><ele>747.02</ele><time>2026-08-15T16:07:36.000Z</time></trkpt>
        <trkpt lat="29.5694793" lon="103.4037436"><ele>746.67</ele><time>2026-08-15T16:07:44.000Z</time></trkpt>
        <trkpt lat="29.5695666" lon="103.4036613"><ele>746.51</ele><time>2026-08-15T16:07:52.000Z</time></trkpt>
        <trkpt lat="29.5696525" lon="103.4035684"><ele>745.5</ele><time>2026-08-15T16:08:00.000Z</time></trkpt>
        <trkpt lat="29.5697335" lon="103.4034728"><ele>744.32</ele><time>2026-08-15T16:08:08.000Z</time></trkpt>
        <trkpt lat="29.5698157" lon="103.4033804"><ele>743.61</ele><time>2026-08-15T16:08:16.000Z</time></trkpt>
        <trkpt lat="29.5698902" lon="103.4032968"><ele>743.63</ele><time>2026-08-15T16:08:24.000Z</time></trkpt>
        <trkpt lat="29.5699608" lon="103.4032096"><ele>745.11</ele><time>2026-08-15T16:08:32.000Z</time></trkpt>
        <trkpt lat="29.5700213" lon="103.403114"><ele>745.91</ele><time>2026-08-15T16:08:40.000Z</time></trkpt>
        <trkpt lat="29.5700573" lon="103.4029942"><ele>745.79</ele><time>2026-08-15T16:08:48.000Z</time></trkpt>
        <trkpt lat="29.5701131" lon="103.4028938"><ele>746.2</ele><time>2026-08-15T16:08:56.000Z</time></trkpt>
        <trkpt lat="29.5701912" lon="103.4028192"><ele>746.32</ele><time>2026-08-15T16:09:04.000Z</time></trkpt>
        <trkpt lat="29.5702939" lon="103.4027994"><ele>745.46</ele><time>2026-08-15T16:09:12.000Z</time></trkpt>
        <trkpt lat="29.5704071" lon="103.4027794"><ele>744.87</ele><time>2026-08-15T16:09:20.000Z</time></trkpt>
        <trkpt lat="29.5705078" lon="103.4027643"><ele>744.69</ele><time>2026-08-15T16:09:26.000Z</time></trkpt>
        <trkpt lat="29.5706165" lon="103.4027462"><ele>743.66</ele><time>2026-08-15T16:09:34.000Z</time></trkpt>
        <trkpt lat="29.5707247" lon="103.4027125"><ele>743.2</ele><time>2026-08-15T16:09:42.000Z</time></trkpt>
        <trkpt lat="29.5708248" lon="103.4026667"><ele>742.62</ele><time>2026-08-15T16:09:50.000Z</time></trkpt>
        <trkpt lat="29.570928" lon="103.402615"><ele>740.35</ele><time>2026-08-15T16:09:58.000Z</time></trkpt>
        <trkpt lat="29.5710323" lon="103.4025599"><ele>737.78</ele><time>2026-08-15T16:10:06.000Z</time></trkpt>
        <trkpt lat="29.5711191" lon="103.4024971"><ele>736.4</ele><time>2026-08-15T16:10:14.000Z</time></trkpt>
        <trkpt lat="29.571188" lon="103.4024214"><ele>735.37</ele><time>2026-08-15T16:10:22.000Z</time></trkpt>
        <trkpt lat="29.5712523" lon="103.4023202"><ele>734.37</ele><time>2026-08-15T16:10:32.000Z</time></trkpt>
        <trkpt lat="29.5713074" lon="103.4022205"><ele>734.42</ele><time>2026-08-15T16:10:40.000Z</time></trkpt>
        <trkpt lat="29.571373" lon="103.4021294"><ele>733.89</ele><time>2026-08-15T16:10:48.000Z</time></trkpt>
        <trkpt lat="29.571446" lon="103.4020357"><ele>732.91</ele><time>2026-08-15T16:10:56.000Z</time></trkpt>
        <trkpt lat="29.571515" lon="103.4019329"><ele>731.33</ele><time>2026-08-15T16:11:04.000Z</time></trkpt>
        <trkpt lat="29.5716006" lon="103.4018667"><ele>730.34</ele><time>2026-08-15T16:11:12.000Z</time></trkpt>
        <trkpt lat="29.571704" lon="103.4018417"><ele>729.94</ele><time>2026-08-15T16:11:20.000Z</time></trkpt>
        <trkpt lat="29.5717815" lon="103.4017652"><ele>729.53</ele><time>2026-08-15T16:11:32.000Z</time></trkpt>
        <trkpt lat="29.5718408" lon="103.4016681"><ele>730.8</ele><time>2026-08-15T16:11:46.000Z</time></trkpt>
        <trkpt lat="29.5719218" lon="103.4015919"><ele>733.63</ele><time>2026-08-15T16:11:58.000Z</time></trkpt>
        <trkpt lat="29.572009" lon="103.401524"><ele>733.24</ele><time>2026-08-15T16:12:08.000Z</time></trkpt>
        <trkpt lat="29.572031" lon="103.4014177"><ele>732.93</ele><time>2026-08-15T16:12:18.000Z</time></trkpt>
        <trkpt lat="29.5720206" lon="103.4012965"><ele>732.28</ele><time>2026-08-15T16:12:30.000Z</time></trkpt>
        <trkpt lat="29.5719942" lon="103.4011764"><ele>730.8</ele><time>2026-08-15T16:12:44.000Z</time></trkpt>
        <trkpt lat="29.5719797" lon="103.4010576"><ele>730.7</ele><time>2026-08-15T16:12:58.000Z</time></trkpt>
        <trkpt lat="29.571959" lon="103.4009365"><ele>730</ele><time>2026-08-15T16:13:08.000Z</time></trkpt>
        <trkpt lat="29.5719131" lon="103.4008308"><ele>728.63</ele><time>2026-08-15T16:13:38.000Z</time></trkpt>
        <trkpt lat="29.5718968" lon="103.400817"><ele>728.43</ele><time>2026-08-15T16:13:52.000Z</time></trkpt>
        <trkpt lat="29.5718834" lon="103.4007417"><ele>731.91</ele><time>2026-08-15T16:14:40.000Z</time></trkpt>
        <trkpt lat="29.5718537" lon="103.4006438"><ele>736.36</ele><time>2026-08-15T16:15:00.000Z</time></trkpt>
        <trkpt lat="29.5718289" lon="103.4005351"><ele>739.76</ele><time>2026-08-15T16:15:28.000Z</time></trkpt>
        <trkpt lat="29.5718217" lon="103.4004248"><ele>743.55</ele><time>2026-08-15T16:15:50.000Z</time></trkpt>
        <trkpt lat="29.5718209" lon="103.400317"><ele>749.47</ele><time>2026-08-15T16:16:14.000Z</time></trkpt>
        <trkpt lat="29.571797" lon="103.4002105"><ele>754.02</ele><time>2026-08-15T16:16:36.000Z</time></trkpt>
        <trkpt lat="29.571768" lon="103.4001056"><ele>756.14</ele><time>2026-08-15T16:17:02.000Z</time></trkpt>
        <trkpt lat="29.5717586" lon="103.3999962"><ele>760.1</ele><time>2026-08-15T16:17:24.000Z</time></trkpt>
        <trkpt lat="29.571746" lon="103.3998873"><ele>764.43</ele><time>2026-08-15T16:17:52.000Z</time></trkpt>
        <trkpt lat="29.5717792" lon="103.3997853"><ele>770.21</ele><time>2026-08-15T16:18:12.000Z</time></trkpt>
        <trkpt lat="29.5718128" lon="103.3996788"><ele>776.38</ele><time>2026-08-15T16:18:32.000Z</time></trkpt>
        <trkpt lat="29.5718023" lon="103.3995736"><ele>779.2</ele><time>2026-08-15T16:18:50.000Z</time></trkpt>
        <trkpt lat="29.5717815" lon="103.3994638"><ele>782.87</ele><time>2026-08-15T16:19:48.000Z</time></trkpt>
        <trkpt lat="29.5717973" lon="103.399415"><ele>788.97</ele><time>2026-08-15T16:19:56.000Z</time></trkpt>
        <trkpt lat="29.5717933" lon="103.3993191"><ele>792.67</ele><time>2026-08-15T16:20:48.000Z</time></trkpt>
        <trkpt lat="29.5717386" lon="103.3992434"><ele>795.9</ele><time>2026-08-15T16:21:04.000Z</time></trkpt>
        <trkpt lat="29.5716978" lon="103.3991454"><ele>795.71</ele><time>2026-08-15T16:21:24.000Z</time></trkpt>
        <trkpt lat="29.5716742" lon="103.399042"><ele>797.63</ele><time>2026-08-15T16:21:38.000Z</time></trkpt>
        <trkpt lat="29.571632" lon="103.3989433"><ele>800.71</ele><time>2026-08-15T16:21:50.000Z</time></trkpt>
        <trkpt lat="29.5716088" lon="103.3988335"><ele>804.38</ele><time>2026-08-15T16:21:58.000Z</time></trkpt>
        <trkpt lat="29.5715986" lon="103.3987136"><ele>806.43</ele><time>2026-08-15T16:22:06.000Z</time></trkpt>
        <trkpt lat="29.57159" lon="103.3985938"><ele>807.19</ele><time>2026-08-15T16:22:14.000Z</time></trkpt>
        <trkpt lat="29.5715598" lon="103.3984773"><ele>807.9</ele><time>2026-08-15T16:22:24.000Z</time></trkpt>
        <trkpt lat="29.571546" lon="103.3983603"><ele>808.37</ele><time>2026-08-15T16:22:34.000Z</time></trkpt>
        <trkpt lat="29.5715408" lon="103.398252"><ele>808.28</ele><time>2026-08-15T16:22:44.000Z</time></trkpt>
        <trkpt lat="29.5715399" lon="103.3981474"><ele>806.49</ele><time>2026-08-15T16:22:58.000Z</time></trkpt>
        <trkpt lat="29.5715368" lon="103.3980448"><ele>804.79</ele><time>2026-08-15T16:23:08.000Z</time></trkpt>
        <trkpt lat="29.5715303" lon="103.3979315"><ele>801.38</ele><time>2026-08-15T16:23:22.000Z</time></trkpt>
        <trkpt lat="29.5715125" lon="103.3978197"><ele>796.96</ele><time>2026-08-15T16:23:36.000Z</time></trkpt>
        <trkpt lat="29.571468" lon="103.3977184"><ele>792.11</ele><time>2026-08-15T16:23:48.000Z</time></trkpt>
        <trkpt lat="29.5714316" lon="103.3976168"><ele>789.58</ele><time>2026-08-15T16:24:00.000Z</time></trkpt>
        <trkpt lat="29.5714154" lon="103.397512"><ele>787.92</ele><time>2026-08-15T16:24:14.000Z</time></trkpt>
        <trkpt lat="29.5714362" lon="103.3974096"><ele>784.62</ele><time>2026-08-15T16:24:24.000Z</time></trkpt>
        <trkpt lat="29.5714676" lon="103.397306"><ele>781.11</ele><time>2026-08-15T16:24:32.000Z</time></trkpt>
        <trkpt lat="29.5715042" lon="103.3972058"><ele>779.07</ele><time>2026-08-15T16:24:40.000Z</time></trkpt>
        <trkpt lat="29.5715598" lon="103.3971171"><ele>777.98</ele><time>2026-08-15T16:24:50.000Z</time></trkpt>
        <trkpt lat="29.5716212" lon="103.3970259"><ele>776.64</ele><time>2026-08-15T16:24:58.000Z</time></trkpt>
        <trkpt lat="29.5716828" lon="103.3969397"><ele>774.3</ele><time>2026-08-15T16:25:08.000Z</time></trkpt>
        <trkpt lat="29.5717388" lon="103.3968548"><ele>771.67</ele><time>2026-08-15T16:25:18.000Z</time></trkpt>
        <trkpt lat="29.5718056" lon="103.396778"><ele>768.86</ele><time>2026-08-15T16:25:26.000Z</time></trkpt>
        <trkpt lat="29.5718905" lon="103.3967443"><ele>767.26</ele><time>2026-08-15T16:25:34.000Z</time></trkpt>
        <trkpt lat="29.5719824" lon="103.3967372"><ele>767.03</ele><time>2026-08-15T16:25:44.000Z</time></trkpt>
        <trkpt lat="29.5720786" lon="103.396725"><ele>766.09</ele><time>2026-08-15T16:25:54.000Z</time></trkpt>
        <trkpt lat="29.5721719" lon="103.3967175"><ele>764.47</ele><time>2026-08-15T16:26:06.000Z</time></trkpt>
        <trkpt lat="29.5722687" lon="103.3966937"><ele>761.39</ele><time>2026-08-15T16:26:18.000Z</time></trkpt>
        <trkpt lat="29.5723352" lon="103.3966729"><ele>758.69</ele><time>2026-08-15T16:26:36.000Z</time></trkpt>
        <trkpt lat="29.5723584" lon="103.3965903"><ele>753.32</ele><time>2026-08-15T16:26:50.000Z</time></trkpt>
        <trkpt lat="29.5723459" lon="103.3964842"><ele>747.58</ele><time>2026-08-15T16:27:04.000Z</time></trkpt>
        <trkpt lat="29.5723363" lon="103.3963639"><ele>742.84</ele><time>2026-08-15T16:27:14.000Z</time></trkpt>
        <trkpt lat="29.5723751" lon="103.3962679"><ele>739.24</ele><time>2026-08-15T16:27:22.000Z</time></trkpt>
        <trkpt lat="29.572368" lon="103.3961588"><ele>737.69</ele><time>2026-08-15T16:27:34.000Z</time></trkpt>
        <trkpt lat="29.5723727" lon="103.3960395"><ele>735.72</ele><time>2026-08-15T16:27:46.000Z</time></trkpt>
        <trkpt lat="29.5724308" lon="103.3959612"><ele>734.55</ele><time>2026-08-15T16:27:56.000Z</time></trkpt>
        <trkpt lat="29.572518" lon="103.3959036"><ele>733.63</ele><time>2026-08-15T16:28:04.000Z</time></trkpt>
        <trkpt lat="29.5726121" lon="103.3958574"><ele>732.01</ele><time>2026-08-15T16:28:18.000Z</time></trkpt>
        <trkpt lat="29.572704" lon="103.3958122"><ele>729.4</ele><time>2026-08-15T16:28:30.000Z</time></trkpt>
        <trkpt lat="29.5727806" lon="103.3957403"><ele>727.37</ele><time>2026-08-15T16:28:40.000Z</time></trkpt>
        <trkpt lat="29.5728392" lon="103.3956534"><ele>726.4</ele><time>2026-08-15T16:28:50.000Z</time></trkpt>
        <trkpt lat="29.5728745" lon="103.395556"><ele>726.67</ele><time>2026-08-15T16:29:00.000Z</time></trkpt>
        <trkpt lat="29.5729059" lon="103.3954399"><ele>725.65</ele><time>2026-08-15T16:29:10.000Z</time></trkpt>
        <trkpt lat="29.5729515" lon="103.3953294"><ele>724.52</ele><time>2026-08-15T16:29:20.000Z</time></trkpt>
        <trkpt lat="29.5729631" lon="103.3952189"><ele>723.03</ele><time>2026-08-15T16:29:30.000Z</time></trkpt>
        <trkpt lat="29.5729248" lon="103.3951236"><ele>720.21</ele><time>2026-08-15T16:29:42.000Z</time></trkpt>
        <trkpt lat="29.5729014" lon="103.395019"><ele>718.2</ele><time>2026-08-15T16:29:52.000Z</time></trkpt>
        <trkpt lat="29.5729137" lon="103.394905"><ele>715.93</ele><time>2026-08-15T16:30:06.000Z</time></trkpt>
        <trkpt lat="29.5728863" lon="103.394805"><ele>714.62</ele><time>2026-08-15T16:30:18.000Z</time></trkpt>
        <trkpt lat="29.572824" lon="103.3947166"><ele>711.16</ele><time>2026-08-15T16:30:30.000Z</time></trkpt>
        <trkpt lat="29.572756" lon="103.3946371"><ele>708.28</ele><time>2026-08-15T16:30:40.000Z</time></trkpt>
        <trkpt lat="29.5727282" lon="103.3945367"><ele>706.67</ele><time>2026-08-15T16:30:54.000Z</time></trkpt>
        <trkpt lat="29.5727355" lon="103.3944245"><ele>704.69</ele><time>2026-08-15T16:31:06.000Z</time></trkpt>
        <trkpt lat="29.5727732" lon="103.3943229"><ele>704.23</ele><time>2026-08-15T16:31:18.000Z</time></trkpt>
        <trkpt lat="29.5728302" lon="103.394235"><ele>701.28</ele><time>2026-08-15T16:31:30.000Z</time></trkpt>
        <trkpt lat="29.5728811" lon="103.3941317"><ele>696.33</ele><time>2026-08-15T16:31:42.000Z</time></trkpt>
        <trkpt lat="29.5729222" lon="103.3940312"><ele>692.16</ele><time>2026-08-15T16:31:50.000Z</time></trkpt>
        <trkpt lat="29.5729683" lon="103.3939277"><ele>688.34</ele><time>2026-08-15T16:32:00.000Z</time></trkpt>
        <trkpt lat="29.573004" lon="103.3938151"><ele>687.23</ele><time>2026-08-15T16:32:10.000Z</time></trkpt>
        <trkpt lat="29.5730279" lon="103.3937427"><ele>683.3</ele><time>2026-08-15T16:32:14.000Z</time></trkpt>
        <trkpt lat="29.5731018" lon="103.3937078"><ele>687.27</ele><time>2026-08-15T16:32:24.000Z</time></trkpt>
        <trkpt lat="29.5731953" lon="103.3937184"><ele>689.96</ele><time>2026-08-15T16:32:34.000Z</time></trkpt>
        <trkpt lat="29.5732955" lon="103.3937148"><ele>691.66</ele><time>2026-08-15T16:32:44.000Z</time></trkpt>
        <trkpt lat="29.5733712" lon="103.3936545"><ele>691.75</ele><time>2026-08-15T16:32:56.000Z</time></trkpt>
        <trkpt lat="29.5734503" lon="103.3936021"><ele>689.37</ele><time>2026-08-15T16:33:04.000Z</time></trkpt>
        <trkpt lat="29.5735426" lon="103.3935587"><ele>686.98</ele><time>2026-08-15T16:33:14.000Z</time></trkpt>
        <trkpt lat="29.5736391" lon="103.3934885"><ele>684.06</ele><time>2026-08-15T16:33:22.000Z</time></trkpt>
        <trkpt lat="29.5737377" lon="103.3934269"><ele>682.59</ele><time>2026-08-15T16:33:30.000Z</time></trkpt>
        <trkpt lat="29.5738376" lon="103.3933738"><ele>682.51</ele><time>2026-08-15T16:33:38.000Z</time></trkpt>
        <trkpt lat="29.5739217" lon="103.3933067"><ele>682.08</ele><time>2026-08-15T16:33:46.000Z</time></trkpt>
        <trkpt lat="29.5739726" lon="103.3932098"><ele>681.96</ele><time>2026-08-15T16:33:54.000Z</time></trkpt>
        <trkpt lat="29.5740142" lon="103.3931022"><ele>681.2</ele><time>2026-08-15T16:34:04.000Z</time></trkpt>
        <trkpt lat="29.5740804" lon="103.3930326"><ele>680.88</ele><time>2026-08-15T16:34:16.000Z</time></trkpt>
        <trkpt lat="29.5740747" lon="103.3929413"><ele>681.8</ele><time>2026-08-15T16:34:36.000Z</time></trkpt>
        <trkpt lat="29.5740655" lon="103.3928289"><ele>681.16</ele><time>2026-08-15T16:34:52.000Z</time></trkpt>
        <trkpt lat="29.5740886" lon="103.3927183"><ele>678.64</ele><time>2026-08-15T16:35:02.000Z</time></trkpt>
        <trkpt lat="29.5741003" lon="103.3925989"><ele>677.12</ele><time>2026-08-15T16:35:18.000Z</time></trkpt>
        <trkpt lat="29.5740722" lon="103.392484"><ele>675.06</ele><time>2026-08-15T16:35:30.000Z</time></trkpt>
        <trkpt lat="29.5741152" lon="103.3924278"><ele>673.21</ele><time>2026-08-15T16:36:01.000Z</time></trkpt>
        <trkpt lat="29.5741297" lon="103.3923363"><ele>666.91</ele><time>2026-08-15T16:36:08.000Z</time></trkpt>
        <trkpt lat="29.5741802" lon="103.392238"><ele>663.59</ele><time>2026-08-15T16:37:18.000Z</time></trkpt>
        <trkpt lat="29.5742483" lon="103.3921552"><ele>662.04</ele><time>2026-08-15T16:37:28.000Z</time></trkpt>
        <trkpt lat="29.5743427" lon="103.392196"><ele>660.57</ele><time>2026-08-15T16:39:14.000Z</time></trkpt>
        <trkpt lat="29.5742294" lon="103.3921871"><ele>658.89</ele><time>2026-08-15T16:40:12.000Z</time></trkpt>
        <trkpt lat="29.5741548" lon="103.392245"><ele>656.95</ele><time>2026-08-15T16:41:08.000Z</time></trkpt>
        <trkpt lat="29.5742418" lon="103.392183"><ele>653.48</ele><time>2026-08-15T16:44:04.000Z</time></trkpt>
        <trkpt lat="29.5742556" lon="103.3921854"><ele>650.94</ele><time>2026-08-15T16:44:08.000Z</time></trkpt>
        <trkpt lat="29.574347" lon="103.392163"><ele>650.48</ele><time>2026-08-15T16:45:50.000Z</time></trkpt>
        <trkpt lat="29.5744237" lon="103.3921015"><ele>654.3</ele><time>2026-08-15T16:46:14.000Z</time></trkpt>
        <trkpt lat="29.574523" lon="103.392097"><ele>657.9</ele><time>2026-08-15T16:46:30.000Z</time></trkpt>
        <trkpt lat="29.5746209" lon="103.3920775"><ele>660.92</ele><time>2026-08-15T16:46:46.000Z</time></trkpt>
        <trkpt lat="29.5747092" lon="103.3921017"><ele>663.57</ele><time>2026-08-15T16:47:02.000Z</time></trkpt>
        <trkpt lat="29.5747969" lon="103.3921307"><ele>665.78</ele><time>2026-08-15T16:47:26.000Z</time></trkpt>
        <trkpt lat="29.5748871" lon="103.3921258"><ele>669.4</ele><time>2026-08-15T16:47:46.000Z</time></trkpt>
        <trkpt lat="29.5749765" lon="103.3920984"><ele>672.24</ele><time>2026-08-15T16:48:04.000Z</time></trkpt>
        <trkpt lat="29.5750655" lon="103.3920648"><ele>675.18</ele><time>2026-08-15T16:48:26.000Z</time></trkpt>
        <trkpt lat="29.5751489" lon="103.3920085"><ele>678.79</ele><time>2026-08-15T16:48:42.000Z</time></trkpt>
        <trkpt lat="29.5752156" lon="103.3919276"><ele>681.52</ele><time>2026-08-15T16:49:00.000Z</time></trkpt>
        <trkpt lat="29.575298" lon="103.3918856"><ele>683.61</ele><time>2026-08-15T16:49:20.000Z</time></trkpt>
        <trkpt lat="29.5753939" lon="103.391851"><ele>686.27</ele><time>2026-08-15T16:49:40.000Z</time></trkpt>
        <trkpt lat="29.5754891" lon="103.3918627"><ele>689.15</ele><time>2026-08-15T16:49:58.000Z</time></trkpt>
        <trkpt lat="29.5755786" lon="103.3918975"><ele>690.76</ele><time>2026-08-15T16:50:20.000Z</time></trkpt>
        <trkpt lat="29.5756706" lon="103.3919363"><ele>694.87</ele><time>2026-08-15T16:50:40.000Z</time></trkpt>
        <trkpt lat="29.5757624" lon="103.3919407"><ele>699.64</ele><time>2026-08-15T16:51:02.000Z</time></trkpt>
        <trkpt lat="29.575858" lon="103.3919044"><ele>703.08</ele><time>2026-08-15T16:51:24.000Z</time></trkpt>
        <trkpt lat="29.575951" lon="103.391888"><ele>706.68</ele><time>2026-08-15T16:51:40.000Z</time></trkpt>
        <trkpt lat="29.5760436" lon="103.3919033"><ele>710.7</ele><time>2026-08-15T16:51:50.000Z</time></trkpt>
        <trkpt lat="29.5761277" lon="103.3919462"><ele>714.14</ele><time>2026-08-15T16:52:04.000Z</time></trkpt>
        <trkpt lat="29.5762161" lon="103.391973"><ele>716.99</ele><time>2026-08-15T16:52:20.000Z</time></trkpt>
        <trkpt lat="29.5763136" lon="103.3919768"><ele>717.62</ele><time>2026-08-15T16:52:38.000Z</time></trkpt>
        <trkpt lat="29.5764139" lon="103.391993"><ele>720.26</ele><time>2026-08-15T16:52:54.000Z</time></trkpt>
        <trkpt lat="29.5765048" lon="103.3919738"><ele>723.78</ele><time>2026-08-15T16:53:08.000Z</time></trkpt>
        <trkpt lat="29.5765886" lon="103.3919314"><ele>727.22</ele><time>2026-08-15T16:53:20.000Z</time></trkpt>
        <trkpt lat="29.5766782" lon="103.39188"><ele>730.42</ele><time>2026-08-15T16:53:30.000Z</time></trkpt>
        <trkpt lat="29.5767492" lon="103.391789"><ele>731.8</ele><time>2026-08-15T16:53:42.000Z</time></trkpt>
        <trkpt lat="29.5768067" lon="103.3916903"><ele>733.33</ele><time>2026-08-15T16:53:54.000Z</time></trkpt>
        <trkpt lat="29.576851" lon="103.391593"><ele>734.33</ele><time>2026-08-15T16:54:04.000Z</time></trkpt>
        <trkpt lat="29.5768813" lon="103.3914824"><ele>734.73</ele><time>2026-08-15T16:54:16.000Z</time></trkpt>
        <trkpt lat="29.5769229" lon="103.3913802"><ele>736.08</ele><time>2026-08-15T16:54:28.000Z</time></trkpt>
        <trkpt lat="29.5769789" lon="103.3912921"><ele>737.26</ele><time>2026-08-15T16:54:40.000Z</time></trkpt>
        <trkpt lat="29.5770292" lon="103.3912009"><ele>738.39</ele><time>2026-08-15T16:54:50.000Z</time></trkpt>
        <trkpt lat="29.5770697" lon="103.3911019"><ele>738.93</ele><time>2026-08-15T16:55:02.000Z</time></trkpt>
        <trkpt lat="29.5771255" lon="103.3910104"><ele>740.3</ele><time>2026-08-15T16:55:14.000Z</time></trkpt>
        <trkpt lat="29.5772048" lon="103.3909547"><ele>741.01</ele><time>2026-08-15T16:55:24.000Z</time></trkpt>
        <trkpt lat="29.5772968" lon="103.3909437"><ele>743.59</ele><time>2026-08-15T16:55:34.000Z</time></trkpt>
        <trkpt lat="29.5773925" lon="103.3909648"><ele>744.7</ele><time>2026-08-15T16:55:46.000Z</time></trkpt>
        <trkpt lat="29.5774845" lon="103.3910026"><ele>746.23</ele><time>2026-08-15T16:55:56.000Z</time></trkpt>
        <trkpt lat="29.5775785" lon="103.3910375"><ele>746.59</ele><time>2026-08-15T16:56:08.000Z</time></trkpt>
        <trkpt lat="29.5776716" lon="103.3910707"><ele>748.14</ele><time>2026-08-15T16:56:20.000Z</time></trkpt>
        <trkpt lat="29.5777639" lon="103.3910956"><ele>750.18</ele><time>2026-08-15T16:56:36.000Z</time></trkpt>
        <trkpt lat="29.5778534" lon="103.3911222"><ele>751.27</ele><time>2026-08-15T16:56:54.000Z</time></trkpt>
        <trkpt lat="29.5779371" lon="103.3910916"><ele>753.23</ele><time>2026-08-15T16:57:10.000Z</time></trkpt>
        <trkpt lat="29.5779924" lon="103.3910011"><ele>753.38</ele><time>2026-08-15T16:57:18.000Z</time></trkpt>
        <trkpt lat="29.5780262" lon="103.39089"><ele>753.94</ele><time>2026-08-15T16:57:26.000Z</time></trkpt>
        <trkpt lat="29.5780694" lon="103.3907749"><ele>755.05</ele><time>2026-08-15T16:57:34.000Z</time></trkpt>
        <trkpt lat="29.5781253" lon="103.390664"><ele>756.86</ele><time>2026-08-15T16:57:44.000Z</time></trkpt>
        <trkpt lat="29.5781671" lon="103.3905489"><ele>756.38</ele><time>2026-08-15T16:57:52.000Z</time></trkpt>
        <trkpt lat="29.5782109" lon="103.3904488"><ele>757.31</ele><time>2026-08-15T16:58:02.000Z</time></trkpt>
        <trkpt lat="29.5782757" lon="103.3903578"><ele>758.84</ele><time>2026-08-15T16:58:14.000Z</time></trkpt>
        <trkpt lat="29.5783386" lon="103.3902643"><ele>761.28</ele><time>2026-08-15T16:58:26.000Z</time></trkpt>
        <trkpt lat="29.5783912" lon="103.3901628"><ele>763.39</ele><time>2026-08-15T16:58:36.000Z</time></trkpt>
        <trkpt lat="29.5784336" lon="103.390053"><ele>765.59</ele><time>2026-08-15T16:58:48.000Z</time></trkpt>
        <trkpt lat="29.5784712" lon="103.3899477"><ele>768.24</ele><time>2026-08-15T16:59:00.000Z</time></trkpt>
        <trkpt lat="29.5784994" lon="103.3898383"><ele>769.66</ele><time>2026-08-15T16:59:10.000Z</time></trkpt>
        <trkpt lat="29.5785192" lon="103.3897373"><ele>771.67</ele><time>2026-08-15T16:59:23.000Z</time></trkpt>
        <trkpt lat="29.5785177" lon="103.3896243"><ele>772.82</ele><time>2026-08-15T16:59:46.000Z</time></trkpt>
        <trkpt lat="29.5785066" lon="103.3894973"><ele>772.99</ele><time>2026-08-15T16:59:57.000Z</time></trkpt>
        <trkpt lat="29.5784834" lon="103.3893787"><ele>772.16</ele><time>2026-08-15T17:00:06.000Z</time></trkpt>
        <trkpt lat="29.5784211" lon="103.3892965"><ele>771.37</ele><time>2026-08-15T17:00:14.000Z</time></trkpt>
        <trkpt lat="29.5783666" lon="103.3892001"><ele>770.4</ele><time>2026-08-15T17:00:26.000Z</time></trkpt>
        <trkpt lat="29.5783677" lon="103.3890936"><ele>770.63</ele><time>2026-08-15T17:00:42.000Z</time></trkpt>
        <trkpt lat="29.5784044" lon="103.3889908"><ele>770.63</ele><time>2026-08-15T17:00:56.000Z</time></trkpt>
        <trkpt lat="29.5784398" lon="103.3888795"><ele>770.72</ele><time>2026-08-15T17:01:18.000Z</time></trkpt>
        <trkpt lat="29.5785315" lon="103.3888239"><ele>770.52</ele><time>2026-08-15T17:01:28.000Z</time></trkpt>
        <trkpt lat="29.5786342" lon="103.3888165"><ele>771.21</ele><time>2026-08-15T17:01:37.000Z</time></trkpt>
        <trkpt lat="29.5787477" lon="103.3888116"><ele>770.52</ele><time>2026-08-15T17:01:54.000Z</time></trkpt>
        <trkpt lat="29.5788572" lon="103.388779"><ele>769.62</ele><time>2026-08-15T17:02:02.000Z</time></trkpt>
        <trkpt lat="29.5789008" lon="103.3887021"><ele>769.63</ele><time>2026-08-15T17:02:10.000Z</time></trkpt>
        <trkpt lat="29.5789759" lon="103.3886365"><ele>770.65</ele><time>2026-08-15T17:02:31.000Z</time></trkpt>
        <trkpt lat="29.579006" lon="103.3885245"><ele>772.53</ele><time>2026-08-15T17:02:43.000Z</time></trkpt>
        <trkpt lat="29.5789936" lon="103.3884079"><ele>773.09</ele><time>2026-08-15T17:02:51.000Z</time></trkpt>
        <trkpt lat="29.5789739" lon="103.388293"><ele>773.74</ele><time>2026-08-15T17:03:03.000Z</time></trkpt>
        <trkpt lat="29.5789888" lon="103.3881803"><ele>775.94</ele><time>2026-08-15T17:03:21.000Z</time></trkpt>
        <trkpt lat="29.5789771" lon="103.3880561"><ele>779.93</ele><time>2026-08-15T17:03:37.000Z</time></trkpt>
        <trkpt lat="29.5789666" lon="103.3879354"><ele>782.91</ele><time>2026-08-15T17:03:47.000Z</time></trkpt>
        <trkpt lat="29.5789586" lon="103.3878255"><ele>783.18</ele><time>2026-08-15T17:04:03.000Z</time></trkpt>
        <trkpt lat="29.5789408" lon="103.3877184"><ele>785.13</ele><time>2026-08-15T17:04:15.000Z</time></trkpt>
        <trkpt lat="29.5789314" lon="103.3876021"><ele>786.48</ele><time>2026-08-15T17:04:25.000Z</time></trkpt>
        <trkpt lat="29.5789231" lon="103.3874778"><ele>786.84</ele><time>2026-08-15T17:04:35.000Z</time></trkpt>
        <trkpt lat="29.5789391" lon="103.3873534"><ele>787.19</ele><time>2026-08-15T17:04:45.000Z</time></trkpt>
        <trkpt lat="29.5789602" lon="103.3872378"><ele>788.19</ele><time>2026-08-15T17:04:55.000Z</time></trkpt>
        <trkpt lat="29.5790001" lon="103.3871351"><ele>786.64</ele><time>2026-08-15T17:05:05.000Z</time></trkpt>
        <trkpt lat="29.5790608" lon="103.3870558"><ele>787.34</ele><time>2026-08-15T17:05:17.000Z</time></trkpt>
        <trkpt lat="29.5791175" lon="103.3869711"><ele>787.99</ele><time>2026-08-15T17:05:35.000Z</time></trkpt>
        <trkpt lat="29.5791622" lon="103.3868811"><ele>790.11</ele><time>2026-08-15T17:05:53.000Z</time></trkpt>
        <trkpt lat="29.5792069" lon="103.3867876"><ele>793.17</ele><time>2026-08-15T17:06:17.000Z</time></trkpt>
        <trkpt lat="29.579266" lon="103.3867074"><ele>798.48</ele><time>2026-08-15T17:06:43.000Z</time></trkpt>
        <trkpt lat="29.5793129" lon="103.3866187"><ele>805.36</ele><time>2026-08-15T17:07:09.000Z</time></trkpt>
        <trkpt lat="29.5793411" lon="103.3865116"><ele>809.03</ele><time>2026-08-15T17:07:27.000Z</time></trkpt>
        <trkpt lat="29.5793568" lon="103.386401"><ele>813.96</ele><time>2026-08-15T17:07:51.000Z</time></trkpt>
        <trkpt lat="29.5793642" lon="103.386292"><ele>818.6</ele><time>2026-08-15T17:08:13.000Z</time></trkpt>
        <trkpt lat="29.5793739" lon="103.3861824"><ele>822.43</ele><time>2026-08-15T17:08:29.000Z</time></trkpt>
        <trkpt lat="29.5793983" lon="103.3860766"><ele>823.8</ele><time>2026-08-15T17:08:53.000Z</time></trkpt>
        <trkpt lat="29.5794101" lon="103.3859662"><ele>827.7</ele><time>2026-08-15T17:09:05.000Z</time></trkpt>
        <trkpt lat="29.5794508" lon="103.3858677"><ele>831.42</ele><time>2026-08-15T17:09:17.000Z</time></trkpt>
        <trkpt lat="29.5795126" lon="103.3857891"><ele>833.28</ele><time>2026-08-15T17:09:45.000Z</time></trkpt>
        <trkpt lat="29.579569" lon="103.3857056"><ele>833.23</ele><time>2026-08-15T17:10:03.000Z</time></trkpt>
        <trkpt lat="29.5796198" lon="103.3856153"><ele>834.92</ele><time>2026-08-15T17:10:21.000Z</time></trkpt>
        <trkpt lat="29.5796605" lon="103.3855159"><ele>838.42</ele><time>2026-08-15T17:10:43.000Z</time></trkpt>
        <trkpt lat="29.5797218" lon="103.3854401"><ele>841.81</ele><time>2026-08-15T17:11:03.000Z</time></trkpt>
        <trkpt lat="29.5798052" lon="103.3853949"><ele>846.25</ele><time>2026-08-15T17:11:25.000Z</time></trkpt>
        <trkpt lat="29.5798768" lon="103.3853317"><ele>849.66</ele><time>2026-08-15T17:11:39.000Z</time></trkpt>
        <trkpt lat="29.5799621" lon="103.3853002"><ele>853.77</ele><time>2026-08-15T17:11:59.000Z</time></trkpt>
        <trkpt lat="29.5800359" lon="103.3852279"><ele>857.22</ele><time>2026-08-15T17:12:17.000Z</time></trkpt>
        <trkpt lat="29.5800988" lon="103.3851429"><ele>860.81</ele><time>2026-08-15T17:12:29.000Z</time></trkpt>
        <trkpt lat="29.5801722" lon="103.3850792"><ele>863.69</ele><time>2026-08-15T17:12:39.000Z</time></trkpt>
        <trkpt lat="29.5802522" lon="103.3850025"><ele>863.04</ele><time>2026-08-15T17:12:49.000Z</time></trkpt>
        <trkpt lat="29.5803225" lon="103.3849162"><ele>862.44</ele><time>2026-08-15T17:13:01.000Z</time></trkpt>
        <trkpt lat="29.5803799" lon="103.3848283"><ele>863.92</ele><time>2026-08-15T17:13:13.000Z</time></trkpt>
        <trkpt lat="29.5804453" lon="103.3847416"><ele>865.41</ele><time>2026-08-15T17:13:29.000Z</time></trkpt>
        <trkpt lat="29.5804957" lon="103.3846463"><ele>865.77</ele><time>2026-08-15T17:13:45.000Z</time></trkpt>
        <trkpt lat="29.5805484" lon="103.3845537"><ele>867.82</ele><time>2026-08-15T17:13:59.000Z</time></trkpt>
        <trkpt lat="29.580605" lon="103.384464"><ele>869.7</ele><time>2026-08-15T17:14:19.000Z</time></trkpt>
        <trkpt lat="29.5806741" lon="103.3843844"><ele>875.02</ele><time>2026-08-15T17:14:41.000Z</time></trkpt>
        <trkpt lat="29.5807393" lon="103.3843006"><ele>879.08</ele><time>2026-08-15T17:15:05.000Z</time></trkpt>
        <trkpt lat="29.5808113" lon="103.3842298"><ele>883</ele><time>2026-08-15T17:15:25.000Z</time></trkpt>
        <trkpt lat="29.5808966" lon="103.384176"><ele>884.84</ele><time>2026-08-15T17:15:43.000Z</time></trkpt>
        <trkpt lat="29.5809931" lon="103.3841655"><ele>887.76</ele><time>2026-08-15T17:16:03.000Z</time></trkpt>
        <trkpt lat="29.5810847" lon="103.3841966"><ele>889.14</ele><time>2026-08-15T17:16:27.000Z</time></trkpt>
        <trkpt lat="29.581167" lon="103.3842563"><ele>893.94</ele><time>2026-08-15T17:16:49.000Z</time></trkpt>
        <trkpt lat="29.5812549" lon="103.3843031"><ele>899.11</ele><time>2026-08-15T17:17:13.000Z</time></trkpt>
        <trkpt lat="29.5813459" lon="103.384329"><ele>904.53</ele><time>2026-08-15T17:17:49.000Z</time></trkpt>
        <trkpt lat="29.5814324" lon="103.3843764"><ele>911.54</ele><time>2026-08-15T17:18:09.000Z</time></trkpt>
        <trkpt lat="29.5815218" lon="103.3843894"><ele>914.29</ele><time>2026-08-15T17:18:23.000Z</time></trkpt>
        <trkpt lat="29.5816123" lon="103.3843629"><ele>919.85</ele><time>2026-08-15T17:18:59.000Z</time></trkpt>
        <trkpt lat="29.5816362" lon="103.3842655"><ele>922.07</ele><time>2026-08-15T17:19:17.000Z</time></trkpt>
        <trkpt lat="29.5816692" lon="103.3843008"><ele>923.38</ele><time>2026-08-15T17:19:41.000Z</time></trkpt>
        <trkpt lat="29.5816592" lon="103.3842353"><ele>924.17</ele><time>2026-08-15T17:20:15.000Z</time></trkpt>
        <trkpt lat="29.581697" lon="103.3841291"><ele>924.01</ele><time>2026-08-15T17:20:25.000Z</time></trkpt>
        <trkpt lat="29.5817834" lon="103.3840862"><ele>923.87</ele><time>2026-08-15T17:20:35.000Z</time></trkpt>
        <trkpt lat="29.5818425" lon="103.3841524"><ele>923.29</ele><time>2026-08-15T17:20:51.000Z</time></trkpt>
        <trkpt lat="29.581896" lon="103.384248"><ele>923.58</ele><time>2026-08-15T17:21:01.000Z</time></trkpt>
        <trkpt lat="29.5819379" lon="103.3842715"><ele>923.3</ele><time>2026-08-15T17:21:07.000Z</time></trkpt>
        <trkpt lat="29.581975" lon="103.3844072"><ele>923.02</ele><time>2026-08-15T17:21:27.000Z</time></trkpt>
        <trkpt lat="29.5819875" lon="103.3844437"><ele>924.13</ele><time>2026-08-15T17:21:29.000Z</time></trkpt>
        <trkpt lat="29.5819449" lon="103.3843821"><ele>924.57</ele><time>2026-08-15T17:22:29.000Z</time></trkpt>
        <trkpt lat="29.5818485" lon="103.3843313"><ele>922.6</ele><time>2026-08-15T17:22:45.000Z</time></trkpt>
        <trkpt lat="29.5817798" lon="103.3842267"><ele>919.56</ele><time>2026-08-15T17:22:53.000Z</time></trkpt>
        <trkpt lat="29.5817533" lon="103.384107"><ele>918.37</ele><time>2026-08-15T17:23:05.000Z</time></trkpt>
        <trkpt lat="29.5817002" lon="103.3841262"><ele>918.48</ele><time>2026-08-15T17:23:15.000Z</time></trkpt>
        <trkpt lat="29.5816541" lon="103.384233"><ele>918.29</ele><time>2026-08-15T17:23:25.000Z</time></trkpt>
        <trkpt lat="29.5816594" lon="103.384255"><ele>918.78</ele><time>2026-08-15T17:23:29.000Z</time></trkpt>
        <trkpt lat="29.5816494" lon="103.3843717"><ele>919.19</ele><time>2026-08-15T17:25:05.000Z</time></trkpt>
        <trkpt lat="29.5816843" lon="103.384309"><ele>922.62</ele><time>2026-08-15T17:25:11.000Z</time></trkpt>
        <trkpt lat="29.5815947" lon="103.3843244"><ele>923.17</ele><time>2026-08-15T17:32:53.000Z</time></trkpt>
        <trkpt lat="29.5816589" lon="103.38425"><ele>923.29</ele><time>2026-08-15T17:33:03.000Z</time></trkpt>
        <trkpt lat="29.5816253" lon="103.3843143"><ele>923.64</ele><time>2026-08-15T17:33:33.000Z</time></trkpt>
        <trkpt lat="29.5815748" lon="103.384261"><ele>924.1</ele><time>2026-08-15T17:34:01.000Z</time></trkpt>
        <trkpt lat="29.5815442" lon="103.3841633"><ele>925.62</ele><time>2026-08-15T17:34:15.000Z</time></trkpt>
        <trkpt lat="29.581487" lon="103.3840622"><ele>927.27</ele><time>2026-08-15T17:34:39.000Z</time></trkpt>
        <trkpt lat="29.581464" lon="103.3839512"><ele>930.33</ele><time>2026-08-15T17:34:53.000Z</time></trkpt>
        <trkpt lat="29.5814389" lon="103.3838394"><ele>931.84</ele><time>2026-08-15T17:35:13.000Z</time></trkpt>
        <trkpt lat="29.5813973" lon="103.3837409"><ele>932.78</ele><time>2026-08-15T17:35:23.000Z</time></trkpt>
        <trkpt lat="29.5813587" lon="103.3836406"><ele>935.39</ele><time>2026-08-15T17:35:41.000Z</time></trkpt>
        <trkpt lat="29.5813374" lon="103.3835328"><ele>937.99</ele><time>2026-08-15T17:36:05.000Z</time></trkpt>
        <trkpt lat="29.581312" lon="103.3834251"><ele>941.47</ele><time>2026-08-15T17:36:29.000Z</time></trkpt>
        <trkpt lat="29.5813186" lon="103.3833148"><ele>944.69</ele><time>2026-08-15T17:37:01.000Z</time></trkpt>
        <trkpt lat="29.5813098" lon="103.3832025"><ele>947.59</ele><time>2026-08-15T17:37:17.000Z</time></trkpt>
        <trkpt lat="29.5813001" lon="103.3830938"><ele>950.13</ele><time>2026-08-15T17:37:41.000Z</time></trkpt>
        <trkpt lat="29.5812699" lon="103.3829934"><ele>952.88</ele><time>2026-08-15T17:38:19.000Z</time></trkpt>
        <trkpt lat="29.5812872" lon="103.3828944"><ele>957.39</ele><time>2026-08-15T17:39:33.000Z</time></trkpt>
        <trkpt lat="29.5812431" lon="103.382801"><ele>960.71</ele><time>2026-08-15T17:41:29.000Z</time></trkpt>
        <trkpt lat="29.581324" lon="103.3827244"><ele>961.84</ele><time>2026-08-15T17:42:47.000Z</time></trkpt>
        <trkpt lat="29.5812991" lon="103.3826418"><ele>962.99</ele><time>2026-08-15T17:42:57.000Z</time></trkpt>
        <trkpt lat="29.5813296" lon="103.3825356"><ele>964.79</ele><time>2026-08-15T17:43:17.000Z</time></trkpt>
        <trkpt lat="29.5813478" lon="103.3824263"><ele>966.99</ele><time>2026-08-15T17:43:31.000Z</time></trkpt>
        <trkpt lat="29.5813963" lon="103.3823252"><ele>968.52</ele><time>2026-08-15T17:43:43.000Z</time></trkpt>
        <trkpt lat="29.5814452" lon="103.3822138"><ele>968.13</ele><time>2026-08-15T17:43:53.000Z</time></trkpt>
        <trkpt lat="29.5814774" lon="103.3821247"><ele>967.2</ele><time>2026-08-15T17:44:05.000Z</time></trkpt>
        <trkpt lat="29.5815227" lon="103.3820269"><ele>968.03</ele><time>2026-08-15T17:45:23.000Z</time></trkpt>
        <trkpt lat="29.5815515" lon="103.3819232"><ele>969.97</ele><time>2026-08-15T17:45:37.000Z</time></trkpt>
        <trkpt lat="29.5816032" lon="103.3818317"><ele>971.45</ele><time>2026-08-15T17:45:47.000Z</time></trkpt>
        <trkpt lat="29.5816619" lon="103.3817718"><ele>972.22</ele><time>2026-08-15T17:45:57.000Z</time></trkpt>
        <trkpt lat="29.5817308" lon="103.3816922"><ele>972.51</ele><time>2026-08-15T17:46:49.000Z</time></trkpt>
        <trkpt lat="29.5818002" lon="103.3816225"><ele>973.41</ele><time>2026-08-15T17:46:59.000Z</time></trkpt>
        <trkpt lat="29.5818926" lon="103.3816167"><ele>974.16</ele><time>2026-08-15T17:47:53.000Z</time></trkpt>
        <trkpt lat="29.5819971" lon="103.3816323"><ele>973.7</ele><time>2026-08-15T17:48:05.000Z</time></trkpt>
        <trkpt lat="29.5819923" lon="103.3816465"><ele>973.9</ele><time>2026-08-15T17:48:13.000Z</time></trkpt>
        <trkpt lat="29.5819081" lon="103.3816634"><ele>973.11</ele><time>2026-08-15T17:48:37.000Z</time></trkpt>
        <trkpt lat="29.581802" lon="103.3816965"><ele>972.97</ele><time>2026-08-15T17:48:45.000Z</time></trkpt>
        <trkpt lat="29.581704" lon="103.3817526"><ele>972.7</ele><time>2026-08-15T17:48:53.000Z</time></trkpt>
        <trkpt lat="29.5816243" lon="103.381846"><ele>972.6</ele><time>2026-08-15T17:49:01.000Z</time></trkpt>
        <trkpt lat="29.5815514" lon="103.3819398"><ele>972.79</ele><time>2026-08-15T17:49:09.000Z</time></trkpt>
        <trkpt lat="29.581501" lon="103.3820377"><ele>973.27</ele><time>2026-08-15T17:49:17.000Z</time></trkpt>
        <trkpt lat="29.581463" lon="103.382156"><ele>973.88</ele><time>2026-08-15T17:49:27.000Z</time></trkpt>
        <trkpt lat="29.5814057" lon="103.3822558"><ele>973.98</ele><time>2026-08-15T17:49:37.000Z</time></trkpt>
        <trkpt lat="29.5813296" lon="103.3823201"><ele>973.47</ele><time>2026-08-15T17:49:49.000Z</time></trkpt>
        <trkpt lat="29.5812384" lon="103.3823535"><ele>971.86</ele><time>2026-08-15T17:50:01.000Z</time></trkpt>
        <trkpt lat="29.581225" lon="103.3824408"><ele>973.41</ele><time>2026-08-15T17:50:11.000Z</time></trkpt>
        <trkpt lat="29.5812964" lon="103.3825133"><ele>972.93</ele><time>2026-08-15T17:50:21.000Z</time></trkpt>
        <trkpt lat="29.5812983" lon="103.3826189"><ele>972.64</ele><time>2026-08-15T17:50:33.000Z</time></trkpt>
        <trkpt lat="29.5812942" lon="103.3827418"><ele>972.32</ele><time>2026-08-15T17:50:43.000Z</time></trkpt>
        <trkpt lat="29.5813123" lon="103.3828599"><ele>970.9</ele><time>2026-08-15T17:50:51.000Z</time></trkpt>
        <trkpt lat="29.5813336" lon="103.3829726"><ele>969.97</ele><time>2026-08-15T17:51:07.000Z</time></trkpt>
        <trkpt lat="29.5813389" lon="103.3830972"><ele>969.53</ele><time>2026-08-15T17:51:17.000Z</time></trkpt>
        <trkpt lat="29.5813481" lon="103.3832116"><ele>969.47</ele><time>2026-08-15T17:51:25.000Z</time></trkpt>
        <trkpt lat="29.5813599" lon="103.3833282"><ele>970.4</ele><time>2026-08-15T17:51:37.000Z</time></trkpt>
        <trkpt lat="29.5813689" lon="103.3833486"><ele>969.54</ele><time>2026-08-15T17:51:39.000Z</time></trkpt>
        <trkpt lat="29.5814107" lon="103.3834097"><ele>968.47</ele><time>2026-08-15T17:52:13.000Z</time></trkpt>
        <trkpt lat="29.5815044" lon="103.3834102"><ele>965.5</ele><time>2026-08-15T17:52:25.000Z</time></trkpt>
        <trkpt lat="29.5815675" lon="103.3833293"><ele>961.71</ele><time>2026-08-15T17:52:31.000Z</time></trkpt>
        <trkpt lat="29.5816279" lon="103.3832263"><ele>958.83</ele><time>2026-08-15T17:52:39.000Z</time></trkpt>
        <trkpt lat="29.5817007" lon="103.3831352"><ele>956.2</ele><time>2026-08-15T17:52:49.000Z</time></trkpt>
        <trkpt lat="29.5817476" lon="103.3830363"><ele>953.43</ele><time>2026-08-15T17:52:57.000Z</time></trkpt>
        <trkpt lat="29.581777" lon="103.3829225"><ele>951.43</ele><time>2026-08-15T17:53:07.000Z</time></trkpt>
        <trkpt lat="29.5818524" lon="103.3828856"><ele>950.36</ele><time>2026-08-15T17:53:23.000Z</time></trkpt>
        <trkpt lat="29.5818934" lon="103.382801"><ele>951.51</ele><time>2026-08-15T17:54:03.000Z</time></trkpt>
        <trkpt lat="29.5819217" lon="103.3826973"><ele>950.5</ele><time>2026-08-15T17:54:23.000Z</time></trkpt>
        <trkpt lat="29.581954" lon="103.3825956"><ele>949.64</ele><time>2026-08-15T17:54:31.000Z</time></trkpt>
        <trkpt lat="29.5819761" lon="103.3825119"><ele>949.53</ele><time>2026-08-15T17:54:39.000Z</time></trkpt>
        <trkpt lat="29.5820006" lon="103.3824164"><ele>948.74</ele><time>2026-08-15T17:54:49.000Z</time></trkpt>
        <trkpt lat="29.5820253" lon="103.3823045"><ele>948.49</ele><time>2026-08-15T17:54:59.000Z</time></trkpt>
        <trkpt lat="29.5820697" lon="103.382194"><ele>948.25</ele><time>2026-08-15T17:55:11.000Z</time></trkpt>
        <trkpt lat="29.5821243" lon="103.3820981"><ele>949.44</ele><time>2026-08-15T17:55:21.000Z</time></trkpt>
        <trkpt lat="29.5821535" lon="103.3819974"><ele>951.22</ele><time>2026-08-15T17:55:35.000Z</time></trkpt>
        <trkpt lat="29.5822174" lon="103.3819226"><ele>950.67</ele><time>2026-08-15T17:55:45.000Z</time></trkpt>
        <trkpt lat="29.5822974" lon="103.3818584"><ele>949.63</ele><time>2026-08-15T17:55:55.000Z</time></trkpt>
        <trkpt lat="29.5823568" lon="103.3817765"><ele>949.79</ele><time>2026-08-15T17:56:07.000Z</time></trkpt>
        <trkpt lat="29.5824022" lon="103.3816822"><ele>949.78</ele><time>2026-08-15T17:56:25.000Z</time></trkpt>
        <trkpt lat="29.5824573" lon="103.3815979"><ele>951.42</ele><time>2026-08-15T17:56:35.000Z</time></trkpt>
        <trkpt lat="29.5825192" lon="103.3815161"><ele>951.52</ele><time>2026-08-15T17:56:43.000Z</time></trkpt>
        <trkpt lat="29.5825787" lon="103.3814283"><ele>952.38</ele><time>2026-08-15T17:56:51.000Z</time></trkpt>
        <trkpt lat="29.5826431" lon="103.381338"><ele>953.01</ele><time>2026-08-15T17:57:01.000Z</time></trkpt>
        <trkpt lat="29.5827009" lon="103.38125"><ele>953.03</ele><time>2026-08-15T17:57:11.000Z</time></trkpt>
        <trkpt lat="29.5827086" lon="103.3811889"><ele>953.6</ele><time>2026-08-15T17:57:17.000Z</time></trkpt>
        <trkpt lat="29.5826623" lon="103.3812414"><ele>953.02</ele><time>2026-08-15T17:57:27.000Z</time></trkpt>
        <trkpt lat="29.5826846" lon="103.3812088"><ele>952.63</ele><time>2026-08-15T17:57:35.000Z</time></trkpt>
        <trkpt lat="29.5827159" lon="103.3811108"><ele>951.29</ele><time>2026-08-15T17:57:43.000Z</time></trkpt>
        <trkpt lat="29.5827134" lon="103.380995"><ele>950.79</ele><time>2026-08-15T17:57:51.000Z</time></trkpt>
        <trkpt lat="29.5827263" lon="103.3808785"><ele>949.97</ele><time>2026-08-15T17:57:59.000Z</time></trkpt>
        <trkpt lat="29.5827521" lon="103.3807701"><ele>949</ele><time>2026-08-15T17:58:07.000Z</time></trkpt>
        <trkpt lat="29.5828009" lon="103.3806522"><ele>948.06</ele><time>2026-08-15T17:58:15.000Z</time></trkpt>
        <trkpt lat="29.5828557" lon="103.38053"><ele>948.8</ele><time>2026-08-15T17:58:23.000Z</time></trkpt>
        <trkpt lat="29.582901" lon="103.3804159"><ele>950.68</ele><time>2026-08-15T17:58:31.000Z</time></trkpt>
        <trkpt lat="29.5829489" lon="103.3803198"><ele>950.68</ele><time>2026-08-15T17:58:37.000Z</time></trkpt>
        <trkpt lat="29.5829964" lon="103.3802149"><ele>951.48</ele><time>2026-08-15T17:58:45.000Z</time></trkpt>
        <trkpt lat="29.5830421" lon="103.3801006"><ele>951.97</ele><time>2026-08-15T17:58:53.000Z</time></trkpt>
        <trkpt lat="29.5830858" lon="103.3800022"><ele>952.46</ele><time>2026-08-15T17:59:01.000Z</time></trkpt>
        <trkpt lat="29.5830805" lon="103.3798856"><ele>952.67</ele><time>2026-08-15T17:59:11.000Z</time></trkpt>
        <trkpt lat="29.583034" lon="103.3797852"><ele>953.26</ele><time>2026-08-15T17:59:21.000Z</time></trkpt>
        <trkpt lat="29.5829796" lon="103.3796843"><ele>955.12</ele><time>2026-08-15T17:59:33.000Z</time></trkpt>
        <trkpt lat="29.5829324" lon="103.379588"><ele>955.24</ele><time>2026-08-15T17:59:45.000Z</time></trkpt>
        <trkpt lat="29.5829572" lon="103.379494"><ele>958.91</ele><time>2026-08-15T18:00:11.000Z</time></trkpt>
        <trkpt lat="29.5828949" lon="103.3794609"><ele>962.9</ele><time>2026-08-15T18:00:43.000Z</time></trkpt>
        <trkpt lat="29.58285" lon="103.3794961"><ele>965.88</ele><time>2026-08-15T18:00:51.000Z</time></trkpt>
        <trkpt lat="29.5827744" lon="103.3795482"><ele>967.34</ele><time>2026-08-15T18:01:07.000Z</time></trkpt>
        <trkpt lat="29.5826833" lon="103.379589"><ele>967.73</ele><time>2026-08-15T18:01:15.000Z</time></trkpt>
        <trkpt lat="29.5826596" lon="103.3795181"><ele>970.18</ele><time>2026-08-15T18:01:25.000Z</time></trkpt>
        <trkpt lat="29.5826761" lon="103.3793976"><ele>970.87</ele><time>2026-08-15T18:01:37.000Z</time></trkpt>
        <trkpt lat="29.582758" lon="103.3793166"><ele>973.75</ele><time>2026-08-15T18:01:51.000Z</time></trkpt>
        <trkpt lat="29.5828501" lon="103.3792538"><ele>977.02</ele><time>2026-08-15T18:02:09.000Z</time></trkpt>
        <trkpt lat="29.5829307" lon="103.3791861"><ele>976.34</ele><time>2026-08-15T18:02:25.000Z</time></trkpt>
        <trkpt lat="29.5829817" lon="103.379094"><ele>976.26</ele><time>2026-08-15T18:02:37.000Z</time></trkpt>
        <trkpt lat="29.5830176" lon="103.37898"><ele>977.38</ele><time>2026-08-15T18:02:49.000Z</time></trkpt>
        <trkpt lat="29.5830123" lon="103.3788624"><ele>979.33</ele><time>2026-08-15T18:03:09.000Z</time></trkpt>
        <trkpt lat="29.5829831" lon="103.3787561"><ele>981.31</ele><time>2026-08-15T18:03:37.000Z</time></trkpt>
        <trkpt lat="29.5829181" lon="103.3786741"><ele>984.88</ele><time>2026-08-15T18:04:01.000Z</time></trkpt>
        <trkpt lat="29.58283" lon="103.3786162"><ele>986.49</ele><time>2026-08-15T18:04:23.000Z</time></trkpt>
        <trkpt lat="29.5827919" lon="103.3785264"><ele>990.81</ele><time>2026-08-15T18:04:55.000Z</time></trkpt>
        <trkpt lat="29.5827112" lon="103.378474"><ele>996.78</ele><time>2026-08-15T18:05:05.000Z</time></trkpt>
        <trkpt lat="29.5826246" lon="103.378413"><ele>1002.03</ele><time>2026-08-15T18:05:17.000Z</time></trkpt>
        <trkpt lat="29.5825468" lon="103.3783487"><ele>1005.64</ele><time>2026-08-15T18:05:31.000Z</time></trkpt>
        <trkpt lat="29.5824527" lon="103.378334"><ele>1008.36</ele><time>2026-08-15T18:05:59.000Z</time></trkpt>
        <trkpt lat="29.5824066" lon="103.3782581"><ele>1011.86</ele><time>2026-08-15T18:06:17.000Z</time></trkpt>
        <trkpt lat="29.5824207" lon="103.3781592"><ele>1016.88</ele><time>2026-08-15T18:06:27.000Z</time></trkpt>
        <trkpt lat="29.5823727" lon="103.3780911"><ele>1021.15</ele><time>2026-08-15T18:06:39.000Z</time></trkpt>
        <trkpt lat="29.5823476" lon="103.3779915"><ele>1026.14</ele><time>2026-08-15T18:07:05.000Z</time></trkpt>
        <trkpt lat="29.5823358" lon="103.3778746"><ele>1028.67</ele><time>2026-08-15T18:07:17.000Z</time></trkpt>
        <trkpt lat="29.5823481" lon="103.3777595"><ele>1030.61</ele><time>2026-08-15T18:07:53.000Z</time></trkpt>
        <trkpt lat="29.5823315" lon="103.3776509"><ele>1030.43</ele><time>2026-08-15T18:08:09.000Z</time></trkpt>
        <trkpt lat="29.5823609" lon="103.3775561"><ele>1030.18</ele><time>2026-08-15T18:08:27.000Z</time></trkpt>
        <trkpt lat="29.5823831" lon="103.3774535"><ele>1031.65</ele><time>2026-08-15T18:08:49.000Z</time></trkpt>
        <trkpt lat="29.5823451" lon="103.3773681"><ele>1036.2</ele><time>2026-08-15T18:09:23.000Z</time></trkpt>
        <trkpt lat="29.5822765" lon="103.3772809"><ele>1040.21</ele><time>2026-08-15T18:09:47.000Z</time></trkpt>
        <trkpt lat="29.5822173" lon="103.3771807"><ele>1043.21</ele><time>2026-08-15T18:10:11.000Z</time></trkpt>
        <trkpt lat="29.5821329" lon="103.3771678"><ele>1048.85</ele><time>2026-08-15T18:10:47.000Z</time></trkpt>
        <trkpt lat="29.5820603" lon="103.3771063"><ele>1055.23</ele><time>2026-08-15T18:11:11.000Z</time></trkpt>
        <trkpt lat="29.5820292" lon="103.3770111"><ele>1058.58</ele><time>2026-08-15T18:11:31.000Z</time></trkpt>
        <trkpt lat="29.5820588" lon="103.3769151"><ele>1062.72</ele><time>2026-08-15T18:11:49.000Z</time></trkpt>
        <trkpt lat="29.58207" lon="103.3768072"><ele>1066.33</ele><time>2026-08-15T18:12:11.000Z</time></trkpt>
        <trkpt lat="29.5820253" lon="103.3767238"><ele>1070.05</ele><time>2026-08-15T18:12:57.000Z</time></trkpt>
        <trkpt lat="29.5819949" lon="103.3766263"><ele>1075.04</ele><time>2026-08-15T18:13:17.000Z</time></trkpt>
        <trkpt lat="29.5819642" lon="103.3765223"><ele>1081.2</ele><time>2026-08-15T18:13:49.000Z</time></trkpt>
        <trkpt lat="29.5818898" lon="103.376515"><ele>1085.89</ele><time>2026-08-15T18:14:09.000Z</time></trkpt>
        <trkpt lat="29.5817975" lon="103.3765402"><ele>1092.37</ele><time>2026-08-15T18:14:35.000Z</time></trkpt>
        <trkpt lat="29.5817068" lon="103.3765048"><ele>1098.09</ele><time>2026-08-15T18:15:07.000Z</time></trkpt>
        <trkpt lat="29.5816777" lon="103.3764105"><ele>1101.61</ele><time>2026-08-15T18:15:31.000Z</time></trkpt>
        <trkpt lat="29.5817164" lon="103.3763132"><ele>1103.75</ele><time>2026-08-15T18:15:49.000Z</time></trkpt>
        <trkpt lat="29.5817659" lon="103.3762082"><ele>1106.62</ele><time>2026-08-15T18:16:09.000Z</time></trkpt>
        <trkpt lat="29.5817309" lon="103.3762333"><ele>1111.25</ele><time>2026-08-15T18:16:29.000Z</time></trkpt>
        <trkpt lat="29.5816544" lon="103.3762926"><ele>1115.74</ele><time>2026-08-15T18:16:47.000Z</time></trkpt>
        <trkpt lat="29.5815592" lon="103.3763363"><ele>1120.35</ele><time>2026-08-15T18:17:17.000Z</time></trkpt>
        <trkpt lat="29.5814583" lon="103.3763618"><ele>1125.5</ele><time>2026-08-15T18:17:41.000Z</time></trkpt>
        <trkpt lat="29.5813534" lon="103.3763729"><ele>1129.32</ele><time>2026-08-15T18:18:13.000Z</time></trkpt>
        <trkpt lat="29.5812646" lon="103.376424"><ele>1135.41</ele><time>2026-08-15T18:18:45.000Z</time></trkpt>
        <trkpt lat="29.5811864" lon="103.3764925"><ele>1142.01</ele><time>2026-08-15T18:19:11.000Z</time></trkpt>
        <trkpt lat="29.5811096" lon="103.3764625"><ele>1147.41</ele><time>2026-08-15T18:19:31.000Z</time></trkpt>
        <trkpt lat="29.5811024" lon="103.3765276"><ele>1151.63</ele><time>2026-08-15T18:19:49.000Z</time></trkpt>
        <trkpt lat="29.5810685" lon="103.3764829"><ele>1157.63</ele><time>2026-08-15T18:20:05.000Z</time></trkpt>
        <trkpt lat="29.5809889" lon="103.3764601"><ele>1161.08</ele><time>2026-08-15T18:20:33.000Z</time></trkpt>
        <trkpt lat="29.5809085" lon="103.3764049"><ele>1166.95</ele><time>2026-08-15T18:20:51.000Z</time></trkpt>
        <trkpt lat="29.580932" lon="103.3763247"><ele>1171.12</ele><time>2026-08-15T18:21:19.000Z</time></trkpt>
        <trkpt lat="29.5809651" lon="103.3762093"><ele>1177.42</ele><time>2026-08-15T18:21:47.000Z</time></trkpt>
        <trkpt lat="29.5809735" lon="103.3761567"><ele>1182.27</ele><time>2026-08-15T18:21:57.000Z</time></trkpt>
        <trkpt lat="29.5809291" lon="103.3762136"><ele>1186.34</ele><time>2026-08-15T18:22:09.000Z</time></trkpt>
        <trkpt lat="29.5808404" lon="103.3762289"><ele>1190.7</ele><time>2026-08-15T18:22:23.000Z</time></trkpt>
        <trkpt lat="29.5807368" lon="103.3762401"><ele>1193.01</ele><time>2026-08-15T18:22:43.000Z</time></trkpt>
        <trkpt lat="29.5806398" lon="103.3762862"><ele>1194.13</ele><time>2026-08-15T18:22:57.000Z</time></trkpt>
        <trkpt lat="29.5805348" lon="103.3763275"><ele>1196.48</ele><time>2026-08-15T18:23:07.000Z</time></trkpt>
        <trkpt lat="29.5804443" lon="103.3763757"><ele>1197.4</ele><time>2026-08-15T18:23:15.000Z</time></trkpt>
        <trkpt lat="29.5803522" lon="103.3763735"><ele>1199.68</ele><time>2026-08-15T18:23:25.000Z</time></trkpt>
        <trkpt lat="29.580263" lon="103.3763377"><ele>1199.98</ele><time>2026-08-15T18:23:35.000Z</time></trkpt>
        <trkpt lat="29.5801703" lon="103.3762885"><ele>1199.47</ele><time>2026-08-15T18:23:45.000Z</time></trkpt>
        <trkpt lat="29.5801349" lon="103.3762675"><ele>1198.08</ele><time>2026-08-15T18:23:49.000Z</time></trkpt>
        <trkpt lat="29.5800603" lon="103.3762653"><ele>1197.51</ele><time>2026-08-15T18:26:11.000Z</time></trkpt>
        <trkpt lat="29.5800034" lon="103.3761824"><ele>1196.96</ele><time>2026-08-15T18:26:25.000Z</time></trkpt>
        <trkpt lat="29.5799533" lon="103.3760896"><ele>1198.49</ele><time>2026-08-15T18:27:09.000Z</time></trkpt>
        <trkpt lat="29.5799125" lon="103.3759898"><ele>1197.93</ele><time>2026-08-15T18:27:17.000Z</time></trkpt>
        <trkpt lat="29.5799155" lon="103.3758981"><ele>1198.11</ele><time>2026-08-15T18:27:31.000Z</time></trkpt>
        <trkpt lat="29.5798701" lon="103.3758242"><ele>1197.72</ele><time>2026-08-15T18:28:11.000Z</time></trkpt>
        <trkpt lat="29.5798264" lon="103.375732"><ele>1197.47</ele><time>2026-08-15T18:28:21.000Z</time></trkpt>
        <trkpt lat="29.5798344" lon="103.3756287"><ele>1197.63</ele><time>2026-08-15T18:28:33.000Z</time></trkpt>
        <trkpt lat="29.5799018" lon="103.37555"><ele>1198.65</ele><time>2026-08-15T18:28:55.000Z</time></trkpt>
        <trkpt lat="29.579984" lon="103.3754857"><ele>1200.33</ele><time>2026-08-15T18:29:19.000Z</time></trkpt>
        <trkpt lat="29.5800787" lon="103.375459"><ele>1203.55</ele><time>2026-08-15T18:29:41.000Z</time></trkpt>
        <trkpt lat="29.5801781" lon="103.3754716"><ele>1206.77</ele><time>2026-08-15T18:30:07.000Z</time></trkpt>
        <trkpt lat="29.5802794" lon="103.3754754"><ele>1211.77</ele><time>2026-08-15T18:30:39.000Z</time></trkpt>
        <trkpt lat="29.580377" lon="103.3754854"><ele>1216.8</ele><time>2026-08-15T18:30:59.000Z</time></trkpt>
        <trkpt lat="29.5804586" lon="103.3754448"><ele>1222.46</ele><time>2026-08-15T18:31:17.000Z</time></trkpt>
        <trkpt lat="29.5805474" lon="103.3754031"><ele>1227.91</ele><time>2026-08-15T18:31:43.000Z</time></trkpt>
        <trkpt lat="29.5806475" lon="103.3753876"><ele>1232.72</ele><time>2026-08-15T18:31:59.000Z</time></trkpt>
        <trkpt lat="29.580711" lon="103.3753198"><ele>1236.23</ele><time>2026-08-15T18:32:13.000Z</time></trkpt>
        <trkpt lat="29.5807075" lon="103.3752203"><ele>1238.13</ele><time>2026-08-15T18:32:33.000Z</time></trkpt>
        <trkpt lat="29.5806899" lon="103.3751084"><ele>1240.56</ele><time>2026-08-15T18:32:59.000Z</time></trkpt>
        <trkpt lat="29.5807005" lon="103.3749942"><ele>1245.37</ele><time>2026-08-15T18:33:25.000Z</time></trkpt>
        <trkpt lat="29.5806916" lon="103.3748843"><ele>1250.49</ele><time>2026-08-15T18:33:57.000Z</time></trkpt>
        <trkpt lat="29.5806598" lon="103.3747837"><ele>1257.36</ele><time>2026-08-15T18:34:21.000Z</time></trkpt>
        <trkpt lat="29.580636" lon="103.3746809"><ele>1264.63</ele><time>2026-08-15T18:34:41.000Z</time></trkpt>
        <trkpt lat="29.5806576" lon="103.3745761"><ele>1268.76</ele><time>2026-08-15T18:35:07.000Z</time></trkpt>
        <trkpt lat="29.5806317" lon="103.3744751"><ele>1273.86</ele><time>2026-08-15T18:35:25.000Z</time></trkpt>
        <trkpt lat="29.5806277" lon="103.3743668"><ele>1279.36</ele><time>2026-08-15T18:35:45.000Z</time></trkpt>
        <trkpt lat="29.5806377" lon="103.3742579"><ele>1283.87</ele><time>2026-08-15T18:36:03.000Z</time></trkpt>
        <trkpt lat="29.5806645" lon="103.3741564"><ele>1288</ele><time>2026-08-15T18:36:23.000Z</time></trkpt>
        <trkpt lat="29.580661" lon="103.3740462"><ele>1290</ele><time>2026-08-15T18:36:47.000Z</time></trkpt>
        <trkpt lat="29.5806305" lon="103.3739391"><ele>1294.18</ele><time>2026-08-15T18:37:09.000Z</time></trkpt>
        <trkpt lat="29.5805765" lon="103.3738377"><ele>1296.92</ele><time>2026-08-15T18:37:27.000Z</time></trkpt>
        <trkpt lat="29.5804859" lon="103.3738109"><ele>1299.63</ele><time>2026-08-15T18:37:43.000Z</time></trkpt>
        <trkpt lat="29.580404" lon="103.3737515"><ele>1303.12</ele><time>2026-08-15T18:37:57.000Z</time></trkpt>
        <trkpt lat="29.5803268" lon="103.3736809"><ele>1306.37</ele><time>2026-08-15T18:38:05.000Z</time></trkpt>
        <trkpt lat="29.5802586" lon="103.3736067"><ele>1307.6</ele><time>2026-08-15T18:38:15.000Z</time></trkpt>
        <trkpt lat="29.5801843" lon="103.3735327"><ele>1308.38</ele><time>2026-08-15T18:38:27.000Z</time></trkpt>
        <trkpt lat="29.5801438" lon="103.3734276"><ele>1309.52</ele><time>2026-08-15T18:40:33.000Z</time></trkpt>
        <trkpt lat="29.5801228" lon="103.3734137"><ele>1310.64</ele><time>2026-08-15T18:40:39.000Z</time></trkpt>
        <trkpt lat="29.5800461" lon="103.3733693"><ele>1311.33</ele><time>2026-08-15T18:41:01.000Z</time></trkpt>
        <trkpt lat="29.5799784" lon="103.3732951"><ele>1313.8</ele><time>2026-08-15T18:41:19.000Z</time></trkpt>
        <trkpt lat="29.5799102" lon="103.3732194"><ele>1316.44</ele><time>2026-08-15T18:41:41.000Z</time></trkpt>
        <trkpt lat="29.5798314" lon="103.3731492"><ele>1318.65</ele><time>2026-08-15T18:42:07.000Z</time></trkpt>
        <trkpt lat="29.5798025" lon="103.373103"><ele>1322.44</ele><time>2026-08-15T18:42:19.000Z</time></trkpt>
        <trkpt lat="29.5797693" lon="103.3730209"><ele>1325.46</ele><time>2026-08-15T18:42:45.000Z</time></trkpt>
        <trkpt lat="29.5797137" lon="103.3729413"><ele>1328.2</ele><time>2026-08-15T18:43:09.000Z</time></trkpt>
        <trkpt lat="29.5796542" lon="103.372882"><ele>1331.02</ele><time>2026-08-15T18:43:35.000Z</time></trkpt>
        <trkpt lat="29.5796056" lon="103.3727995"><ele>1335.11</ele><time>2026-08-15T18:43:49.000Z</time></trkpt>
        <trkpt lat="29.5795254" lon="103.3728054"><ele>1338.43</ele><time>2026-08-15T18:44:07.000Z</time></trkpt>
        <trkpt lat="29.5794407" lon="103.3727815"><ele>1343.05</ele><time>2026-08-15T18:44:23.000Z</time></trkpt>
        <trkpt lat="29.5793816" lon="103.3727074"><ele>1347.26</ele><time>2026-08-15T18:44:37.000Z</time></trkpt>
        <trkpt lat="29.5793233" lon="103.3726245"><ele>1349.34</ele><time>2026-08-15T18:44:53.000Z</time></trkpt>
        <trkpt lat="29.579302" lon="103.3725954"><ele>1351.5</ele><time>2026-08-15T18:44:59.000Z</time></trkpt>
        <trkpt lat="29.579241" lon="103.3725495"><ele>1353.14</ele><time>2026-08-15T18:45:13.000Z</time></trkpt>
        <trkpt lat="29.5791678" lon="103.3724849"><ele>1355.34</ele><time>2026-08-15T18:45:29.000Z</time></trkpt>
        <trkpt lat="29.579078" lon="103.3724708"><ele>1358.48</ele><time>2026-08-15T18:45:39.000Z</time></trkpt>
        <trkpt lat="29.5789865" lon="103.3724438"><ele>1361.02</ele><time>2026-08-15T18:45:51.000Z</time></trkpt>
        <trkpt lat="29.5789215" lon="103.3723663"><ele>1363.15</ele><time>2026-08-15T18:46:07.000Z</time></trkpt>
        <trkpt lat="29.57885" lon="103.3722891"><ele>1364.56</ele><time>2026-08-15T18:46:29.000Z</time></trkpt>
        <trkpt lat="29.5787516" lon="103.372236"><ele>1366.65</ele><time>2026-08-15T18:55:11.000Z</time></trkpt>
        <trkpt lat="29.5786748" lon="103.3721677"><ele>1369.82</ele><time>2026-08-15T18:55:21.000Z</time></trkpt>
        <trkpt lat="29.5786546" lon="103.3721459"><ele>1371.41</ele><time>2026-08-15T18:55:24.000Z</time></trkpt>
        <trkpt lat="29.5785828" lon="103.3720842"><ele>1372.54</ele><time>2026-08-15T18:56:38.000Z</time></trkpt>
        <trkpt lat="29.5785116" lon="103.3720144"><ele>1374.41</ele><time>2026-08-15T18:56:52.000Z</time></trkpt>
        <trkpt lat="29.5784434" lon="103.3719303"><ele>1377.02</ele><time>2026-08-15T18:57:08.000Z</time></trkpt>
        <trkpt lat="29.5784041" lon="103.3718186"><ele>1379.1</ele><time>2026-08-15T18:57:28.000Z</time></trkpt>
        <trkpt lat="29.5783521" lon="103.3717268"><ele>1380.78</ele><time>2026-08-15T18:57:40.000Z</time></trkpt>
        <trkpt lat="29.5783025" lon="103.3716242"><ele>1381.47</ele><time>2026-08-15T18:57:52.000Z</time></trkpt>
        <trkpt lat="29.5782302" lon="103.3715558"><ele>1383.4</ele><time>2026-08-15T18:58:10.000Z</time></trkpt>
        <trkpt lat="29.5781508" lon="103.3714944"><ele>1385.75</ele><time>2026-08-15T18:58:44.000Z</time></trkpt>
        <trkpt lat="29.5780797" lon="103.3714226"><ele>1389.87</ele><time>2026-08-15T18:59:10.000Z</time></trkpt>
        <trkpt lat="29.577994" lon="103.3713722"><ele>1394.11</ele><time>2026-08-15T18:59:32.000Z</time></trkpt>
        <trkpt lat="29.5779136" lon="103.3713192"><ele>1398.06</ele><time>2026-08-15T19:00:02.000Z</time></trkpt>
        <trkpt lat="29.577829" lon="103.3712723"><ele>1403.19</ele><time>2026-08-15T19:00:28.000Z</time></trkpt>
        <trkpt lat="29.577753" lon="103.3712106"><ele>1406.04</ele><time>2026-08-15T19:00:56.000Z</time></trkpt>
        <trkpt lat="29.5776773" lon="103.371137"><ele>1410.49</ele><time>2026-08-15T19:01:22.000Z</time></trkpt>
        <trkpt lat="29.5776404" lon="103.371029"><ele>1414.3</ele><time>2026-08-15T19:01:44.000Z</time></trkpt>
        <trkpt lat="29.5776102" lon="103.3709161"><ele>1416.51</ele><time>2026-08-15T19:01:52.000Z</time></trkpt>
        <trkpt lat="29.5775532" lon="103.3708249"><ele>1418.34</ele><time>2026-08-15T19:02:06.000Z</time></trkpt>
        <trkpt lat="29.5775208" lon="103.3707151"><ele>1419.02</ele><time>2026-08-15T19:02:14.000Z</time></trkpt>
        <trkpt lat="29.5774515" lon="103.3706351"><ele>1419.69</ele><time>2026-08-15T19:02:24.000Z</time></trkpt>
        <trkpt lat="29.5773775" lon="103.3705658"><ele>1419.73</ele><time>2026-08-15T19:02:32.000Z</time></trkpt>
        <trkpt lat="29.5773191" lon="103.3704773"><ele>1419.55</ele><time>2026-08-15T19:02:40.000Z</time></trkpt>
        <trkpt lat="29.5772555" lon="103.3703858"><ele>1419.5</ele><time>2026-08-15T19:02:50.000Z</time></trkpt>
        <trkpt lat="29.5771653" lon="103.370333"><ele>1420.52</ele><time>2026-08-15T19:03:00.000Z</time></trkpt>
        <trkpt lat="29.5770738" lon="103.3702815"><ele>1420.16</ele><time>2026-08-15T19:03:12.000Z</time></trkpt>
        <trkpt lat="29.5770117" lon="103.3701941"><ele>1422.18</ele><time>2026-08-15T19:03:22.000Z</time></trkpt>
        <trkpt lat="29.5769699" lon="103.3700835"><ele>1424.75</ele><time>2026-08-15T19:03:32.000Z</time></trkpt>
        <trkpt lat="29.576967" lon="103.3699582"><ele>1427.56</ele><time>2026-08-15T19:03:42.000Z</time></trkpt>
        <trkpt lat="29.5769692" lon="103.3698433"><ele>1430.57</ele><time>2026-08-15T19:03:52.000Z</time></trkpt>
        <trkpt lat="29.576939" lon="103.3697247"><ele>1432.2</ele><time>2026-08-15T19:04:02.000Z</time></trkpt>
        <trkpt lat="29.5769434" lon="103.3696158"><ele>1431.23</ele><time>2026-08-15T19:04:10.000Z</time></trkpt>
        <trkpt lat="29.5769422" lon="103.3694975"><ele>1430.36</ele><time>2026-08-15T19:04:20.000Z</time></trkpt>
        <trkpt lat="29.576925" lon="103.3693829"><ele>1429.9</ele><time>2026-08-15T19:04:30.000Z</time></trkpt>
        <trkpt lat="29.5769106" lon="103.3692716"><ele>1430.82</ele><time>2026-08-15T19:04:40.000Z</time></trkpt>
        <trkpt lat="29.5768968" lon="103.36916"><ele>1431.5</ele><time>2026-08-15T19:04:52.000Z</time></trkpt>
        <trkpt lat="29.5769133" lon="103.3690496"><ele>1432.98</ele><time>2026-08-15T19:05:04.000Z</time></trkpt>
        <trkpt lat="29.5769417" lon="103.36893"><ele>1434.39</ele><time>2026-08-15T19:05:14.000Z</time></trkpt>
        <trkpt lat="29.5769587" lon="103.3688085"><ele>1435.23</ele><time>2026-08-15T19:05:22.000Z</time></trkpt>
        <trkpt lat="29.5769567" lon="103.3686988"><ele>1435.94</ele><time>2026-08-15T19:05:30.000Z</time></trkpt>
        <trkpt lat="29.5769567" lon="103.3685895"><ele>1435.93</ele><time>2026-08-15T19:05:38.000Z</time></trkpt>
        <trkpt lat="29.57697" lon="103.3684697"><ele>1435.87</ele><time>2026-08-15T19:05:46.000Z</time></trkpt>
        <trkpt lat="29.5769874" lon="103.3683603"><ele>1435.95</ele><time>2026-08-15T19:05:56.000Z</time></trkpt>
        <trkpt lat="29.5770149" lon="103.3682557"><ele>1435.74</ele><time>2026-08-15T19:06:06.000Z</time></trkpt>
        <trkpt lat="29.5770326" lon="103.3681509"><ele>1435.68</ele><time>2026-08-15T19:06:18.000Z</time></trkpt>
        <trkpt lat="29.5770588" lon="103.3680508"><ele>1436.23</ele><time>2026-08-15T19:06:30.000Z</time></trkpt>
        <trkpt lat="29.5770536" lon="103.3679913"><ele>1436.97</ele><time>2026-08-15T19:06:50.000Z</time></trkpt>
        <trkpt lat="29.5771252" lon="103.3679547"><ele>1438.88</ele><time>2026-08-15T19:07:38.000Z</time></trkpt>
        <trkpt lat="29.577147" lon="103.3679478"><ele>1446.45</ele><time>2026-08-15T19:07:40.000Z</time></trkpt>
        <trkpt lat="29.577199" lon="103.3678958"><ele>1450.81</ele><time>2026-08-15T19:08:10.000Z</time></trkpt>
        <trkpt lat="29.5772304" lon="103.3678035"><ele>1455.71</ele><time>2026-08-15T19:08:40.000Z</time></trkpt>
        <trkpt lat="29.5772114" lon="103.3676971"><ele>1459.91</ele><time>2026-08-15T19:08:56.000Z</time></trkpt>
        <trkpt lat="29.5771523" lon="103.3675923"><ele>1462.92</ele><time>2026-08-15T19:09:08.000Z</time></trkpt>
        <trkpt lat="29.5770768" lon="103.3675071"><ele>1463.48</ele><time>2026-08-15T19:09:18.000Z</time></trkpt>
        <trkpt lat="29.5770082" lon="103.3674115"><ele>1463.48</ele><time>2026-08-15T19:09:28.000Z</time></trkpt>
        <trkpt lat="29.576928" lon="103.3673278"><ele>1463.75</ele><time>2026-08-15T19:09:38.000Z</time></trkpt>
        <trkpt lat="29.5768455" lon="103.3672633"><ele>1462.86</ele><time>2026-08-15T19:09:46.000Z</time></trkpt>
        <trkpt lat="29.5767609" lon="103.3671996"><ele>1462.39</ele><time>2026-08-15T19:09:54.000Z</time></trkpt>
        <trkpt lat="29.576686" lon="103.3671093"><ele>1462.2</ele><time>2026-08-15T19:10:06.000Z</time></trkpt>
        <trkpt lat="29.5766233" lon="103.3670017"><ele>1460.94</ele><time>2026-08-15T19:10:16.000Z</time></trkpt>
        <trkpt lat="29.5765594" lon="103.3668981"><ele>1459.61</ele><time>2026-08-15T19:10:26.000Z</time></trkpt>
        <trkpt lat="29.5764864" lon="103.3668098"><ele>1458.9</ele><time>2026-08-15T19:10:34.000Z</time></trkpt>
        <trkpt lat="29.5763974" lon="103.3667381"><ele>1458.53</ele><time>2026-08-15T19:10:44.000Z</time></trkpt>
        <trkpt lat="29.5763344" lon="103.3666394"><ele>1457.19</ele><time>2026-08-15T19:10:54.000Z</time></trkpt>
        <trkpt lat="29.5762893" lon="103.3665386"><ele>1456.59</ele><time>2026-08-15T19:11:02.000Z</time></trkpt>
        <trkpt lat="29.5763043" lon="103.3664323"><ele>1455.66</ele><time>2026-08-15T19:11:14.000Z</time></trkpt>
        <trkpt lat="29.5762626" lon="103.3663445"><ele>1456.05</ele><time>2026-08-15T19:11:34.000Z</time></trkpt>
        <trkpt lat="29.5762602" lon="103.3662434"><ele>1457.95</ele><time>2026-08-15T19:11:46.000Z</time></trkpt>
        <trkpt lat="29.5762951" lon="103.3661436"><ele>1460.55</ele><time>2026-08-15T19:12:00.000Z</time></trkpt>
        <trkpt lat="29.5762615" lon="103.3660558"><ele>1462.09</ele><time>2026-08-15T19:12:18.000Z</time></trkpt>
        <trkpt lat="29.5761867" lon="103.3659989"><ele>1457.23</ele><time>2026-08-15T19:12:36.000Z</time></trkpt>
        <trkpt lat="29.5761079" lon="103.3659367"><ele>1450.65</ele><time>2026-08-15T19:12:52.000Z</time></trkpt>
        <trkpt lat="29.5760233" lon="103.3658747"><ele>1444.94</ele><time>2026-08-15T19:13:08.000Z</time></trkpt>
        <trkpt lat="29.5759304" lon="103.3658282"><ele>1440.51</ele><time>2026-08-15T19:13:24.000Z</time></trkpt>
        <trkpt lat="29.5758404" lon="103.3657948"><ele>1436.35</ele><time>2026-08-15T19:13:36.000Z</time></trkpt>
        <trkpt lat="29.5757568" lon="103.3657465"><ele>1432.54</ele><time>2026-08-15T19:13:46.000Z</time></trkpt>
        <trkpt lat="29.5756712" lon="103.3656878"><ele>1427.86</ele><time>2026-08-15T19:13:58.000Z</time></trkpt>
        <trkpt lat="29.5756332" lon="103.365655"><ele>1425.09</ele><time>2026-08-15T19:14:04.000Z</time></trkpt>
        <trkpt lat="29.5755895" lon="103.3655713"><ele>1424.07</ele><time>2026-08-15T19:14:30.000Z</time></trkpt>
        <trkpt lat="29.5755169" lon="103.3655025"><ele>1423.21</ele><time>2026-08-15T19:14:50.000Z</time></trkpt>
        <trkpt lat="29.5754291" lon="103.3655014"><ele>1424.14</ele><time>2026-08-15T19:15:22.000Z</time></trkpt>
        <trkpt lat="29.5753572" lon="103.3654438"><ele>1430.11</ele><time>2026-08-15T19:16:00.000Z</time></trkpt>
        <trkpt lat="29.5752817" lon="103.3653826"><ele>1433.85</ele><time>2026-08-15T19:16:24.000Z</time></trkpt>
        <trkpt lat="29.5752088" lon="103.3653161"><ele>1437.14</ele><time>2026-08-15T19:16:44.000Z</time></trkpt>
        <trkpt lat="29.5751572" lon="103.3652603"><ele>1439.87</ele><time>2026-08-15T19:17:26.000Z</time></trkpt>
        <trkpt lat="29.5750984" lon="103.3651885"><ele>1446.56</ele><time>2026-08-15T19:17:54.000Z</time></trkpt>
        <trkpt lat="29.5750313" lon="103.3651077"><ele>1451.09</ele><time>2026-08-15T19:18:10.000Z</time></trkpt>
        <trkpt lat="29.5749874" lon="103.365003"><ele>1454.4</ele><time>2026-08-15T19:18:24.000Z</time></trkpt>
        <trkpt lat="29.5749679" lon="103.3648948"><ele>1456.29</ele><time>2026-08-15T19:18:44.000Z</time></trkpt>
        <trkpt lat="29.5749427" lon="103.3647881"><ele>1458.5</ele><time>2026-08-15T19:19:08.000Z</time></trkpt>
        <trkpt lat="29.5748778" lon="103.3647127"><ele>1461.9</ele><time>2026-08-15T19:19:32.000Z</time></trkpt>
        <trkpt lat="29.5748566" lon="103.364691"><ele>1467.14</ele><time>2026-08-15T19:19:34.000Z</time></trkpt>
        <trkpt lat="29.574816" lon="103.3646273"><ele>1470.14</ele><time>2026-08-15T19:20:20.000Z</time></trkpt>
        <trkpt lat="29.5747527" lon="103.3645569"><ele>1474.67</ele><time>2026-08-15T19:20:48.000Z</time></trkpt>
        <trkpt lat="29.5746887" lon="103.3644733"><ele>1478.61</ele><time>2026-08-15T19:21:22.000Z</time></trkpt>
        <trkpt lat="29.5746861" lon="103.3643732"><ele>1483.64</ele><time>2026-08-15T19:21:46.000Z</time></trkpt>
        <trkpt lat="29.5746483" lon="103.3642833"><ele>1488.58</ele><time>2026-08-15T19:21:58.000Z</time></trkpt>
        <trkpt lat="29.5745773" lon="103.3642083"><ele>1492.34</ele><time>2026-08-15T19:22:10.000Z</time></trkpt>
        <trkpt lat="29.5744895" lon="103.3641517"><ele>1494.33</ele><time>2026-08-15T19:22:34.000Z</time></trkpt>
        <trkpt lat="29.5744153" lon="103.3640784"><ele>1497.15</ele><time>2026-08-15T19:22:46.000Z</time></trkpt>
        <trkpt lat="29.5744049" lon="103.3639771"><ele>1499.84</ele><time>2026-08-15T19:23:00.000Z</time></trkpt>
        <trkpt lat="29.5744089" lon="103.3638706"><ele>1501.05</ele><time>2026-08-15T19:23:22.000Z</time></trkpt>
        <trkpt lat="29.5743923" lon="103.3637683"><ele>1503.73</ele><time>2026-08-15T19:24:00.000Z</time></trkpt>
        <trkpt lat="29.574446" lon="103.3637004"><ele>1506.73</ele><time>2026-08-15T19:24:22.000Z</time></trkpt>
        <trkpt lat="29.5745386" lon="103.3637"><ele>1509.36</ele><time>2026-08-15T19:24:58.000Z</time></trkpt>
        <trkpt lat="29.5746238" lon="103.3636546"><ele>1516.08</ele><time>2026-08-15T19:25:30.000Z</time></trkpt>
        <trkpt lat="29.5746475" lon="103.3635618"><ele>1521.55</ele><time>2026-08-15T19:25:46.000Z</time></trkpt>
        <trkpt lat="29.5746425" lon="103.3634478"><ele>1525.68</ele><time>2026-08-15T19:26:00.000Z</time></trkpt>
        <trkpt lat="29.5746373" lon="103.3633739"><ele>1529.06</ele><time>2026-08-15T19:26:10.000Z</time></trkpt>
        <trkpt lat="29.5746822" lon="103.3632964"><ele>1531.12</ele><time>2026-08-15T19:27:42.000Z</time></trkpt>
        <trkpt lat="29.5746326" lon="103.3632009"><ele>1531.63</ele><time>2026-08-15T19:28:04.000Z</time></trkpt>
        <trkpt lat="29.5745985" lon="103.3631041"><ele>1534.23</ele><time>2026-08-15T19:28:36.000Z</time></trkpt>
        <trkpt lat="29.5746092" lon="103.3630033"><ele>1538.1</ele><time>2026-08-15T19:28:54.000Z</time></trkpt>
        <trkpt lat="29.574645" lon="103.3628897"><ele>1540.91</ele><time>2026-08-15T19:29:06.000Z</time></trkpt>
        <trkpt lat="29.5747251" lon="103.3628387"><ele>1542.59</ele><time>2026-08-15T19:29:20.000Z</time></trkpt>
        <trkpt lat="29.5748231" lon="103.3628231"><ele>1545.54</ele><time>2026-08-15T19:29:44.000Z</time></trkpt>
        <trkpt lat="29.5748778" lon="103.3627516"><ele>1549.69</ele><time>2026-08-15T19:30:10.000Z</time></trkpt>
        <trkpt lat="29.5749296" lon="103.3626647"><ele>1553.12</ele><time>2026-08-15T19:30:20.000Z</time></trkpt>
        <trkpt lat="29.574915" lon="103.3625591"><ele>1555.88</ele><time>2026-08-15T19:30:34.000Z</time></trkpt>
        <trkpt lat="29.5748641" lon="103.3624574"><ele>1556.71</ele><time>2026-08-15T19:30:46.000Z</time></trkpt>
        <trkpt lat="29.5747814" lon="103.362395"><ele>1559.04</ele><time>2026-08-15T19:31:04.000Z</time></trkpt>
        <trkpt lat="29.574685" lon="103.3624037"><ele>1561.83</ele><time>2026-08-15T19:31:20.000Z</time></trkpt>
        <trkpt lat="29.5745898" lon="103.36244"><ele>1563.62</ele><time>2026-08-15T19:31:32.000Z</time></trkpt>
        <trkpt lat="29.5744874" lon="103.3624868"><ele>1564.51</ele><time>2026-08-15T19:31:44.000Z</time></trkpt>
        <trkpt lat="29.5743887" lon="103.3625"><ele>1564.78</ele><time>2026-08-15T19:31:54.000Z</time></trkpt>
        <trkpt lat="29.5742953" lon="103.3624935"><ele>1566.22</ele><time>2026-08-15T19:32:06.000Z</time></trkpt>
        <trkpt lat="29.5742" lon="103.3624896"><ele>1566.52</ele><time>2026-08-15T19:32:16.000Z</time></trkpt>
        <trkpt lat="29.5741077" lon="103.3625095"><ele>1565.99</ele><time>2026-08-15T19:32:28.000Z</time></trkpt>
        <trkpt lat="29.574022" lon="103.3624822"><ele>1566.68</ele><time>2026-08-15T19:32:40.000Z</time></trkpt>
        <trkpt lat="29.5739378" lon="103.3624192"><ele>1567.76</ele><time>2026-08-15T19:32:56.000Z</time></trkpt>
        <trkpt lat="29.5738555" lon="103.3623544"><ele>1569.48</ele><time>2026-08-15T19:33:06.000Z</time></trkpt>
        <trkpt lat="29.573777" lon="103.3622944"><ele>1571.68</ele><time>2026-08-15T19:33:20.000Z</time></trkpt>
        <trkpt lat="29.5737127" lon="103.3622201"><ele>1575.9</ele><time>2026-08-15T19:33:32.000Z</time></trkpt>
        <trkpt lat="29.5736382" lon="103.3621583"><ele>1578.54</ele><time>2026-08-15T19:33:46.000Z</time></trkpt>
        <trkpt lat="29.5735661" lon="103.3620858"><ele>1579.06</ele><time>2026-08-15T19:34:26.000Z</time></trkpt>
        <trkpt lat="29.5735063" lon="103.3619995"><ele>1581.06</ele><time>2026-08-15T19:34:48.000Z</time></trkpt>
        <trkpt lat="29.5734212" lon="103.3619285"><ele>1586.43</ele><time>2026-08-15T19:35:12.000Z</time></trkpt>
        <trkpt lat="29.5733327" lon="103.3618687"><ele>1589.72</ele><time>2026-08-15T19:35:42.000Z</time></trkpt>
        <trkpt lat="29.5732843" lon="103.3618284"><ele>1594.15</ele><time>2026-08-15T19:35:52.000Z</time></trkpt>
        <trkpt lat="29.5732168" lon="103.3617715"><ele>1597.05</ele><time>2026-08-15T19:36:14.000Z</time></trkpt>
        <trkpt lat="29.5731453" lon="103.3617097"><ele>1601.47</ele><time>2026-08-15T19:36:28.000Z</time></trkpt>
        <trkpt lat="29.5730582" lon="103.36165"><ele>1603.91</ele><time>2026-08-15T19:36:40.000Z</time></trkpt>
        <trkpt lat="29.5729598" lon="103.3616232"><ele>1605.92</ele><time>2026-08-15T19:36:56.000Z</time></trkpt>
        <trkpt lat="29.5729385" lon="103.3616188"><ele>1607.69</ele><time>2026-08-15T19:37:00.000Z</time></trkpt>
        <trkpt lat="29.5728678" lon="103.3616029"><ele>1608.64</ele><time>2026-08-15T19:37:16.000Z</time></trkpt>
        <trkpt lat="29.5727732" lon="103.3615886"><ele>1609.58</ele><time>2026-08-15T19:37:36.000Z</time></trkpt>
        <trkpt lat="29.5726767" lon="103.36158"><ele>1611.78</ele><time>2026-08-15T19:38:20.000Z</time></trkpt>
        <trkpt lat="29.5725869" lon="103.3616112"><ele>1613.51</ele><time>2026-08-15T19:38:30.000Z</time></trkpt>
        <trkpt lat="29.5725188" lon="103.3616817"><ele>1613.6</ele><time>2026-08-15T19:38:44.000Z</time></trkpt>
        <trkpt lat="29.5724408" lon="103.3617373"><ele>1613.15</ele><time>2026-08-15T19:39:14.000Z</time></trkpt>
        <trkpt lat="29.5723551" lon="103.3617743"><ele>1616.17</ele><time>2026-08-15T19:39:46.000Z</time></trkpt>
        <trkpt lat="29.5722587" lon="103.3617852"><ele>1620.92</ele><time>2026-08-15T19:40:06.000Z</time></trkpt>
        <trkpt lat="29.5721651" lon="103.3618003"><ele>1622.4</ele><time>2026-08-15T19:40:36.000Z</time></trkpt>
        <trkpt lat="29.5720736" lon="103.3618464"><ele>1627.37</ele><time>2026-08-15T19:40:52.000Z</time></trkpt>
        <trkpt lat="29.5719792" lon="103.3618514"><ele>1632.06</ele><time>2026-08-15T19:41:16.000Z</time></trkpt>
        <trkpt lat="29.5718868" lon="103.3618296"><ele>1635.23</ele><time>2026-08-15T19:41:54.000Z</time></trkpt>
        <trkpt lat="29.5717938" lon="103.3618433"><ele>1640.01</ele><time>2026-08-15T19:42:42.000Z</time></trkpt>
        <trkpt lat="29.5717033" lon="103.3618799"><ele>1645.49</ele><time>2026-08-15T19:43:00.000Z</time></trkpt>
        <trkpt lat="29.5716062" lon="103.3618983"><ele>1650.47</ele><time>2026-08-15T19:43:12.000Z</time></trkpt>
        <trkpt lat="29.5715192" lon="103.3618423"><ele>1653.69</ele><time>2026-08-15T19:43:22.000Z</time></trkpt>
        <trkpt lat="29.5714469" lon="103.3617632"><ele>1653.66</ele><time>2026-08-15T19:43:30.000Z</time></trkpt>
        <trkpt lat="29.5713671" lon="103.3616985"><ele>1653.57</ele><time>2026-08-15T19:43:38.000Z</time></trkpt>
        <trkpt lat="29.5713558" lon="103.3617048"><ele>1653.67</ele><time>2026-08-15T19:43:40.000Z</time></trkpt>
        <trkpt lat="29.5712821" lon="103.361709"><ele>1653.33</ele><time>2026-08-15T19:44:10.000Z</time></trkpt>
        <trkpt lat="29.5711937" lon="103.3617054"><ele>1654.38</ele><time>2026-08-15T19:44:20.000Z</time></trkpt>
        <trkpt lat="29.5711123" lon="103.3616607"><ele>1653.53</ele><time>2026-08-15T19:44:36.000Z</time></trkpt>
        <trkpt lat="29.5710302" lon="103.3615973"><ele>1653.92</ele><time>2026-08-15T19:44:46.000Z</time></trkpt>
        <trkpt lat="29.5709488" lon="103.3615371"><ele>1654.22</ele><time>2026-08-15T19:45:00.000Z</time></trkpt>
        <trkpt lat="29.5708684" lon="103.3614728"><ele>1655.05</ele><time>2026-08-15T19:45:14.000Z</time></trkpt>
        <trkpt lat="29.5707785" lon="103.3614144"><ele>1657.58</ele><time>2026-08-15T19:45:28.000Z</time></trkpt>
        <trkpt lat="29.5706788" lon="103.3614019"><ele>1659.23</ele><time>2026-08-15T19:45:40.000Z</time></trkpt>
        <trkpt lat="29.5705852" lon="103.361391"><ele>1661.51</ele><time>2026-08-15T19:45:50.000Z</time></trkpt>
        <trkpt lat="29.5704849" lon="103.3613614"><ele>1662.25</ele><time>2026-08-15T19:46:02.000Z</time></trkpt>
        <trkpt lat="29.5703931" lon="103.3613217"><ele>1662.44</ele><time>2026-08-15T19:46:12.000Z</time></trkpt>
        <trkpt lat="29.5703086" lon="103.3612739"><ele>1662.15</ele><time>2026-08-15T19:46:22.000Z</time></trkpt>
        <trkpt lat="29.5702127" lon="103.3612339"><ele>1661.41</ele><time>2026-08-15T19:46:32.000Z</time></trkpt>
        <trkpt lat="29.5701182" lon="103.3612048"><ele>1660.7</ele><time>2026-08-15T19:46:42.000Z</time></trkpt>
        <trkpt lat="29.5700228" lon="103.3611757"><ele>1659.97</ele><time>2026-08-15T19:46:52.000Z</time></trkpt>
        <trkpt lat="29.5699449" lon="103.3611155"><ele>1660.36</ele><time>2026-08-15T19:47:14.000Z</time></trkpt>
        <trkpt lat="29.5698754" lon="103.3610475"><ele>1661.91</ele><time>2026-08-15T19:47:28.000Z</time></trkpt>
        <trkpt lat="29.5697834" lon="103.361031"><ele>1664.66</ele><time>2026-08-15T19:47:42.000Z</time></trkpt>
        <trkpt lat="29.5697013" lon="103.3609875"><ele>1667.75</ele><time>2026-08-15T19:47:54.000Z</time></trkpt>
        <trkpt lat="29.5696309" lon="103.3609131"><ele>1669.73</ele><time>2026-08-15T19:48:04.000Z</time></trkpt>
        <trkpt lat="29.5695724" lon="103.3608275"><ele>1670.46</ele><time>2026-08-15T19:48:14.000Z</time></trkpt>
        <trkpt lat="29.569487" lon="103.3607646"><ele>1671.04</ele><time>2026-08-15T19:48:24.000Z</time></trkpt>
        <trkpt lat="29.5693869" lon="103.3607455"><ele>1670.81</ele><time>2026-08-15T19:48:34.000Z</time></trkpt>
        <trkpt lat="29.5693261" lon="103.3606747"><ele>1670.86</ele><time>2026-08-15T19:48:46.000Z</time></trkpt>
        <trkpt lat="29.5692468" lon="103.3606042"><ele>1672.86</ele><time>2026-08-15T19:49:00.000Z</time></trkpt>
        <trkpt lat="29.5691761" lon="103.3605224"><ele>1674.11</ele><time>2026-08-15T19:49:12.000Z</time></trkpt>
        <trkpt lat="29.5690995" lon="103.3604315"><ele>1674.2</ele><time>2026-08-15T19:49:26.000Z</time></trkpt>
        <trkpt lat="29.5690159" lon="103.3603708"><ele>1676.09</ele><time>2026-08-15T19:49:36.000Z</time></trkpt>
        <trkpt lat="29.5689366" lon="103.3603135"><ele>1677.73</ele><time>2026-08-15T19:49:46.000Z</time></trkpt>
        <trkpt lat="29.5688605" lon="103.3602456"><ele>1678.96</ele><time>2026-08-15T19:50:00.000Z</time></trkpt>
        <trkpt lat="29.5687977" lon="103.360156"><ele>1680.87</ele><time>2026-08-15T19:50:14.000Z</time></trkpt>
        <trkpt lat="29.5687583" lon="103.3600532"><ele>1683.76</ele><time>2026-08-15T19:50:28.000Z</time></trkpt>
        <trkpt lat="29.5687531" lon="103.3599453"><ele>1685.36</ele><time>2026-08-15T19:50:40.000Z</time></trkpt>
        <trkpt lat="29.5687593" lon="103.3598373"><ele>1687.09</ele><time>2026-08-15T19:50:50.000Z</time></trkpt>
        <trkpt lat="29.5687547" lon="103.3597284"><ele>1688.41</ele><time>2026-08-15T19:51:02.000Z</time></trkpt>
        <trkpt lat="29.5686783" lon="103.3596983"><ele>1689.61</ele><time>2026-08-15T19:51:26.000Z</time></trkpt>
        <trkpt lat="29.5685784" lon="103.3596904"><ele>1691.83</ele><time>2026-08-15T19:51:40.000Z</time></trkpt>
        <trkpt lat="29.5684683" lon="103.3597378"><ele>1692.85</ele><time>2026-08-15T19:51:58.000Z</time></trkpt>
        <trkpt lat="29.5683642" lon="103.3597291"><ele>1697.46</ele><time>2026-08-15T19:52:10.000Z</time></trkpt>
        <trkpt lat="29.5683462" lon="103.3596273"><ele>1698.33</ele><time>2026-08-15T19:52:18.000Z</time></trkpt>
        <trkpt lat="29.5683771" lon="103.3595732"><ele>1697.46</ele><time>2026-08-15T19:52:22.000Z</time></trkpt>
        <trkpt lat="29.5683259" lon="103.359609"><ele>1697.27</ele><time>2026-08-15T19:52:50.000Z</time></trkpt>
        <trkpt lat="29.5682775" lon="103.3595972"><ele>1696.74</ele><time>2026-08-15T19:52:58.000Z</time></trkpt>
        <trkpt lat="29.5683278" lon="103.3595574"><ele>1696.77</ele><time>2026-08-15T19:53:42.000Z</time></trkpt>
        <trkpt lat="29.5682884" lon="103.3595315"><ele>1695.7</ele><time>2026-08-15T19:53:48.000Z</time></trkpt>
        <trkpt lat="29.5683138" lon="103.3596518"><ele>1693.77</ele><time>2026-08-15T19:54:48.000Z</time></trkpt>
        <trkpt lat="29.568393" lon="103.3595413"><ele>1690.55</ele><time>2026-08-15T19:54:56.000Z</time></trkpt>
        <trkpt lat="29.5683801" lon="103.3595098"><ele>1687.79</ele><time>2026-08-15T19:54:58.000Z</time></trkpt>
        <trkpt lat="29.5683361" lon="103.3595929"><ele>1686.52</ele><time>2026-08-15T19:55:36.000Z</time></trkpt>
        <trkpt lat="29.5682829" lon="103.3597036"><ele>1687.24</ele><time>2026-08-15T19:56:16.000Z</time></trkpt>
        <trkpt lat="29.5682954" lon="103.3596365"><ele>1688</ele><time>2026-08-15T19:56:40.000Z</time></trkpt>
        <trkpt lat="29.5681769" lon="103.3595662"><ele>1689.89</ele><time>2026-08-15T20:00:14.000Z</time></trkpt>
        <trkpt lat="29.5681778" lon="103.359569"><ele>1690.52</ele><time>2026-08-15T20:00:16.000Z</time></trkpt>
        <trkpt lat="29.5682949" lon="103.3596055"><ele>1690.83</ele><time>2026-08-15T20:01:40.000Z</time></trkpt>
        <trkpt lat="29.5682464" lon="103.3595925"><ele>1689.61</ele><time>2026-08-15T20:01:54.000Z</time></trkpt>
        <trkpt lat="29.5683155" lon="103.3596608"><ele>1689.11</ele><time>2026-08-15T20:02:54.000Z</time></trkpt>
        <trkpt lat="29.5684131" lon="103.3596135"><ele>1690.38</ele><time>2026-08-15T20:03:02.000Z</time></trkpt>
        <trkpt lat="29.5683137" lon="103.3595911"><ele>1691.37</ele><time>2026-08-15T20:04:16.000Z</time></trkpt>
        <trkpt lat="29.5684096" lon="103.3596028"><ele>1690.92</ele><time>2026-08-15T20:17:26.000Z</time></trkpt>
        <trkpt lat="29.5683257" lon="103.35964"><ele>1692.3</ele><time>2026-08-15T20:17:46.000Z</time></trkpt>
        <trkpt lat="29.5682503" lon="103.359571"><ele>1692.77</ele><time>2026-08-15T20:18:02.000Z</time></trkpt>
        <trkpt lat="29.568251" lon="103.3595935"><ele>1692.33</ele><time>2026-08-15T20:18:06.000Z</time></trkpt>
        <trkpt lat="29.5683599" lon="103.3596503"><ele>1691.8</ele><time>2026-08-15T20:19:42.000Z</time></trkpt>
        <trkpt lat="29.5682675" lon="103.3596308"><ele>1693.82</ele><time>2026-08-15T20:22:02.000Z</time></trkpt>
        <trkpt lat="29.5682545" lon="103.3595527"><ele>1693.45</ele><time>2026-08-15T20:22:08.000Z</time></trkpt>
        <trkpt lat="29.5683079" lon="103.3596466"><ele>1691.64</ele><time>2026-08-15T20:23:32.000Z</time></trkpt>
        <trkpt lat="29.5684016" lon="103.3596529"><ele>1692.24</ele><time>2026-08-15T20:24:56.000Z</time></trkpt>
        <trkpt lat="29.5684942" lon="103.3596636"><ele>1692.86</ele><time>2026-08-15T20:25:12.000Z</time></trkpt>
        <trkpt lat="29.5684059" lon="103.3597126"><ele>1692.53</ele><time>2026-08-15T20:26:30.000Z</time></trkpt>
        <trkpt lat="29.5683296" lon="103.3596504"><ele>1693.17</ele><time>2026-08-15T20:26:40.000Z</time></trkpt>
        <trkpt lat="29.5682342" lon="103.3596648"><ele>1692.75</ele><time>2026-08-15T20:31:10.000Z</time></trkpt>
        <trkpt lat="29.5681536" lon="103.3595891"><ele>1693.23</ele><time>2026-08-15T20:31:24.000Z</time></trkpt>
        <trkpt lat="29.5680936" lon="103.3595086"><ele>1694.16</ele><time>2026-08-15T20:31:40.000Z</time></trkpt>
        <trkpt lat="29.5680142" lon="103.3595361"><ele>1694.49</ele><time>2026-08-15T20:31:52.000Z</time></trkpt>
        <trkpt lat="29.5679115" lon="103.3595609"><ele>1694.84</ele><time>2026-08-15T20:32:04.000Z</time></trkpt>
        <trkpt lat="29.5678156" lon="103.3595586"><ele>1694.23</ele><time>2026-08-15T20:32:14.000Z</time></trkpt>
        <trkpt lat="29.5677272" lon="103.3595086"><ele>1694.92</ele><time>2026-08-15T20:32:26.000Z</time></trkpt>
        <trkpt lat="29.5676379" lon="103.3594484"><ele>1696.06</ele><time>2026-08-15T20:32:38.000Z</time></trkpt>
        <trkpt lat="29.5675458" lon="103.3593953"><ele>1698.13</ele><time>2026-08-15T20:32:52.000Z</time></trkpt>
        <trkpt lat="29.5674552" lon="103.3593712"><ele>1701.21</ele><time>2026-08-15T20:33:10.000Z</time></trkpt>
        <trkpt lat="29.5673729" lon="103.3594083"><ele>1704.38</ele><time>2026-08-15T20:33:34.000Z</time></trkpt>
        <trkpt lat="29.5672783" lon="103.3594158"><ele>1707.22</ele><time>2026-08-15T20:33:56.000Z</time></trkpt>
        <trkpt lat="29.5671824" lon="103.3594258"><ele>1710.76</ele><time>2026-08-15T20:34:20.000Z</time></trkpt>
        <trkpt lat="29.5670839" lon="103.3594307"><ele>1713.2</ele><time>2026-08-15T20:34:38.000Z</time></trkpt>
        <trkpt lat="29.5669902" lon="103.3594001"><ele>1713.91</ele><time>2026-08-15T20:35:10.000Z</time></trkpt>
        <trkpt lat="29.5669007" lon="103.3593682"><ele>1716.89</ele><time>2026-08-15T20:35:28.000Z</time></trkpt>
        <trkpt lat="29.5668228" lon="103.3593046"><ele>1718.95</ele><time>2026-08-15T20:35:42.000Z</time></trkpt>
        <trkpt lat="29.5667571" lon="103.3592162"><ele>1722.21</ele><time>2026-08-15T20:35:54.000Z</time></trkpt>
        <trkpt lat="29.5666989" lon="103.3591239"><ele>1724.84</ele><time>2026-08-15T20:36:06.000Z</time></trkpt>
        <trkpt lat="29.5666334" lon="103.3590363"><ele>1727.84</ele><time>2026-08-15T20:36:16.000Z</time></trkpt>
        <trkpt lat="29.5665446" lon="103.3590073"><ele>1730.31</ele><time>2026-08-15T20:36:28.000Z</time></trkpt>
        <trkpt lat="29.5664494" lon="103.3589937"><ele>1731.53</ele><time>2026-08-15T20:36:42.000Z</time></trkpt>
        <trkpt lat="29.5663662" lon="103.3589421"><ele>1730.23</ele><time>2026-08-15T20:37:02.000Z</time></trkpt>
        <trkpt lat="29.5663184" lon="103.3588481"><ele>1729.62</ele><time>2026-08-15T20:37:20.000Z</time></trkpt>
        <trkpt lat="29.5662683" lon="103.3587564"><ele>1731.59</ele><time>2026-08-15T20:37:42.000Z</time></trkpt>
        <trkpt lat="29.5662272" lon="103.3586591"><ele>1734.08</ele><time>2026-08-15T20:38:08.000Z</time></trkpt>
        <trkpt lat="29.566193" lon="103.3587094"><ele>1739.22</ele><time>2026-08-15T20:38:34.000Z</time></trkpt>
        <trkpt lat="29.5661967" lon="103.3586549"><ele>1746.35</ele><time>2026-08-15T20:38:40.000Z</time></trkpt>
        <trkpt lat="29.566183" lon="103.3585558"><ele>1749.41</ele><time>2026-08-15T20:38:46.000Z</time></trkpt>
        <trkpt lat="29.5661907" lon="103.3584463"><ele>1750.77</ele><time>2026-08-15T20:39:10.000Z</time></trkpt>
        <trkpt lat="29.5661865" lon="103.3583843"><ele>1754.17</ele><time>2026-08-15T20:39:28.000Z</time></trkpt>
        <trkpt lat="29.5661995" lon="103.358274"><ele>1756.58</ele><time>2026-08-15T20:39:38.000Z</time></trkpt>
        <trkpt lat="29.5661688" lon="103.3581698"><ele>1757.8</ele><time>2026-08-15T20:39:56.000Z</time></trkpt>
        <trkpt lat="29.5661291" lon="103.3580671"><ele>1758.48</ele><time>2026-08-15T20:40:22.000Z</time></trkpt>
        <trkpt lat="29.5660743" lon="103.3579778"><ele>1759.69</ele><time>2026-08-15T20:40:48.000Z</time></trkpt>
        <trkpt lat="29.566027" lon="103.357887"><ele>1763.28</ele><time>2026-08-15T20:41:10.000Z</time></trkpt>
        <trkpt lat="29.5659954" lon="103.3577788"><ele>1765.42</ele><time>2026-08-15T20:41:28.000Z</time></trkpt>
        <trkpt lat="29.5659693" lon="103.3576653"><ele>1767.39</ele><time>2026-08-15T20:41:54.000Z</time></trkpt>
        <trkpt lat="29.5659363" lon="103.3575581"><ele>1771.72</ele><time>2026-08-15T20:42:14.000Z</time></trkpt>
        <trkpt lat="29.5658602" lon="103.3574941"><ele>1775.02</ele><time>2026-08-15T20:42:36.000Z</time></trkpt>
        <trkpt lat="29.5657745" lon="103.3574252"><ele>1777.3</ele><time>2026-08-15T20:43:04.000Z</time></trkpt>
        <trkpt lat="29.5656817" lon="103.3574051"><ele>1782.7</ele><time>2026-08-15T20:43:20.000Z</time></trkpt>
        <trkpt lat="29.5656058" lon="103.3573354"><ele>1786.51</ele><time>2026-08-15T20:43:30.000Z</time></trkpt>
        <trkpt lat="29.5655651" lon="103.3572405"><ele>1790.01</ele><time>2026-08-15T20:43:40.000Z</time></trkpt>
        <trkpt lat="29.5655215" lon="103.357148"><ele>1792.88</ele><time>2026-08-15T20:44:04.000Z</time></trkpt>
        <trkpt lat="29.5654674" lon="103.3570612"><ele>1793.16</ele><time>2026-08-15T20:44:26.000Z</time></trkpt>
        <trkpt lat="29.5654253" lon="103.3569669"><ele>1795.7</ele><time>2026-08-15T20:45:00.000Z</time></trkpt>
        <trkpt lat="29.5653686" lon="103.3568676"><ele>1801.44</ele><time>2026-08-15T20:45:24.000Z</time></trkpt>
        <trkpt lat="29.5652831" lon="103.3568045"><ele>1805.62</ele><time>2026-08-15T20:45:50.000Z</time></trkpt>
        <trkpt lat="29.5651806" lon="103.3567709"><ele>1808.85</ele><time>2026-08-15T20:46:06.000Z</time></trkpt>
        <trkpt lat="29.5651329" lon="103.3567092"><ele>1810.06</ele><time>2026-08-15T20:46:28.000Z</time></trkpt>
        <trkpt lat="29.5650597" lon="103.3566526"><ele>1815</ele><time>2026-08-15T20:46:50.000Z</time></trkpt>
        <trkpt lat="29.564969" lon="103.3566153"><ele>1816.23</ele><time>2026-08-15T20:47:06.000Z</time></trkpt>
        <trkpt lat="29.5648806" lon="103.3565617"><ele>1817.78</ele><time>2026-08-15T20:47:22.000Z</time></trkpt>
        <trkpt lat="29.5647996" lon="103.3564979"><ele>1821.66</ele><time>2026-08-15T20:47:38.000Z</time></trkpt>
        <trkpt lat="29.5647366" lon="103.3564175"><ele>1823.78</ele><time>2026-08-15T20:48:00.000Z</time></trkpt>
        <trkpt lat="29.5646577" lon="103.3563558"><ele>1825.82</ele><time>2026-08-15T20:48:12.000Z</time></trkpt>
        <trkpt lat="29.5645762" lon="103.3562966"><ele>1827.88</ele><time>2026-08-15T20:48:26.000Z</time></trkpt>
        <trkpt lat="29.5645752" lon="103.3561915"><ele>1830.08</ele><time>2026-08-15T20:48:42.000Z</time></trkpt>
        <trkpt lat="29.5645591" lon="103.3560869"><ele>1832.31</ele><time>2026-08-15T20:48:50.000Z</time></trkpt>
        <trkpt lat="29.5644944" lon="103.3560944"><ele>1833.59</ele><time>2026-08-15T20:49:38.000Z</time></trkpt>
        <trkpt lat="29.5644282" lon="103.3561667"><ele>1838.89</ele><time>2026-08-15T20:50:02.000Z</time></trkpt>
        <trkpt lat="29.5643423" lon="103.3561887"><ele>1843.79</ele><time>2026-08-15T20:50:20.000Z</time></trkpt>
        <trkpt lat="29.5643723" lon="103.3562525"><ele>1846.24</ele><time>2026-08-15T20:50:46.000Z</time></trkpt>
        <trkpt lat="29.5643555" lon="103.3563491"><ele>1851.33</ele><time>2026-08-15T20:51:12.000Z</time></trkpt>
        <trkpt lat="29.5643016" lon="103.3564318"><ele>1852.75</ele><time>2026-08-15T20:51:32.000Z</time></trkpt>
        <trkpt lat="29.5642152" lon="103.3564711"><ele>1856.52</ele><time>2026-08-15T20:52:28.000Z</time></trkpt>
        <trkpt lat="29.5641083" lon="103.3564748"><ele>1860.6</ele><time>2026-08-15T20:53:32.000Z</time></trkpt>
        <trkpt lat="29.5641018" lon="103.3563597"><ele>1863.89</ele><time>2026-08-15T20:54:04.000Z</time></trkpt>
        <trkpt lat="29.5640905" lon="103.3562551"><ele>1864.86</ele><time>2026-08-15T20:54:20.000Z</time></trkpt>
        <trkpt lat="29.5640721" lon="103.3561431"><ele>1865.39</ele><time>2026-08-15T20:54:38.000Z</time></trkpt>
        <trkpt lat="29.5640583" lon="103.3560336"><ele>1863.83</ele><time>2026-08-15T20:54:48.000Z</time></trkpt>
        <trkpt lat="29.5640276" lon="103.3559265"><ele>1863.31</ele><time>2026-08-15T20:55:02.000Z</time></trkpt>
        <trkpt lat="29.5640009" lon="103.3558201"><ele>1862.73</ele><time>2026-08-15T20:55:16.000Z</time></trkpt>
        <trkpt lat="29.563979" lon="103.3557033"><ele>1859.55</ele><time>2026-08-15T20:55:32.000Z</time></trkpt>
        <trkpt lat="29.5639628" lon="103.3555935"><ele>1857.23</ele><time>2026-08-15T20:55:44.000Z</time></trkpt>
        <trkpt lat="29.5639401" lon="103.3554764"><ele>1855.68</ele><time>2026-08-15T20:56:02.000Z</time></trkpt>
        <trkpt lat="29.5639244" lon="103.3553639"><ele>1852.83</ele><time>2026-08-15T20:56:14.000Z</time></trkpt>
        <trkpt lat="29.56391" lon="103.3552589"><ele>1850.36</ele><time>2026-08-15T20:56:26.000Z</time></trkpt>
        <trkpt lat="29.5638713" lon="103.3551664"><ele>1847.26</ele><time>2026-08-15T20:56:38.000Z</time></trkpt>
        <trkpt lat="29.5638081" lon="103.3550784"><ele>1845.22</ele><time>2026-08-15T20:56:50.000Z</time></trkpt>
        <trkpt lat="29.5637514" lon="103.35499"><ele>1843.51</ele><time>2026-08-15T20:57:00.000Z</time></trkpt>
        <trkpt lat="29.5636744" lon="103.3549234"><ele>1841.92</ele><time>2026-08-15T20:57:10.000Z</time></trkpt>
        <trkpt lat="29.5635896" lon="103.3548581"><ele>1840.25</ele><time>2026-08-15T20:57:20.000Z</time></trkpt>
        <trkpt lat="29.5635245" lon="103.3547763"><ele>1839.81</ele><time>2026-08-15T20:57:30.000Z</time></trkpt>
        <trkpt lat="29.5634908" lon="103.3546778"><ele>1839.57</ele><time>2026-08-15T20:57:40.000Z</time></trkpt>
        <trkpt lat="29.5634256" lon="103.3545911"><ele>1839.11</ele><time>2026-08-15T20:57:50.000Z</time></trkpt>
        <trkpt lat="29.5633574" lon="103.354513"><ele>1838.59</ele><time>2026-08-15T20:58:00.000Z</time></trkpt>
        <trkpt lat="29.5632941" lon="103.3544272"><ele>1838.68</ele><time>2026-08-15T20:58:10.000Z</time></trkpt>
        <trkpt lat="29.5632604" lon="103.3543144"><ele>1839.32</ele><time>2026-08-15T20:58:20.000Z</time></trkpt>
        <trkpt lat="29.563235" lon="103.3542023"><ele>1839.23</ele><time>2026-08-15T20:58:28.000Z</time></trkpt>
        <trkpt lat="29.563211" lon="103.3540985"><ele>1839.42</ele><time>2026-08-15T20:58:36.000Z</time></trkpt>
        <trkpt lat="29.5631705" lon="103.3539956"><ele>1839.63</ele><time>2026-08-15T20:58:48.000Z</time></trkpt>
        <trkpt lat="29.5631639" lon="103.3538812"><ele>1839.37</ele><time>2026-08-15T20:59:00.000Z</time></trkpt>
        <trkpt lat="29.5631389" lon="103.3537733"><ele>1837.07</ele><time>2026-08-15T20:59:08.000Z</time></trkpt>
        <trkpt lat="29.5630934" lon="103.35367"><ele>1835.82</ele><time>2026-08-15T20:59:18.000Z</time></trkpt>
        <trkpt lat="29.5630724" lon="103.3535672"><ele>1834.83</ele><time>2026-08-15T20:59:28.000Z</time></trkpt>
        <trkpt lat="29.5630676" lon="103.3535088"><ele>1835.5</ele><time>2026-08-15T20:59:34.000Z</time></trkpt>
        <trkpt lat="29.5631052" lon="103.3534313"><ele>1836.19</ele><time>2026-08-15T20:59:46.000Z</time></trkpt>
        <trkpt lat="29.5630902" lon="103.3533331"><ele>1836.8</ele><time>2026-08-15T20:59:58.000Z</time></trkpt>
        <trkpt lat="29.5630475" lon="103.3532335"><ele>1837.07</ele><time>2026-08-15T21:00:12.000Z</time></trkpt>
        <trkpt lat="29.5630106" lon="103.3531248"><ele>1835.32</ele><time>2026-08-15T21:00:28.000Z</time></trkpt>
        <trkpt lat="29.5629569" lon="103.3530235"><ele>1834.05</ele><time>2026-08-15T21:00:40.000Z</time></trkpt>
        <trkpt lat="29.5629382" lon="103.3529185"><ele>1833.3</ele><time>2026-08-15T21:00:48.000Z</time></trkpt>
        <trkpt lat="29.5629192" lon="103.3528132"><ele>1832.17</ele><time>2026-08-15T21:01:00.000Z</time></trkpt>
        <trkpt lat="29.5629017" lon="103.3527108"><ele>1829.86</ele><time>2026-08-15T21:01:12.000Z</time></trkpt>
        <trkpt lat="29.5629278" lon="103.3526145"><ele>1828.51</ele><time>2026-08-15T21:01:24.000Z</time></trkpt>
        <trkpt lat="29.5629922" lon="103.3525364"><ele>1827.61</ele><time>2026-08-15T21:01:40.000Z</time></trkpt>
        <trkpt lat="29.5630588" lon="103.3524551"><ele>1824.42</ele><time>2026-08-15T21:01:56.000Z</time></trkpt>
        <trkpt lat="29.5630965" lon="103.3524016"><ele>1821.04</ele><time>2026-08-15T21:02:10.000Z</time></trkpt>
        <trkpt lat="29.5631301" lon="103.3523131"><ele>1817.78</ele><time>2026-08-15T21:02:28.000Z</time></trkpt>
        <trkpt lat="29.5631253" lon="103.3522125"><ele>1814.74</ele><time>2026-08-15T21:02:40.000Z</time></trkpt>
        <trkpt lat="29.5630885" lon="103.3521031"><ele>1812.84</ele><time>2026-08-15T21:02:52.000Z</time></trkpt>
        <trkpt lat="29.563059" lon="103.3519927"><ele>1810.96</ele><time>2026-08-15T21:03:04.000Z</time></trkpt>
        <trkpt lat="29.5630345" lon="103.3518851"><ele>1810.01</ele><time>2026-08-15T21:03:14.000Z</time></trkpt>
        <trkpt lat="29.5630143" lon="103.3517765"><ele>1809.22</ele><time>2026-08-15T21:03:24.000Z</time></trkpt>
        <trkpt lat="29.5630042" lon="103.351657"><ele>1809.04</ele><time>2026-08-15T21:03:36.000Z</time></trkpt>
        <trkpt lat="29.5629766" lon="103.3515529"><ele>1807.04</ele><time>2026-08-15T21:03:46.000Z</time></trkpt>
        <trkpt lat="29.5629258" lon="103.3514646"><ele>1805.81</ele><time>2026-08-15T21:03:56.000Z</time></trkpt>
        <trkpt lat="29.5629367" lon="103.3513593"><ele>1806.02</ele><time>2026-08-15T21:04:08.000Z</time></trkpt>
        <trkpt lat="29.5629937" lon="103.3512732"><ele>1803.96</ele><time>2026-08-15T21:04:18.000Z</time></trkpt>
        <trkpt lat="29.5630286" lon="103.351172"><ele>1803.06</ele><time>2026-08-15T21:04:28.000Z</time></trkpt>
        <trkpt lat="29.5629881" lon="103.351081"><ele>1803.23</ele><time>2026-08-15T21:04:42.000Z</time></trkpt>
        <trkpt lat="29.5629502" lon="103.3509781"><ele>1801.96</ele><time>2026-08-15T21:04:56.000Z</time></trkpt>
        <trkpt lat="29.5629144" lon="103.3508649"><ele>1799.21</ele><time>2026-08-15T21:05:08.000Z</time></trkpt>
        <trkpt lat="29.5628439" lon="103.3507741"><ele>1796.55</ele><time>2026-08-15T21:05:28.000Z</time></trkpt>
        <trkpt lat="29.5628081" lon="103.3506593"><ele>1794.52</ele><time>2026-08-15T21:05:38.000Z</time></trkpt>
        <trkpt lat="29.5628021" lon="103.3505488"><ele>1794.64</ele><time>2026-08-15T21:05:46.000Z</time></trkpt>
        <trkpt lat="29.5628124" lon="103.3504295"><ele>1793.82</ele><time>2026-08-15T21:05:56.000Z</time></trkpt>
        <trkpt lat="29.562823" lon="103.3503202"><ele>1791.54</ele><time>2026-08-15T21:06:06.000Z</time></trkpt>
        <trkpt lat="29.5628576" lon="103.3502165"><ele>1790.02</ele><time>2026-08-15T21:06:14.000Z</time></trkpt>
        <trkpt lat="29.5628681" lon="103.3501059"><ele>1788.59</ele><time>2026-08-15T21:06:24.000Z</time></trkpt>
        <trkpt lat="29.5628894" lon="103.3499894"><ele>1785.78</ele><time>2026-08-15T21:06:34.000Z</time></trkpt>
        <trkpt lat="29.5628917" lon="103.3498675"><ele>1783.04</ele><time>2026-08-15T21:06:44.000Z</time></trkpt>
        <trkpt lat="29.5629055" lon="103.3497477"><ele>1782.01</ele><time>2026-08-15T21:06:54.000Z</time></trkpt>
        <trkpt lat="29.5629336" lon="103.3496275"><ele>1781.42</ele><time>2026-08-15T21:07:04.000Z</time></trkpt>
        <trkpt lat="29.5629786" lon="103.349531"><ele>1779.78</ele><time>2026-08-15T21:07:12.000Z</time></trkpt>
        <trkpt lat="29.5630472" lon="103.349439"><ele>1778.45</ele><time>2026-08-15T21:07:22.000Z</time></trkpt>
        <trkpt lat="29.5630868" lon="103.3493301"><ele>1778.91</ele><time>2026-08-15T21:07:32.000Z</time></trkpt>
        <trkpt lat="29.5631367" lon="103.3492222"><ele>1779.32</ele><time>2026-08-15T21:07:42.000Z</time></trkpt>
        <trkpt lat="29.5631783" lon="103.3491146"><ele>1779.56</ele><time>2026-08-15T21:07:52.000Z</time></trkpt>
        <trkpt lat="29.563183" lon="103.3489964"><ele>1780.44</ele><time>2026-08-15T21:08:04.000Z</time></trkpt>
        <trkpt lat="29.5632117" lon="103.3488878"><ele>1780.56</ele><time>2026-08-15T21:08:16.000Z</time></trkpt>
        <trkpt lat="29.5632171" lon="103.3487716"><ele>1781.78</ele><time>2026-08-15T21:08:28.000Z</time></trkpt>
        <trkpt lat="29.5632124" lon="103.3486468"><ele>1783.16</ele><time>2026-08-15T21:08:38.000Z</time></trkpt>
        <trkpt lat="29.5632134" lon="103.3485208"><ele>1784.46</ele><time>2026-08-15T21:08:48.000Z</time></trkpt>
        <trkpt lat="29.5632281" lon="103.3484117"><ele>1785.21</ele><time>2026-08-15T21:08:56.000Z</time></trkpt>
        <trkpt lat="29.5632633" lon="103.3483033"><ele>1786.02</ele><time>2026-08-15T21:09:06.000Z</time></trkpt>
        <trkpt lat="29.563324" lon="103.3482128"><ele>1786.41</ele><time>2026-08-15T21:09:16.000Z</time></trkpt>
        <trkpt lat="29.563374" lon="103.3481221"><ele>1787.62</ele><time>2026-08-15T21:09:26.000Z</time></trkpt>
        <trkpt lat="29.5634315" lon="103.3480193"><ele>1787.46</ele><time>2026-08-15T21:09:36.000Z</time></trkpt>
        <trkpt lat="29.5635063" lon="103.347928"><ele>1787.39</ele><time>2026-08-15T21:09:46.000Z</time></trkpt>
        <trkpt lat="29.5635502" lon="103.3478297"><ele>1787.2</ele><time>2026-08-15T21:09:54.000Z</time></trkpt>
        <trkpt lat="29.5635717" lon="103.3477263"><ele>1788.19</ele><time>2026-08-15T21:10:02.000Z</time></trkpt>
        <trkpt lat="29.5635583" lon="103.3476118"><ele>1788.42</ele><time>2026-08-15T21:10:16.000Z</time></trkpt>
        <trkpt lat="29.5635525" lon="103.3475039"><ele>1787.48</ele><time>2026-08-15T21:10:30.000Z</time></trkpt>
        <trkpt lat="29.563514" lon="103.3473969"><ele>1784.32</ele><time>2026-08-15T21:10:42.000Z</time></trkpt>
        <trkpt lat="29.5634487" lon="103.3473072"><ele>1781.47</ele><time>2026-08-15T21:10:54.000Z</time></trkpt>
        <trkpt lat="29.563367" lon="103.3472349"><ele>1780.7</ele><time>2026-08-15T21:11:06.000Z</time></trkpt>
        <trkpt lat="29.5632687" lon="103.3471863"><ele>1781.22</ele><time>2026-08-15T21:11:16.000Z</time></trkpt>
        <trkpt lat="29.5631826" lon="103.3471314"><ele>1782.39</ele><time>2026-08-15T21:11:24.000Z</time></trkpt>
        <trkpt lat="29.5631083" lon="103.347048"><ele>1783.25</ele><time>2026-08-15T21:11:34.000Z</time></trkpt>
        <trkpt lat="29.5630517" lon="103.3469572"><ele>1782.79</ele><time>2026-08-15T21:11:42.000Z</time></trkpt>
        <trkpt lat="29.56301" lon="103.3468461"><ele>1782.06</ele><time>2026-08-15T21:11:52.000Z</time></trkpt>
        <trkpt lat="29.5629504" lon="103.3467539"><ele>1781.55</ele><time>2026-08-15T21:12:04.000Z</time></trkpt>
        <trkpt lat="29.5628833" lon="103.3466756"><ele>1779.97</ele><time>2026-08-15T21:12:14.000Z</time></trkpt>
        <trkpt lat="29.5628185" lon="103.3465911"><ele>1779.36</ele><time>2026-08-15T21:12:24.000Z</time></trkpt>
        <trkpt lat="29.5627282" lon="103.3465311"><ele>1779.38</ele><time>2026-08-15T21:12:36.000Z</time></trkpt>
        <trkpt lat="29.5626371" lon="103.3464965"><ele>1778</ele><time>2026-08-15T21:12:44.000Z</time></trkpt>
        <trkpt lat="29.5625556" lon="103.3464437"><ele>1778.02</ele><time>2026-08-15T21:12:52.000Z</time></trkpt>
        <trkpt lat="29.5624713" lon="103.3463709"><ele>1776.73</ele><time>2026-08-15T21:13:02.000Z</time></trkpt>
        <trkpt lat="29.5623937" lon="103.3462854"><ele>1774.67</ele><time>2026-08-15T21:13:12.000Z</time></trkpt>
        <trkpt lat="29.5623325" lon="103.3462001"><ele>1772.64</ele><time>2026-08-15T21:13:20.000Z</time></trkpt>
        <trkpt lat="29.5622692" lon="103.3461009"><ele>1771.16</ele><time>2026-08-15T21:13:30.000Z</time></trkpt>
        <trkpt lat="29.5622224" lon="103.3460032"><ele>1770.38</ele><time>2026-08-15T21:13:38.000Z</time></trkpt>
        <trkpt lat="29.56221" lon="103.3459505"><ele>1769.67</ele><time>2026-08-15T21:13:42.000Z</time></trkpt>
        <trkpt lat="29.562198" lon="103.3458645"><ele>1769.34</ele><time>2026-08-15T21:13:54.000Z</time></trkpt>
        <trkpt lat="29.5621878" lon="103.3458164"><ele>1769.7</ele><time>2026-08-15T21:14:02.000Z</time></trkpt>
        <trkpt lat="29.562128" lon="103.3457408"><ele>1770.33</ele><time>2026-08-15T21:14:22.000Z</time></trkpt>
        <trkpt lat="29.5620504" lon="103.3456599"><ele>1770.13</ele><time>2026-08-15T21:14:34.000Z</time></trkpt>
        <trkpt lat="29.5619622" lon="103.3456103"><ele>1769.62</ele><time>2026-08-15T21:14:44.000Z</time></trkpt>
        <trkpt lat="29.5618677" lon="103.3456038"><ele>1769.96</ele><time>2026-08-15T21:14:54.000Z</time></trkpt>
        <trkpt lat="29.56177" lon="103.3456246"><ele>1769.77</ele><time>2026-08-15T21:15:04.000Z</time></trkpt>
        <trkpt lat="29.5616758" lon="103.3456344"><ele>1770.23</ele><time>2026-08-15T21:15:14.000Z</time></trkpt>
        <trkpt lat="29.5615933" lon="103.3455999"><ele>1771.31</ele><time>2026-08-15T21:15:24.000Z</time></trkpt>
        <trkpt lat="29.5615178" lon="103.3455267"><ele>1772.3</ele><time>2026-08-15T21:15:36.000Z</time></trkpt>
        <trkpt lat="29.5614594" lon="103.3454386"><ele>1772.08</ele><time>2026-08-15T21:15:44.000Z</time></trkpt>
        <trkpt lat="29.5614064" lon="103.3453466"><ele>1770.96</ele><time>2026-08-15T21:15:54.000Z</time></trkpt>
        <trkpt lat="29.5613593" lon="103.3452467"><ele>1771</ele><time>2026-08-15T21:16:12.000Z</time></trkpt>
        <trkpt lat="29.5612796" lon="103.3451954"><ele>1772.42</ele><time>2026-08-15T21:16:38.000Z</time></trkpt>
        <trkpt lat="29.5612331" lon="103.3451933"><ele>1775.03</ele><time>2026-08-15T21:16:46.000Z</time></trkpt>
        <trkpt lat="29.5611892" lon="103.3451312"><ele>1776.64</ele><time>2026-08-15T21:17:22.000Z</time></trkpt>
        <trkpt lat="29.5611307" lon="103.3450493"><ele>1778.69</ele><time>2026-08-15T21:18:22.000Z</time></trkpt>
        <trkpt lat="29.5610378" lon="103.3450437"><ele>1784.8</ele><time>2026-08-15T21:18:48.000Z</time></trkpt>
        <trkpt lat="29.5609509" lon="103.345078"><ele>1790.18</ele><time>2026-08-15T21:20:20.000Z</time></trkpt>
        <trkpt lat="29.5608651" lon="103.3450356"><ele>1799.13</ele><time>2026-08-15T21:20:58.000Z</time></trkpt>
        <trkpt lat="29.5608385" lon="103.344943"><ele>1806.2</ele><time>2026-08-15T21:21:42.000Z</time></trkpt>
        <trkpt lat="29.560764" lon="103.3449283"><ele>1813.12</ele><time>2026-08-15T21:22:20.000Z</time></trkpt>
        <trkpt lat="29.5607321" lon="103.3448525"><ele>1820.2</ele><time>2026-08-15T21:23:12.000Z</time></trkpt>
        <trkpt lat="29.5606844" lon="103.3447652"><ele>1825.52</ele><time>2026-08-15T21:23:52.000Z</time></trkpt>
        <trkpt lat="29.5606209" lon="103.3446761"><ele>1833.61</ele><time>2026-08-15T21:25:00.000Z</time></trkpt>
        <trkpt lat="29.5605314" lon="103.3446897"><ele>1839.12</ele><time>2026-08-15T21:25:26.000Z</time></trkpt>
        <trkpt lat="29.5604478" lon="103.3446478"><ele>1845.43</ele><time>2026-08-15T21:26:00.000Z</time></trkpt>
        <trkpt lat="29.5603628" lon="103.3446008"><ele>1850.84</ele><time>2026-08-15T21:26:42.000Z</time></trkpt>
        <trkpt lat="29.560279" lon="103.3445415"><ele>1856.6</ele><time>2026-08-15T21:27:18.000Z</time></trkpt>
        <trkpt lat="29.5602037" lon="103.3444774"><ele>1863.78</ele><time>2026-08-15T21:27:50.000Z</time></trkpt>
        <trkpt lat="29.5601312" lon="103.3444052"><ele>1869.25</ele><time>2026-08-15T21:28:30.000Z</time></trkpt>
        <trkpt lat="29.5601473" lon="103.3443142"><ele>1875.01</ele><time>2026-08-15T21:28:40.000Z</time></trkpt>
        <trkpt lat="29.5601245" lon="103.3442203"><ele>1877.43</ele><time>2026-08-15T21:29:10.000Z</time></trkpt>
        <trkpt lat="29.560064" lon="103.3442409"><ele>1881.37</ele><time>2026-08-15T21:29:40.000Z</time></trkpt>
        <trkpt lat="29.5600524" lon="103.3441731"><ele>1888.02</ele><time>2026-08-15T21:29:52.000Z</time></trkpt>
        <trkpt lat="29.5600805" lon="103.3440784"><ele>1890.76</ele><time>2026-08-15T21:30:08.000Z</time></trkpt>
        <trkpt lat="29.5600645" lon="103.3439952"><ele>1891.71</ele><time>2026-08-15T21:31:00.000Z</time></trkpt>
        <trkpt lat="29.5601041" lon="103.343912"><ele>1897.41</ele><time>2026-08-15T21:31:32.000Z</time></trkpt>
        <trkpt lat="29.5600211" lon="103.3438856"><ele>1899.62</ele><time>2026-08-15T21:32:36.000Z</time></trkpt>
        <trkpt lat="29.5599961" lon="103.3438632"><ele>1907.41</ele><time>2026-08-15T21:32:48.000Z</time></trkpt>
        <trkpt lat="29.5599285" lon="103.3438039"><ele>1912.45</ele><time>2026-08-15T21:33:42.000Z</time></trkpt>
        <trkpt lat="29.5598511" lon="103.3437407"><ele>1917.73</ele><time>2026-08-15T21:34:20.000Z</time></trkpt>
        <trkpt lat="29.5597822" lon="103.3436672"><ele>1923.39</ele><time>2026-08-15T21:34:46.000Z</time></trkpt>
        <trkpt lat="29.5597225" lon="103.3435688"><ele>1927.46</ele><time>2026-08-15T21:35:20.000Z</time></trkpt>
        <trkpt lat="29.55964" lon="103.3435418"><ele>1931.42</ele><time>2026-08-15T21:35:54.000Z</time></trkpt>
        <trkpt lat="29.5595414" lon="103.3435597"><ele>1935.13</ele><time>2026-08-15T21:36:36.000Z</time></trkpt>
        <trkpt lat="29.5594407" lon="103.34358"><ele>1940.86</ele><time>2026-08-15T21:37:36.000Z</time></trkpt>
        <trkpt lat="29.5593396" lon="103.3435958"><ele>1947.07</ele><time>2026-08-15T21:38:08.000Z</time></trkpt>
        <trkpt lat="29.5592881" lon="103.3436965"><ele>1952.65</ele><time>2026-08-15T21:39:12.000Z</time></trkpt>
        <trkpt lat="29.5592403" lon="103.343791"><ele>1960.82</ele><time>2026-08-15T21:39:36.000Z</time></trkpt>
        <trkpt lat="29.559159" lon="103.3438404"><ele>1967.03</ele><time>2026-08-15T21:39:54.000Z</time></trkpt>
        <trkpt lat="29.5591524" lon="103.3438504"><ele>1971.76</ele><time>2026-08-15T21:40:00.000Z</time></trkpt>
        <trkpt lat="29.5591237" lon="103.343778"><ele>1975.04</ele><time>2026-08-15T21:40:34.000Z</time></trkpt>
        <trkpt lat="29.5590726" lon="103.3436648"><ele>1980.34</ele><time>2026-08-15T21:41:00.000Z</time></trkpt>
        <trkpt lat="29.5590276" lon="103.3436653"><ele>1983.71</ele><time>2026-08-15T21:41:16.000Z</time></trkpt>
        <trkpt lat="29.558948" lon="103.3437204"><ele>1989.37</ele><time>2026-08-15T21:41:56.000Z</time></trkpt>
        <trkpt lat="29.5589073" lon="103.343783"><ele>1994.18</ele><time>2026-08-15T21:42:20.000Z</time></trkpt>
        <trkpt lat="29.5588871" lon="103.3438883"><ele>1997.69</ele><time>2026-08-15T21:43:06.000Z</time></trkpt>
        <trkpt lat="29.5589292" lon="103.343997"><ele>2001.11</ele><time>2026-08-15T21:43:18.000Z</time></trkpt>
        <trkpt lat="29.5589453" lon="103.3440508"><ele>2001.22</ele><time>2026-08-15T21:43:24.000Z</time></trkpt>
        <trkpt lat="29.5589116" lon="103.344133"><ele>2002.48</ele><time>2026-08-15T21:45:02.000Z</time></trkpt>
        <trkpt lat="29.5589001" lon="103.3442358"><ele>2006.01</ele><time>2026-08-15T21:45:30.000Z</time></trkpt>
        <trkpt lat="29.5588649" lon="103.3443388"><ele>2009.06</ele><time>2026-08-15T21:45:56.000Z</time></trkpt>
        <trkpt lat="29.5588084" lon="103.3443017"><ele>2012.98</ele><time>2026-08-15T21:46:12.000Z</time></trkpt>
        <trkpt lat="29.5587282" lon="103.3442512"><ele>2016.4</ele><time>2026-08-15T21:46:30.000Z</time></trkpt>
        <trkpt lat="29.5586316" lon="103.3442081"><ele>2019.38</ele><time>2026-08-15T21:47:22.000Z</time></trkpt>
        <trkpt lat="29.558535" lon="103.3441674"><ele>2021.16</ele><time>2026-08-15T21:48:12.000Z</time></trkpt>
        <trkpt lat="29.5584475" lon="103.3441221"><ele>2024.3</ele><time>2026-08-15T21:49:02.000Z</time></trkpt>
        <trkpt lat="29.5584514" lon="103.3440281"><ele>2028.14</ele><time>2026-08-15T21:49:14.000Z</time></trkpt>
        <trkpt lat="29.5584025" lon="103.3439579"><ele>2030.14</ele><time>2026-08-15T21:51:36.000Z</time></trkpt>
        <trkpt lat="29.5583361" lon="103.3438852"><ele>2031.96</ele><time>2026-08-15T21:51:50.000Z</time></trkpt>
        <trkpt lat="29.5584057" lon="103.3439523"><ele>2032.96</ele><time>2026-08-15T21:53:10.000Z</time></trkpt>
        <trkpt lat="29.5584601" lon="103.3440498"><ele>2033.61</ele><time>2026-08-15T21:53:20.000Z</time></trkpt>
        <trkpt lat="29.5584067" lon="103.344118"><ele>2032.96</ele><time>2026-08-15T21:53:44.000Z</time></trkpt>
        <trkpt lat="29.5583117" lon="103.3441223"><ele>2033.88</ele><time>2026-08-15T21:54:14.000Z</time></trkpt>
        <trkpt lat="29.5581902" lon="103.3441376"><ele>2034.69</ele><time>2026-08-15T21:54:32.000Z</time></trkpt>
        <trkpt lat="29.5580827" lon="103.3441859"><ele>2034.7</ele><time>2026-08-15T21:55:24.000Z</time></trkpt>
        <trkpt lat="29.5577434" lon="103.3440828"><ele>2031.9</ele><time>2026-08-15T21:55:32.000Z</time></trkpt>
        <trkpt lat="29.5575754" lon="103.3439841"><ele>2036.18</ele><time>2026-08-15T21:55:40.000Z</time></trkpt>
        <trkpt lat="29.557488" lon="103.3438844"><ele>2038.6</ele><time>2026-08-15T21:55:52.000Z</time></trkpt>
        <trkpt lat="29.5574615" lon="103.3437667"><ele>2038.32</ele><time>2026-08-15T21:56:00.000Z</time></trkpt>
        <trkpt lat="29.5574031" lon="103.3436913"><ele>2038.41</ele><time>2026-08-15T21:56:16.000Z</time></trkpt>
        <trkpt lat="29.5573254" lon="103.3436372"><ele>2035.9</ele><time>2026-08-15T21:56:30.000Z</time></trkpt>
        <trkpt lat="29.5572379" lon="103.3436089"><ele>2035.51</ele><time>2026-08-15T21:57:06.000Z</time></trkpt>
        <trkpt lat="29.5571507" lon="103.3435792"><ele>2038.34</ele><time>2026-08-15T21:57:40.000Z</time></trkpt>
        <trkpt lat="29.5570717" lon="103.3436558"><ele>2041.6</ele><time>2026-08-15T21:58:44.000Z</time></trkpt>
        <trkpt lat="29.5569826" lon="103.3436908"><ele>2043.73</ele><time>2026-08-15T21:59:18.000Z</time></trkpt>
        <trkpt lat="29.5569005" lon="103.343741"><ele>2047.84</ele><time>2026-08-15T21:59:32.000Z</time></trkpt>
        <trkpt lat="29.5568149" lon="103.3437834"><ele>2051.25</ele><time>2026-08-15T22:00:06.000Z</time></trkpt>
        <trkpt lat="29.5567312" lon="103.3437479"><ele>2054.61</ele><time>2026-08-15T22:00:32.000Z</time></trkpt>
        <trkpt lat="29.55665" lon="103.3437709"><ele>2058.23</ele><time>2026-08-15T22:00:58.000Z</time></trkpt>
        <trkpt lat="29.5565801" lon="103.3438334"><ele>2060.41</ele><time>2026-08-15T22:01:34.000Z</time></trkpt>
        <trkpt lat="29.5565551" lon="103.3439348"><ele>2063.5</ele><time>2026-08-15T22:02:14.000Z</time></trkpt>
        <trkpt lat="29.5565223" lon="103.344036"><ele>2066.06</ele><time>2026-08-15T22:02:56.000Z</time></trkpt>
        <trkpt lat="29.5565208" lon="103.3440814"><ele>2071.92</ele><time>2026-08-15T22:03:02.000Z</time></trkpt>
        <trkpt lat="29.5564791" lon="103.3441473"><ele>2075.51</ele><time>2026-08-15T22:03:42.000Z</time></trkpt>
        <trkpt lat="29.556414" lon="103.3442183"><ele>2079.5</ele><time>2026-08-15T22:04:10.000Z</time></trkpt>
        <trkpt lat="29.5563175" lon="103.3442546"><ele>2084.63</ele><time>2026-08-15T22:04:30.000Z</time></trkpt>
        <trkpt lat="29.5562274" lon="103.3442993"><ele>2089.51</ele><time>2026-08-15T22:04:58.000Z</time></trkpt>
        <trkpt lat="29.5561681" lon="103.3443792"><ele>2093.23</ele><time>2026-08-15T22:05:24.000Z</time></trkpt>
        <trkpt lat="29.5561119" lon="103.3444648"><ele>2096.94</ele><time>2026-08-15T22:05:46.000Z</time></trkpt>
        <trkpt lat="29.556054" lon="103.3445506"><ele>2100.08</ele><time>2026-08-15T22:06:08.000Z</time></trkpt>
        <trkpt lat="29.556" lon="103.3446405"><ele>2102.63</ele><time>2026-08-15T22:06:36.000Z</time></trkpt>
        <trkpt lat="29.5559448" lon="103.3447282"><ele>2104.9</ele><time>2026-08-15T22:07:00.000Z</time></trkpt>
        <trkpt lat="29.555905" lon="103.3448341"><ele>2107.16</ele><time>2026-08-15T22:07:34.000Z</time></trkpt>
        <trkpt lat="29.5558568" lon="103.3449408"><ele>2112.25</ele><time>2026-08-15T22:07:58.000Z</time></trkpt>
        <trkpt lat="29.5557779" lon="103.3450115"><ele>2117.17</ele><time>2026-08-15T22:08:18.000Z</time></trkpt>
        <trkpt lat="29.5556859" lon="103.3450181"><ele>2121.49</ele><time>2026-08-15T22:08:54.000Z</time></trkpt>
        <trkpt lat="29.555594" lon="103.3449804"><ele>2126.26</ele><time>2026-08-15T22:09:18.000Z</time></trkpt>
        <trkpt lat="29.5555228" lon="103.3450186"><ele>2130.31</ele><time>2026-08-15T22:10:02.000Z</time></trkpt>
        <trkpt lat="29.5554855" lon="103.3451082"><ele>2134.94</ele><time>2026-08-15T22:10:40.000Z</time></trkpt>
        <trkpt lat="29.55541" lon="103.3451502"><ele>2139.42</ele><time>2026-08-15T22:11:18.000Z</time></trkpt>
        <trkpt lat="29.5553526" lon="103.345089"><ele>2144.84</ele><time>2026-08-15T22:11:40.000Z</time></trkpt>
        <trkpt lat="29.5552888" lon="103.3450073"><ele>2149.1</ele><time>2026-08-15T22:12:02.000Z</time></trkpt>
        <trkpt lat="29.5552204" lon="103.3450393"><ele>2154.15</ele><time>2026-08-15T22:12:32.000Z</time></trkpt>
        <trkpt lat="29.555139" lon="103.3451014"><ele>2158.11</ele><time>2026-08-15T22:12:44.000Z</time></trkpt>
        <trkpt lat="29.5550511" lon="103.3451503"><ele>2161.05</ele><time>2026-08-15T22:12:56.000Z</time></trkpt>
        <trkpt lat="29.5549568" lon="103.3451868"><ele>2162.29</ele><time>2026-08-15T22:13:14.000Z</time></trkpt>
        <trkpt lat="29.5548601" lon="103.3451978"><ele>2164.97</ele><time>2026-08-15T22:13:30.000Z</time></trkpt>
        <trkpt lat="29.5547775" lon="103.3452388"><ele>2165.03</ele><time>2026-08-15T22:13:48.000Z</time></trkpt>
        <trkpt lat="29.5547072" lon="103.3453119"><ele>2165.53</ele><time>2026-08-15T22:14:22.000Z</time></trkpt>
        <trkpt lat="29.5546237" lon="103.3453587"><ele>2167.53</ele><time>2026-08-15T22:15:02.000Z</time></trkpt>
        <trkpt lat="29.5545589" lon="103.3453954"><ele>2174.29</ele><time>2026-08-15T22:15:22.000Z</time></trkpt>
        <trkpt lat="29.5544793" lon="103.3454286"><ele>2178.89</ele><time>2026-08-15T22:15:56.000Z</time></trkpt>
        <trkpt lat="29.5543902" lon="103.3454437"><ele>2183.79</ele><time>2026-08-15T22:16:36.000Z</time></trkpt>
        <trkpt lat="29.5542943" lon="103.3454482"><ele>2188.32</ele><time>2026-08-15T22:17:46.000Z</time></trkpt>
        <trkpt lat="29.5542044" lon="103.3454743"><ele>2192.01</ele><time>2026-08-15T22:18:20.000Z</time></trkpt>
        <trkpt lat="29.5541091" lon="103.3455019"><ele>2195.77</ele><time>2026-08-15T22:18:54.000Z</time></trkpt>
        <trkpt lat="29.5540148" lon="103.3455016"><ele>2200.01</ele><time>2026-08-15T22:19:22.000Z</time></trkpt>
        <trkpt lat="29.5539188" lon="103.3454681"><ele>2206.6</ele><time>2026-08-15T22:19:42.000Z</time></trkpt>
        <trkpt lat="29.553833" lon="103.3454104"><ele>2211.9</ele><time>2026-08-15T22:20:02.000Z</time></trkpt>
        <trkpt lat="29.5537475" lon="103.3453525"><ele>2214.97</ele><time>2026-08-15T22:20:22.000Z</time></trkpt>
        <trkpt lat="29.5536555" lon="103.3453315"><ele>2219.15</ele><time>2026-08-15T22:20:46.000Z</time></trkpt>
        <trkpt lat="29.5535603" lon="103.3453257"><ele>2222.87</ele><time>2026-08-15T22:21:06.000Z</time></trkpt>
        <trkpt lat="29.553468" lon="103.3453003"><ele>2226.54</ele><time>2026-08-15T22:21:22.000Z</time></trkpt>
        <trkpt lat="29.553365" lon="103.345293"><ele>2230.06</ele><time>2026-08-15T22:21:38.000Z</time></trkpt>
        <trkpt lat="29.5532717" lon="103.3453233"><ele>2232.52</ele><time>2026-08-15T22:21:56.000Z</time></trkpt>
        <trkpt lat="29.5531844" lon="103.3453603"><ele>2235.09</ele><time>2026-08-15T22:22:10.000Z</time></trkpt>
        <trkpt lat="29.5530952" lon="103.3453786"><ele>2235.89</ele><time>2026-08-15T22:22:20.000Z</time></trkpt>
        <trkpt lat="29.5530003" lon="103.3454065"><ele>2236.88</ele><time>2026-08-15T22:22:32.000Z</time></trkpt>
        <trkpt lat="29.5529027" lon="103.3454404"><ele>2238.67</ele><time>2026-08-15T22:22:44.000Z</time></trkpt>
        <trkpt lat="29.5528055" lon="103.3454524"><ele>2240.41</ele><time>2026-08-15T22:22:54.000Z</time></trkpt>
        <trkpt lat="29.5527032" lon="103.3454488"><ele>2241.51</ele><time>2026-08-15T22:23:06.000Z</time></trkpt>
        <trkpt lat="29.552599" lon="103.3454572"><ele>2242.54</ele><time>2026-08-15T22:23:18.000Z</time></trkpt>
        <trkpt lat="29.5524991" lon="103.3454578"><ele>2243.94</ele><time>2026-08-15T22:23:28.000Z</time></trkpt>
        <trkpt lat="29.552403" lon="103.3454233"><ele>2244.09</ele><time>2026-08-15T22:23:38.000Z</time></trkpt>
        <trkpt lat="29.5523963" lon="103.3453188"><ele>2245.62</ele><time>2026-08-15T22:23:48.000Z</time></trkpt>
        <trkpt lat="29.552352" lon="103.3452335"><ele>2244.63</ele><time>2026-08-15T22:24:12.000Z</time></trkpt>
        <trkpt lat="29.5522652" lon="103.3451794"><ele>2242.53</ele><time>2026-08-15T22:24:26.000Z</time></trkpt>
        <trkpt lat="29.5521602" lon="103.3451482"><ele>2241.23</ele><time>2026-08-15T22:24:38.000Z</time></trkpt>
        <trkpt lat="29.5520633" lon="103.3451058"><ele>2241.83</ele><time>2026-08-15T22:24:48.000Z</time></trkpt>
        <trkpt lat="29.5519899" lon="103.3450205"><ele>2241.6</ele><time>2026-08-15T22:25:00.000Z</time></trkpt>
        <trkpt lat="29.5519626" lon="103.3449108"><ele>2241.72</ele><time>2026-08-15T22:25:14.000Z</time></trkpt>
        <trkpt lat="29.5519221" lon="103.3448033"><ele>2240.64</ele><time>2026-08-15T22:25:28.000Z</time></trkpt>
        <trkpt lat="29.5518656" lon="103.3447139"><ele>2239.26</ele><time>2026-08-15T22:25:38.000Z</time></trkpt>
        <trkpt lat="29.5518018" lon="103.344628"><ele>2237.61</ele><time>2026-08-15T22:25:48.000Z</time></trkpt>
        <trkpt lat="29.5517506" lon="103.3445363"><ele>2237.12</ele><time>2026-08-15T22:26:00.000Z</time></trkpt>
        <trkpt lat="29.5516884" lon="103.3444517"><ele>2235.63</ele><time>2026-08-15T22:26:14.000Z</time></trkpt>
        <trkpt lat="29.5516208" lon="103.3443602"><ele>2235.72</ele><time>2026-08-15T22:26:26.000Z</time></trkpt>
        <trkpt lat="29.5515532" lon="103.3442809"><ele>2235.81</ele><time>2026-08-15T22:26:36.000Z</time></trkpt>
        <trkpt lat="29.5514684" lon="103.3442357"><ele>2236.72</ele><time>2026-08-15T22:26:48.000Z</time></trkpt>
        <trkpt lat="29.5513759" lon="103.344189"><ele>2237.24</ele><time>2026-08-15T22:26:58.000Z</time></trkpt>
        <trkpt lat="29.5512768" lon="103.3441716"><ele>2237.94</ele><time>2026-08-15T22:27:10.000Z</time></trkpt>
        <trkpt lat="29.5511802" lon="103.3441737"><ele>2238.76</ele><time>2026-08-15T22:27:20.000Z</time></trkpt>
        <trkpt lat="29.5510794" lon="103.3441798"><ele>2238.16</ele><time>2026-08-15T22:27:34.000Z</time></trkpt>
        <trkpt lat="29.5509881" lon="103.3441423"><ele>2236.06</ele><time>2026-08-15T22:27:46.000Z</time></trkpt>
        <trkpt lat="29.5508969" lon="103.3441411"><ele>2234.09</ele><time>2026-08-15T22:27:56.000Z</time></trkpt>
        <trkpt lat="29.5507988" lon="103.3441324"><ele>2232.7</ele><time>2026-08-15T22:28:08.000Z</time></trkpt>
        <trkpt lat="29.5507151" lon="103.3440747"><ele>2233.66</ele><time>2026-08-15T22:28:20.000Z</time></trkpt>
        <trkpt lat="29.5506418" lon="103.3439981"><ele>2231.89</ele><time>2026-08-15T22:28:42.000Z</time></trkpt>
        <trkpt lat="29.5505543" lon="103.3439359"><ele>2231.16</ele><time>2026-08-15T22:28:58.000Z</time></trkpt>
        <trkpt lat="29.5504933" lon="103.343854"><ele>2231.36</ele><time>2026-08-15T22:29:08.000Z</time></trkpt>
        <trkpt lat="29.5504362" lon="103.3437598"><ele>2231.75</ele><time>2026-08-15T22:29:20.000Z</time></trkpt>
        <trkpt lat="29.5503722" lon="103.3436765"><ele>2233.12</ele><time>2026-08-15T22:29:32.000Z</time></trkpt>
        <trkpt lat="29.5503183" lon="103.3435759"><ele>2232.68</ele><time>2026-08-15T22:29:44.000Z</time></trkpt>
        <trkpt lat="29.5502586" lon="103.3434793"><ele>2231.97</ele><time>2026-08-15T22:29:54.000Z</time></trkpt>
        <trkpt lat="29.5502081" lon="103.3433712"><ele>2232.39</ele><time>2026-08-15T22:30:04.000Z</time></trkpt>
        <trkpt lat="29.5501458" lon="103.3432794"><ele>2232.48</ele><time>2026-08-15T22:30:14.000Z</time></trkpt>
        <trkpt lat="29.5500738" lon="103.3432114"><ele>2232.28</ele><time>2026-08-15T22:30:24.000Z</time></trkpt>
        <trkpt lat="29.5499967" lon="103.3431415"><ele>2232.77</ele><time>2026-08-15T22:30:36.000Z</time></trkpt>
        <trkpt lat="29.5499392" lon="103.3430528"><ele>2232.21</ele><time>2026-08-15T22:30:46.000Z</time></trkpt>
        <trkpt lat="29.5498822" lon="103.3429651"><ele>2232.04</ele><time>2026-08-15T22:30:56.000Z</time></trkpt>
        <trkpt lat="29.5498384" lon="103.3428645"><ele>2233.2</ele><time>2026-08-15T22:31:06.000Z</time></trkpt>
        <trkpt lat="29.5497959" lon="103.3427575"><ele>2233.7</ele><time>2026-08-15T22:31:18.000Z</time></trkpt>
        <trkpt lat="29.5497365" lon="103.3426557"><ele>2234.08</ele><time>2026-08-15T22:31:30.000Z</time></trkpt>
        <trkpt lat="29.5496686" lon="103.3425662"><ele>2234.3</ele><time>2026-08-15T22:31:40.000Z</time></trkpt>
        <trkpt lat="29.5495957" lon="103.3424861"><ele>2236.21</ele><time>2026-08-15T22:31:50.000Z</time></trkpt>
        <trkpt lat="29.5495248" lon="103.3423979"><ele>2238.11</ele><time>2026-08-15T22:32:00.000Z</time></trkpt>
        <trkpt lat="29.5494514" lon="103.3423139"><ele>2239.34</ele><time>2026-08-15T22:32:10.000Z</time></trkpt>
        <trkpt lat="29.5493916" lon="103.3422186"><ele>2239.66</ele><time>2026-08-15T22:32:20.000Z</time></trkpt>
        <trkpt lat="29.5493484" lon="103.3421095"><ele>2239.14</ele><time>2026-08-15T22:32:32.000Z</time></trkpt>
        <trkpt lat="29.5493264" lon="103.3420027"><ele>2239.06</ele><time>2026-08-15T22:32:42.000Z</time></trkpt>
        <trkpt lat="29.5493091" lon="103.3418924"><ele>2238.89</ele><time>2026-08-15T22:32:54.000Z</time></trkpt>
        <trkpt lat="29.5492843" lon="103.3417899"><ele>2239.21</ele><time>2026-08-15T22:33:06.000Z</time></trkpt>
        <trkpt lat="29.5492499" lon="103.3416757"><ele>2239.19</ele><time>2026-08-15T22:33:18.000Z</time></trkpt>
        <trkpt lat="29.5492127" lon="103.3415741"><ele>2238.28</ele><time>2026-08-15T22:33:28.000Z</time></trkpt>
        <trkpt lat="29.5491989" lon="103.3414656"><ele>2238.1</ele><time>2026-08-15T22:33:42.000Z</time></trkpt>
        <trkpt lat="29.5491792" lon="103.341361"><ele>2237.18</ele><time>2026-08-15T22:34:04.000Z</time></trkpt>
        <trkpt lat="29.5491102" lon="103.3412951"><ele>2236.93</ele><time>2026-08-15T22:34:28.000Z</time></trkpt>
        <trkpt lat="29.5490478" lon="103.3412207"><ele>2236.69</ele><time>2026-08-15T22:34:50.000Z</time></trkpt>
        <trkpt lat="29.5489636" lon="103.3411859"><ele>2238.81</ele><time>2026-08-15T22:35:06.000Z</time></trkpt>
        <trkpt lat="29.548868" lon="103.3411569"><ele>2243.92</ele><time>2026-08-15T22:35:22.000Z</time></trkpt>
        <trkpt lat="29.5487747" lon="103.3411808"><ele>2247.57</ele><time>2026-08-15T22:35:48.000Z</time></trkpt>
        <trkpt lat="29.5486827" lon="103.3412148"><ele>2251.09</ele><time>2026-08-15T22:36:12.000Z</time></trkpt>
        <trkpt lat="29.5485863" lon="103.3412268"><ele>2253.19</ele><time>2026-08-15T22:36:38.000Z</time></trkpt>
        <trkpt lat="29.5484912" lon="103.3412434"><ele>2256.95</ele><time>2026-08-15T22:37:10.000Z</time></trkpt>
        <trkpt lat="29.5484078" lon="103.3412913"><ele>2260.07</ele><time>2026-08-15T22:37:40.000Z</time></trkpt>
        <trkpt lat="29.5483192" lon="103.3413101"><ele>2261.97</ele><time>2026-08-15T22:38:02.000Z</time></trkpt>
        <trkpt lat="29.5482382" lon="103.3412741"><ele>2264.82</ele><time>2026-08-15T22:38:30.000Z</time></trkpt>
        <trkpt lat="29.5481493" lon="103.3412518"><ele>2268.39</ele><time>2026-08-15T22:39:00.000Z</time></trkpt>
        <trkpt lat="29.5480577" lon="103.3412382"><ele>2272.93</ele><time>2026-08-15T22:39:16.000Z</time></trkpt>
        <trkpt lat="29.5479644" lon="103.3412566"><ele>2278.59</ele><time>2026-08-15T22:40:28.000Z</time></trkpt>
        <trkpt lat="29.5478694" lon="103.341202"><ele>2283.83</ele><time>2026-08-15T22:40:40.000Z</time></trkpt>
        <trkpt lat="29.5477732" lon="103.3411737"><ele>2287.77</ele><time>2026-08-15T22:40:56.000Z</time></trkpt>
        <trkpt lat="29.5476765" lon="103.3411372"><ele>2291.79</ele><time>2026-08-15T22:41:12.000Z</time></trkpt>
        <trkpt lat="29.5475859" lon="103.3411041"><ele>2294.55</ele><time>2026-08-15T22:41:26.000Z</time></trkpt>
        <trkpt lat="29.5474943" lon="103.3410938"><ele>2293.69</ele><time>2026-08-15T22:41:44.000Z</time></trkpt>
        <trkpt lat="29.5474038" lon="103.3410689"><ele>2295.11</ele><time>2026-08-15T22:42:04.000Z</time></trkpt>
        <trkpt lat="29.5473186" lon="103.3410322"><ele>2295.62</ele><time>2026-08-15T22:42:32.000Z</time></trkpt>
        <trkpt lat="29.5472935" lon="103.3409351"><ele>2294.82</ele><time>2026-08-15T22:42:46.000Z</time></trkpt>
        <trkpt lat="29.5472934" lon="103.3409043"><ele>2293.74</ele><time>2026-08-15T22:42:48.000Z</time></trkpt>
        <trkpt lat="29.5472978" lon="103.3407958"><ele>2293.09</ele><time>2026-08-15T22:44:12.000Z</time></trkpt>
        <trkpt lat="29.5473178" lon="103.340694"><ele>2295.36</ele><time>2026-08-15T22:51:28.000Z</time></trkpt>
        <trkpt lat="29.5473067" lon="103.3405798"><ele>2300.32</ele><time>2026-08-15T22:51:46.000Z</time></trkpt>
        <trkpt lat="29.5472546" lon="103.3404927"><ele>2305.65</ele><time>2026-08-15T22:51:58.000Z</time></trkpt>
        <trkpt lat="29.5471867" lon="103.340431"><ele>2311.28</ele><time>2026-08-15T22:52:14.000Z</time></trkpt>
        <trkpt lat="29.5471227" lon="103.3403453"><ele>2313.87</ele><time>2026-08-15T22:52:42.000Z</time></trkpt>
        <trkpt lat="29.547173" lon="103.3403095"><ele>2315.5</ele><time>2026-08-15T22:52:58.000Z</time></trkpt>
        <trkpt lat="29.547128" lon="103.3402623"><ele>2316.15</ele><time>2026-08-15T22:53:18.000Z</time></trkpt>
        <trkpt lat="29.5471283" lon="103.3402478"><ele>2318.72</ele><time>2026-08-15T22:53:26.000Z</time></trkpt>
        <trkpt lat="29.547103" lon="103.3401741"><ele>2322.62</ele><time>2026-08-15T22:54:04.000Z</time></trkpt>
        <trkpt lat="29.5470796" lon="103.3401412"><ele>2325.27</ele><time>2026-08-15T22:54:08.000Z</time></trkpt>
        <trkpt lat="29.5470795" lon="103.3400562"><ele>2327.02</ele><time>2026-08-15T22:54:44.000Z</time></trkpt>
        <trkpt lat="29.5470555" lon="103.3399554"><ele>2330.24</ele><time>2026-08-15T22:55:18.000Z</time></trkpt>
        <trkpt lat="29.5470675" lon="103.3398356"><ele>2334.33</ele><time>2026-08-15T22:55:44.000Z</time></trkpt>
        <trkpt lat="29.5470435" lon="103.3397302"><ele>2337.91</ele><time>2026-08-15T22:56:06.000Z</time></trkpt>
        <trkpt lat="29.5469743" lon="103.3396607"><ele>2340.3</ele><time>2026-08-15T22:56:46.000Z</time></trkpt>
        <trkpt lat="29.5469066" lon="103.339586"><ele>2343.81</ele><time>2026-08-15T22:57:12.000Z</time></trkpt>
        <trkpt lat="29.5468702" lon="103.3394909"><ele>2346.73</ele><time>2026-08-15T22:57:54.000Z</time></trkpt>
        <trkpt lat="29.5468318" lon="103.3393863"><ele>2353.4</ele><time>2026-08-15T22:58:22.000Z</time></trkpt>
        <trkpt lat="29.5467732" lon="103.3392999"><ele>2355.87</ele><time>2026-08-15T22:59:18.000Z</time></trkpt>
        <trkpt lat="29.5467195" lon="103.3392101"><ele>2362.1</ele><time>2026-08-15T22:59:42.000Z</time></trkpt>
        <trkpt lat="29.546654" lon="103.3391368"><ele>2366.08</ele><time>2026-08-15T23:00:24.000Z</time></trkpt>
        <trkpt lat="29.5465848" lon="103.3390546"><ele>2372.9</ele><time>2026-08-15T23:00:54.000Z</time></trkpt>
        <trkpt lat="29.5465297" lon="103.3389634"><ele>2378.04</ele><time>2026-08-15T23:01:14.000Z</time></trkpt>
        <trkpt lat="29.5464745" lon="103.3388746"><ele>2381.29</ele><time>2026-08-15T23:01:34.000Z</time></trkpt>
        <trkpt lat="29.5464117" lon="103.3387962"><ele>2383.37</ele><time>2026-08-15T23:02:12.000Z</time></trkpt>
        <trkpt lat="29.5463233" lon="103.3387446"><ele>2387.71</ele><time>2026-08-15T23:02:48.000Z</time></trkpt>
        <trkpt lat="29.5462873" lon="103.3386564"><ele>2390.29</ele><time>2026-08-15T23:03:04.000Z</time></trkpt>
        <trkpt lat="29.5462443" lon="103.3385679"><ele>2392.21</ele><time>2026-08-15T23:03:32.000Z</time></trkpt>
        <trkpt lat="29.546204" lon="103.3384721"><ele>2396.39</ele><time>2026-08-15T23:03:58.000Z</time></trkpt>
        <trkpt lat="29.5461617" lon="103.3383792"><ele>2401.41</ele><time>2026-08-15T23:04:12.000Z</time></trkpt>
        <trkpt lat="29.5461625" lon="103.3382748"><ele>2402.75</ele><time>2026-08-15T23:04:28.000Z</time></trkpt>
        <trkpt lat="29.546193" lon="103.3381738"><ele>2402.97</ele><time>2026-08-15T23:05:12.000Z</time></trkpt>
        <trkpt lat="29.5462176" lon="103.3380652"><ele>2406.78</ele><time>2026-08-15T23:05:34.000Z</time></trkpt>
        <trkpt lat="29.5462577" lon="103.337965"><ele>2410.77</ele><time>2026-08-15T23:05:46.000Z</time></trkpt>
        <trkpt lat="29.5463255" lon="103.3378913"><ele>2415.46</ele><time>2026-08-15T23:05:56.000Z</time></trkpt>
        <trkpt lat="29.5463848" lon="103.3377997"><ele>2419.01</ele><time>2026-08-15T23:06:08.000Z</time></trkpt>
        <trkpt lat="29.546431" lon="103.337706"><ele>2420.65</ele><time>2026-08-15T23:06:18.000Z</time></trkpt>
        <trkpt lat="29.546449" lon="103.3375918"><ele>2421.96</ele><time>2026-08-15T23:06:34.000Z</time></trkpt>
        <trkpt lat="29.5464822" lon="103.3374772"><ele>2422.54</ele><time>2026-08-15T23:06:46.000Z</time></trkpt>
        <trkpt lat="29.5465467" lon="103.3373932"><ele>2422.25</ele><time>2026-08-15T23:06:54.000Z</time></trkpt>
        <trkpt lat="29.5465839" lon="103.3372924"><ele>2423.06</ele><time>2026-08-15T23:07:06.000Z</time></trkpt>
        <trkpt lat="29.5466071" lon="103.3371778"><ele>2423.06</ele><time>2026-08-15T23:07:18.000Z</time></trkpt>
        <trkpt lat="29.5466066" lon="103.3370588"><ele>2422.6</ele><time>2026-08-15T23:07:30.000Z</time></trkpt>
        <trkpt lat="29.5465089" lon="103.3370043"><ele>2422.42</ele><time>2026-08-15T23:10:34.000Z</time></trkpt>
        <trkpt lat="29.5464609" lon="103.3369075"><ele>2424.17</ele><time>2026-08-15T23:10:44.000Z</time></trkpt>
        <trkpt lat="29.5464056" lon="103.3368163"><ele>2424.58</ele><time>2026-08-15T23:10:54.000Z</time></trkpt>
        <trkpt lat="29.5464012" lon="103.3367149"><ele>2425.45</ele><time>2026-08-15T23:11:04.000Z</time></trkpt>
        <trkpt lat="29.546376" lon="103.3366183"><ele>2425.3</ele><time>2026-08-15T23:11:16.000Z</time></trkpt>
        <trkpt lat="29.5463962" lon="103.3365155"><ele>2425.4</ele><time>2026-08-15T23:11:26.000Z</time></trkpt>
        <trkpt lat="29.5464757" lon="103.3364695"><ele>2424.74</ele><time>2026-08-15T23:11:36.000Z</time></trkpt>
        <trkpt lat="29.546501" lon="103.3363838"><ele>2422.14</ele><time>2026-08-15T23:11:50.000Z</time></trkpt>
        <trkpt lat="29.5464937" lon="103.3363047"><ele>2420.8</ele><time>2026-08-15T23:12:04.000Z</time></trkpt>
        <trkpt lat="29.5465301" lon="103.3362048"><ele>2416.18</ele><time>2026-08-15T23:12:34.000Z</time></trkpt>
        <trkpt lat="29.5465525" lon="103.3360898"><ele>2413.75</ele><time>2026-08-15T23:12:42.000Z</time></trkpt>
        <trkpt lat="29.5465566" lon="103.3359639"><ele>2413.39</ele><time>2026-08-15T23:12:52.000Z</time></trkpt>
        <trkpt lat="29.5465712" lon="103.3358384"><ele>2414.02</ele><time>2026-08-15T23:12:58.000Z</time></trkpt>
        <trkpt lat="29.5466142" lon="103.3357425"><ele>2411.07</ele><time>2026-08-15T23:13:04.000Z</time></trkpt>
        <trkpt lat="29.5466607" lon="103.3356486"><ele>2409.66</ele><time>2026-08-15T23:13:16.000Z</time></trkpt>
        <trkpt lat="29.5466984" lon="103.335544"><ele>2410.5</ele><time>2026-08-15T23:13:24.000Z</time></trkpt>
        <trkpt lat="29.5467061" lon="103.335433"><ele>2407.92</ele><time>2026-08-15T23:13:34.000Z</time></trkpt>
        <trkpt lat="29.5467228" lon="103.3353292"><ele>2406.38</ele><time>2026-08-15T23:13:48.000Z</time></trkpt>
        <trkpt lat="29.5467484" lon="103.3352302"><ele>2404.91</ele><time>2026-08-15T23:14:00.000Z</time></trkpt>
        <trkpt lat="29.5467319" lon="103.3351165"><ele>2403.7</ele><time>2026-08-15T23:14:14.000Z</time></trkpt>
        <trkpt lat="29.5466938" lon="103.3350066"><ele>2402.87</ele><time>2026-08-15T23:14:26.000Z</time></trkpt>
        <trkpt lat="29.5466073" lon="103.3349529"><ele>2401.66</ele><time>2026-08-15T23:14:42.000Z</time></trkpt>
        <trkpt lat="29.5465209" lon="103.3348877"><ele>2401.59</ele><time>2026-08-15T23:14:54.000Z</time></trkpt>
        <trkpt lat="29.5464293" lon="103.3348518"><ele>2397.67</ele><time>2026-08-15T23:15:06.000Z</time></trkpt>
        <trkpt lat="29.5463419" lon="103.3348065"><ele>2395.1</ele><time>2026-08-15T23:15:42.000Z</time></trkpt>
        <trkpt lat="29.5462569" lon="103.3347664"><ele>2395.4</ele><time>2026-08-15T23:16:04.000Z</time></trkpt>
        <trkpt lat="29.5461704" lon="103.3347946"><ele>2396.85</ele><time>2026-08-15T23:16:18.000Z</time></trkpt>
        <trkpt lat="29.5460765" lon="103.3347888"><ele>2397.74</ele><time>2026-08-15T23:16:30.000Z</time></trkpt>
        <trkpt lat="29.5459781" lon="103.3347648"><ele>2398.53</ele><time>2026-08-15T23:16:40.000Z</time></trkpt>
        <trkpt lat="29.5458715" lon="103.3347214"><ele>2399.53</ele><time>2026-08-15T23:16:56.000Z</time></trkpt>
        <trkpt lat="29.5457946" lon="103.3346439"><ele>2399.31</ele><time>2026-08-15T23:17:04.000Z</time></trkpt>
        <trkpt lat="29.5457339" lon="103.3345463"><ele>2400.23</ele><time>2026-08-15T23:17:18.000Z</time></trkpt>
        <trkpt lat="29.5456509" lon="103.3345165"><ele>2397.98</ele><time>2026-08-15T23:17:28.000Z</time></trkpt>
        <trkpt lat="29.5455631" lon="103.3344794"><ele>2397.4</ele><time>2026-08-15T23:17:36.000Z</time></trkpt>
        <trkpt lat="29.5454914" lon="103.334438"><ele>2395.5</ele><time>2026-08-15T23:17:52.000Z</time></trkpt>
        <trkpt lat="29.5454103" lon="103.3343873"><ele>2395.55</ele><time>2026-08-15T23:18:10.000Z</time></trkpt>
        <trkpt lat="29.5453332" lon="103.33433"><ele>2395.35</ele><time>2026-08-15T23:18:20.000Z</time></trkpt>
        <trkpt lat="29.5452571" lon="103.3342708"><ele>2396.46</ele><time>2026-08-15T23:18:32.000Z</time></trkpt>
        <trkpt lat="29.5451782" lon="103.3341908"><ele>2398.17</ele><time>2026-08-15T23:18:42.000Z</time></trkpt>
        <trkpt lat="29.5451007" lon="103.3341167"><ele>2397.73</ele><time>2026-08-15T23:19:00.000Z</time></trkpt>
        <trkpt lat="29.5450162" lon="103.3340556"><ele>2398.18</ele><time>2026-08-15T23:19:12.000Z</time></trkpt>
        <trkpt lat="29.5449168" lon="103.3340432"><ele>2397.1</ele><time>2026-08-15T23:19:24.000Z</time></trkpt>
        <trkpt lat="29.544818" lon="103.3340855"><ele>2395.1</ele><time>2026-08-15T23:19:34.000Z</time></trkpt>
        <trkpt lat="29.544759" lon="103.3341779"><ele>2393.22</ele><time>2026-08-15T23:19:44.000Z</time></trkpt>
        <trkpt lat="29.5446768" lon="103.3342435"><ele>2393.65</ele><time>2026-08-15T23:19:58.000Z</time></trkpt>
        <trkpt lat="29.5445866" lon="103.3342508"><ele>2392.41</ele><time>2026-08-15T23:20:06.000Z</time></trkpt>
        <trkpt lat="29.5444943" lon="103.3342554"><ele>2393.03</ele><time>2026-08-15T23:20:18.000Z</time></trkpt>
        <trkpt lat="29.5443853" lon="103.3342336"><ele>2393.43</ele><time>2026-08-15T23:20:28.000Z</time></trkpt>
        <trkpt lat="29.54429" lon="103.3341933"><ele>2392.57</ele><time>2026-08-15T23:20:38.000Z</time></trkpt>
        <trkpt lat="29.5441949" lon="103.3341808"><ele>2394.32</ele><time>2026-08-15T23:20:48.000Z</time></trkpt>
        <trkpt lat="29.5440892" lon="103.3341455"><ele>2396.55</ele><time>2026-08-15T23:20:56.000Z</time></trkpt>
        <trkpt lat="29.5439909" lon="103.3340963"><ele>2395.51</ele><time>2026-08-15T23:21:04.000Z</time></trkpt>
        <trkpt lat="29.543922" lon="103.3340095"><ele>2395.45</ele><time>2026-08-15T23:21:14.000Z</time></trkpt>
        <trkpt lat="29.5438271" lon="103.3339643"><ele>2394.7</ele><time>2026-08-15T23:21:30.000Z</time></trkpt>
        <trkpt lat="29.5437293" lon="103.333935"><ele>2394.5</ele><time>2026-08-15T23:21:38.000Z</time></trkpt>
        <trkpt lat="29.5436328" lon="103.3338837"><ele>2393.66</ele><time>2026-08-15T23:21:52.000Z</time></trkpt>
        <trkpt lat="29.5435527" lon="103.333821"><ele>2393.8</ele><time>2026-08-15T23:22:02.000Z</time></trkpt>
        <trkpt lat="29.5434784" lon="103.3337382"><ele>2393.69</ele><time>2026-08-15T23:22:24.000Z</time></trkpt>
        <trkpt lat="29.5434053" lon="103.3336675"><ele>2393.41</ele><time>2026-08-15T23:22:36.000Z</time></trkpt>
        <trkpt lat="29.5433668" lon="103.3335712"><ele>2393.16</ele><time>2026-08-15T23:22:46.000Z</time></trkpt>
        <trkpt lat="29.5433614" lon="103.3335267"><ele>2392.48</ele><time>2026-08-15T23:22:50.000Z</time></trkpt>
        <trkpt lat="29.5433441" lon="103.3334432"><ele>2391.83</ele><time>2026-08-15T23:23:00.000Z</time></trkpt>
        <trkpt lat="29.543304" lon="103.3333325"><ele>2390.45</ele><time>2026-08-15T23:23:10.000Z</time></trkpt>
        <trkpt lat="29.5432598" lon="103.3332261"><ele>2388.89</ele><time>2026-08-15T23:23:24.000Z</time></trkpt>
        <trkpt lat="29.5432592" lon="103.3331842"><ele>2389.63</ele><time>2026-08-15T23:23:30.000Z</time></trkpt>
        <trkpt lat="29.543227" lon="103.3331122"><ele>2389.08</ele><time>2026-08-15T23:23:58.000Z</time></trkpt>
        <trkpt lat="29.5431612" lon="103.3330316"><ele>2389.19</ele><time>2026-08-15T23:24:18.000Z</time></trkpt>
        <trkpt lat="29.5430718" lon="103.3329747"><ele>2388.71</ele><time>2026-08-15T23:24:28.000Z</time></trkpt>
        <trkpt lat="29.5429762" lon="103.3329663"><ele>2389.5</ele><time>2026-08-15T23:24:38.000Z</time></trkpt>
        <trkpt lat="29.54288" lon="103.3329402"><ele>2390.27</ele><time>2026-08-15T23:24:50.000Z</time></trkpt>
        <trkpt lat="29.5428226" lon="103.3329514"><ele>2390.73</ele><time>2026-08-15T23:25:00.000Z</time></trkpt>
        <trkpt lat="29.542801" lon="103.3328773"><ele>2391.76</ele><time>2026-08-15T23:25:24.000Z</time></trkpt>
        <trkpt lat="29.5427652" lon="103.3327708"><ele>2392.95</ele><time>2026-08-15T23:25:36.000Z</time></trkpt>
        <trkpt lat="29.5427023" lon="103.3326887"><ele>2392.5</ele><time>2026-08-15T23:25:48.000Z</time></trkpt>
        <trkpt lat="29.5426085" lon="103.3326345"><ele>2391.56</ele><time>2026-08-15T23:25:58.000Z</time></trkpt>
        <trkpt lat="29.542543" lon="103.3325568"><ele>2391.01</ele><time>2026-08-15T23:26:08.000Z</time></trkpt>
        <trkpt lat="29.542525" lon="103.3324558"><ele>2391.11</ele><time>2026-08-15T23:26:18.000Z</time></trkpt>
        <trkpt lat="29.5424838" lon="103.3323668"><ele>2391.4</ele><time>2026-08-15T23:26:28.000Z</time></trkpt>
        <trkpt lat="29.542435" lon="103.3322807"><ele>2391.94</ele><time>2026-08-15T23:26:38.000Z</time></trkpt>
        <trkpt lat="29.5423826" lon="103.3321773"><ele>2392.18</ele><time>2026-08-15T23:26:48.000Z</time></trkpt>
        <trkpt lat="29.5423055" lon="103.3321098"><ele>2392.75</ele><time>2026-08-15T23:26:56.000Z</time></trkpt>
        <trkpt lat="29.5422501" lon="103.3320273"><ele>2393.26</ele><time>2026-08-15T23:27:06.000Z</time></trkpt>
        <trkpt lat="29.5421664" lon="103.3320009"><ele>2394.23</ele><time>2026-08-15T23:27:44.000Z</time></trkpt>
        <trkpt lat="29.5420762" lon="103.3320148"><ele>2393.51</ele><time>2026-08-15T23:27:58.000Z</time></trkpt>
        <trkpt lat="29.5420133" lon="103.3320973"><ele>2391.37</ele><time>2026-08-15T23:28:10.000Z</time></trkpt>
        <trkpt lat="29.5419216" lon="103.3321029"><ele>2388.95</ele><time>2026-08-15T23:28:20.000Z</time></trkpt>
        <trkpt lat="29.5418184" lon="103.3320929"><ele>2388.98</ele><time>2026-08-15T23:28:32.000Z</time></trkpt>
        <trkpt lat="29.5417207" lon="103.3320785"><ele>2388.08</ele><time>2026-08-15T23:28:42.000Z</time></trkpt>
        <trkpt lat="29.5416941" lon="103.3319811"><ele>2386.67</ele><time>2026-08-15T23:28:52.000Z</time></trkpt>
        <trkpt lat="29.5417372" lon="103.3318757"><ele>2385.58</ele><time>2026-08-15T23:29:02.000Z</time></trkpt>
        <trkpt lat="29.5417669" lon="103.3317635"><ele>2383.17</ele><time>2026-08-15T23:29:12.000Z</time></trkpt>
        <trkpt lat="29.5417089" lon="103.3317042"><ele>2382.79</ele><time>2026-08-15T23:29:34.000Z</time></trkpt>
        <trkpt lat="29.5416127" lon="103.3316944"><ele>2382.67</ele><time>2026-08-15T23:29:50.000Z</time></trkpt>
        <trkpt lat="29.541511" lon="103.3317217"><ele>2381.75</ele><time>2026-08-15T23:30:06.000Z</time></trkpt>
        <trkpt lat="29.5414103" lon="103.3317682"><ele>2381.9</ele><time>2026-08-15T23:30:20.000Z</time></trkpt>
        <trkpt lat="29.5413085" lon="103.3318093"><ele>2382.43</ele><time>2026-08-15T23:30:34.000Z</time></trkpt>
        <trkpt lat="29.5412026" lon="103.3318179"><ele>2383.55</ele><time>2026-08-15T23:30:48.000Z</time></trkpt>
        <trkpt lat="29.5410883" lon="103.3317886"><ele>2386.35</ele><time>2026-08-15T23:32:52.000Z</time></trkpt>
        <trkpt lat="29.5409985" lon="103.3318062"><ele>2390.03</ele><time>2026-08-15T23:33:12.000Z</time></trkpt>
        <trkpt lat="29.5409099" lon="103.3317918"><ele>2391.3</ele><time>2026-08-15T23:33:22.000Z</time></trkpt>
        <trkpt lat="29.5408214" lon="103.3317617"><ele>2393.58</ele><time>2026-08-15T23:33:32.000Z</time></trkpt>
        <trkpt lat="29.5407282" lon="103.3317495"><ele>2394.32</ele><time>2026-08-15T23:33:44.000Z</time></trkpt>
        <trkpt lat="29.5406314" lon="103.3317869"><ele>2395.29</ele><time>2026-08-15T23:33:56.000Z</time></trkpt>
        <trkpt lat="29.5405458" lon="103.3318519"><ele>2396.01</ele><time>2026-08-15T23:34:08.000Z</time></trkpt>
        <trkpt lat="29.5404523" lon="103.331908"><ele>2396.5</ele><time>2026-08-15T23:34:18.000Z</time></trkpt>
        <trkpt lat="29.5403651" lon="103.3319525"><ele>2396.77</ele><time>2026-08-15T23:34:26.000Z</time></trkpt>
        <trkpt lat="29.5402857" lon="103.3320091"><ele>2397.62</ele><time>2026-08-15T23:34:34.000Z</time></trkpt>
        <trkpt lat="29.5402608" lon="103.3320734"><ele>2398.18</ele><time>2026-08-15T23:34:46.000Z</time></trkpt>
        <trkpt lat="29.5402032" lon="103.332146"><ele>2397.47</ele><time>2026-08-15T23:34:58.000Z</time></trkpt>
        <trkpt lat="29.5401093" lon="103.3321891"><ele>2396.46</ele><time>2026-08-15T23:35:10.000Z</time></trkpt>
        <trkpt lat="29.5400122" lon="103.3322265"><ele>2397.39</ele><time>2026-08-15T23:35:22.000Z</time></trkpt>
        <trkpt lat="29.5399227" lon="103.33227"><ele>2397.58</ele><time>2026-08-15T23:35:32.000Z</time></trkpt>
        <trkpt lat="29.5398375" lon="103.3323174"><ele>2397.6</ele><time>2026-08-15T23:35:42.000Z</time></trkpt>
        <trkpt lat="29.5397515" lon="103.3323675"><ele>2397.06</ele><time>2026-08-15T23:35:52.000Z</time></trkpt>
        <trkpt lat="29.5396661" lon="103.3324109"><ele>2395.83</ele><time>2026-08-15T23:36:02.000Z</time></trkpt>
        <trkpt lat="29.5395779" lon="103.3324536"><ele>2396</ele><time>2026-08-15T23:36:14.000Z</time></trkpt>
        <trkpt lat="29.5395017" lon="103.3325125"><ele>2395.22</ele><time>2026-08-15T23:36:30.000Z</time></trkpt>
        <trkpt lat="29.5394311" lon="103.3325791"><ele>2394.04</ele><time>2026-08-15T23:36:52.000Z</time></trkpt>
        <trkpt lat="29.5393663" lon="103.3326538"><ele>2394.72</ele><time>2026-08-15T23:37:10.000Z</time></trkpt>
        <trkpt lat="29.5393125" lon="103.3327423"><ele>2396.73</ele><time>2026-08-15T23:37:26.000Z</time></trkpt>
        <trkpt lat="29.53925" lon="103.3328282"><ele>2399.91</ele><time>2026-08-15T23:37:42.000Z</time></trkpt>
        <trkpt lat="29.5391695" lon="103.3328927"><ele>2403.91</ele><time>2026-08-15T23:37:54.000Z</time></trkpt>
        <trkpt lat="29.539099" lon="103.3329611"><ele>2406.78</ele><time>2026-08-15T23:38:06.000Z</time></trkpt>
        <trkpt lat="29.5390213" lon="103.3330324"><ele>2409.21</ele><time>2026-08-15T23:38:20.000Z</time></trkpt>
        <trkpt lat="29.5389304" lon="103.3330868"><ele>2409.87</ele><time>2026-08-15T23:38:30.000Z</time></trkpt>
        <trkpt lat="29.5388407" lon="103.3331342"><ele>2410.93</ele><time>2026-08-15T23:38:40.000Z</time></trkpt>
        <trkpt lat="29.5387502" lon="103.3331691"><ele>2412.9</ele><time>2026-08-15T23:38:50.000Z</time></trkpt>
        <trkpt lat="29.5386598" lon="103.3331907"><ele>2413.96</ele><time>2026-08-15T23:38:58.000Z</time></trkpt>
        <trkpt lat="29.5385671" lon="103.333206"><ele>2415.15</ele><time>2026-08-15T23:39:12.000Z</time></trkpt>
        <trkpt lat="29.5384732" lon="103.3332068"><ele>2416.28</ele><time>2026-08-15T23:39:28.000Z</time></trkpt>
        <trkpt lat="29.5383779" lon="103.333206"><ele>2418.16</ele><time>2026-08-15T23:39:40.000Z</time></trkpt>
        <trkpt lat="29.5382838" lon="103.3332499"><ele>2419.48</ele><time>2026-08-15T23:39:54.000Z</time></trkpt>
        <trkpt lat="29.5382057" lon="103.3333263"><ele>2419.24</ele><time>2026-08-15T23:40:02.000Z</time></trkpt>
        <trkpt lat="29.5381133" lon="103.333395"><ele>2420.12</ele><time>2026-08-15T23:40:12.000Z</time></trkpt>
        <trkpt lat="29.5380155" lon="103.3334054"><ele>2420.33</ele><time>2026-08-15T23:40:20.000Z</time></trkpt>
        <trkpt lat="29.5379326" lon="103.3334495"><ele>2420.27</ele><time>2026-08-15T23:40:28.000Z</time></trkpt>
        <trkpt lat="29.5378495" lon="103.3335175"><ele>2422.48</ele><time>2026-08-15T23:40:38.000Z</time></trkpt>
        <trkpt lat="29.5377693" lon="103.3335935"><ele>2422.47</ele><time>2026-08-15T23:40:48.000Z</time></trkpt>
        <trkpt lat="29.5376996" lon="103.3336727"><ele>2421.86</ele><time>2026-08-15T23:40:58.000Z</time></trkpt>
        <trkpt lat="29.5376214" lon="103.3337501"><ele>2420.87</ele><time>2026-08-15T23:41:14.000Z</time></trkpt>
        <trkpt lat="29.5375343" lon="103.3337851"><ele>2421.05</ele><time>2026-08-15T23:41:30.000Z</time></trkpt>
        <trkpt lat="29.537444" lon="103.3337746"><ele>2421.73</ele><time>2026-08-15T23:41:44.000Z</time></trkpt>
        <trkpt lat="29.5373455" lon="103.3337888"><ele>2422.31</ele><time>2026-08-15T23:41:58.000Z</time></trkpt>
        <trkpt lat="29.537302" lon="103.3338698"><ele>2424.67</ele><time>2026-08-15T23:42:12.000Z</time></trkpt>
        <trkpt lat="29.5372535" lon="103.3339604"><ele>2425.99</ele><time>2026-08-15T23:42:34.000Z</time></trkpt>
        <trkpt lat="29.5372347" lon="103.3340696"><ele>2427.34</ele><time>2026-08-15T23:42:56.000Z</time></trkpt>
        <trkpt lat="29.5371755" lon="103.334152"><ele>2429.99</ele><time>2026-08-15T23:43:10.000Z</time></trkpt>
        <trkpt lat="29.5370903" lon="103.3341981"><ele>2431.59</ele><time>2026-08-15T23:43:24.000Z</time></trkpt>
        <trkpt lat="29.5369994" lon="103.3342251"><ele>2432.31</ele><time>2026-08-15T23:43:38.000Z</time></trkpt>
        <trkpt lat="29.5369153" lon="103.3342668"><ele>2434.5</ele><time>2026-08-15T23:43:56.000Z</time></trkpt>
        <trkpt lat="29.536825" lon="103.3342975"><ele>2437.56</ele><time>2026-08-15T23:44:18.000Z</time></trkpt>
        <trkpt lat="29.5367313" lon="103.3343265"><ele>2440.28</ele><time>2026-08-15T23:44:36.000Z</time></trkpt>
        <trkpt lat="29.5366424" lon="103.3343554"><ele>2442.84</ele><time>2026-08-15T23:44:50.000Z</time></trkpt>
        <trkpt lat="29.5365466" lon="103.3343362"><ele>2445.78</ele><time>2026-08-15T23:45:10.000Z</time></trkpt>
        <trkpt lat="29.53645" lon="103.3343337"><ele>2446.94</ele><time>2026-08-15T23:45:22.000Z</time></trkpt>
        <trkpt lat="29.5363638" lon="103.3343689"><ele>2448.02</ele><time>2026-08-15T23:46:04.000Z</time></trkpt>
        <trkpt lat="29.5362705" lon="103.3343751"><ele>2449.78</ele><time>2026-08-15T23:46:26.000Z</time></trkpt>
        <trkpt lat="29.5361805" lon="103.3343379"><ele>2450.6</ele><time>2026-08-15T23:46:42.000Z</time></trkpt>
        <trkpt lat="29.5361006" lon="103.334275"><ele>2451.99</ele><time>2026-08-15T23:46:58.000Z</time></trkpt>
        <trkpt lat="29.5360216" lon="103.3342142"><ele>2452.56</ele><time>2026-08-15T23:47:20.000Z</time></trkpt>
        <trkpt lat="29.5359441" lon="103.3341575"><ele>2453.34</ele><time>2026-08-15T23:47:40.000Z</time></trkpt>
        <trkpt lat="29.5358638" lon="103.3340984"><ele>2454.01</ele><time>2026-08-15T23:48:00.000Z</time></trkpt>
        <trkpt lat="29.5357814" lon="103.3340519"><ele>2455.52</ele><time>2026-08-15T23:48:14.000Z</time></trkpt>
        <trkpt lat="29.5356937" lon="103.3340093"><ele>2458.7</ele><time>2026-08-15T23:48:28.000Z</time></trkpt>
        <trkpt lat="29.5356167" lon="103.3339491"><ele>2461.49</ele><time>2026-08-15T23:48:44.000Z</time></trkpt>
        <trkpt lat="29.5355823" lon="103.3338531"><ele>2462.37</ele><time>2026-08-15T23:49:06.000Z</time></trkpt>
        <trkpt lat="29.5355324" lon="103.3337581"><ele>2462.83</ele><time>2026-08-15T23:49:36.000Z</time></trkpt>
        <trkpt lat="29.5354543" lon="103.333691"><ele>2464.16</ele><time>2026-08-15T23:49:48.000Z</time></trkpt>
        <trkpt lat="29.535392" lon="103.3336041"><ele>2466.46</ele><time>2026-08-15T23:50:00.000Z</time></trkpt>
        <trkpt lat="29.5353807" lon="103.3335009"><ele>2468.3</ele><time>2026-08-15T23:50:42.000Z</time></trkpt>
        <trkpt lat="29.5353866" lon="103.333394"><ele>2470.71</ele><time>2026-08-15T23:50:50.000Z</time></trkpt>
        <trkpt lat="29.5354063" lon="103.3332893"><ele>2472.01</ele><time>2026-08-15T23:50:58.000Z</time></trkpt>
        <trkpt lat="29.5353994" lon="103.3331799"><ele>2473.89</ele><time>2026-08-15T23:51:10.000Z</time></trkpt>
        <trkpt lat="29.5353808" lon="103.3330651"><ele>2476.47</ele><time>2026-08-15T23:51:22.000Z</time></trkpt>
        <trkpt lat="29.5353299" lon="103.3329444"><ele>2479.28</ele><time>2026-08-15T23:51:32.000Z</time></trkpt>
        <trkpt lat="29.5352511" lon="103.332864"><ele>2480.48</ele><time>2026-08-15T23:51:40.000Z</time></trkpt>
        <trkpt lat="29.5351566" lon="103.3327838"><ele>2481.22</ele><time>2026-08-15T23:51:50.000Z</time></trkpt>
        <trkpt lat="29.5350867" lon="103.3327029"><ele>2479</ele><time>2026-08-15T23:51:58.000Z</time></trkpt>
        <trkpt lat="29.5350308" lon="103.3326122"><ele>2477.82</ele><time>2026-08-15T23:52:06.000Z</time></trkpt>
        <trkpt lat="29.5350058" lon="103.3324965"><ele>2477.42</ele><time>2026-08-15T23:52:12.000Z</time></trkpt>
        <trkpt lat="29.5349828" lon="103.3323859"><ele>2478.82</ele><time>2026-08-15T23:52:20.000Z</time></trkpt>
        <trkpt lat="29.534987" lon="103.3322612"><ele>2479.95</ele><time>2026-08-15T23:52:28.000Z</time></trkpt>
        <trkpt lat="29.5349832" lon="103.3321435"><ele>2480.09</ele><time>2026-08-15T23:52:36.000Z</time></trkpt>
        <trkpt lat="29.5349728" lon="103.3320357"><ele>2479.93</ele><time>2026-08-15T23:52:44.000Z</time></trkpt>
        <trkpt lat="29.534942" lon="103.3319352"><ele>2480.71</ele><time>2026-08-15T23:52:52.000Z</time></trkpt>
        <trkpt lat="29.534932" lon="103.3318265"><ele>2482.65</ele><time>2026-08-15T23:53:00.000Z</time></trkpt>
        <trkpt lat="29.5349189" lon="103.3317099"><ele>2484.65</ele><time>2026-08-15T23:53:10.000Z</time></trkpt>
        <trkpt lat="29.5349122" lon="103.3316019"><ele>2485.11</ele><time>2026-08-15T23:53:18.000Z</time></trkpt>
        <trkpt lat="29.5349068" lon="103.3314905"><ele>2485.3</ele><time>2026-08-15T23:53:28.000Z</time></trkpt>
        <trkpt lat="29.5348426" lon="103.3314214"><ele>2485.77</ele><time>2026-08-15T23:53:38.000Z</time></trkpt>
        <trkpt lat="29.5347884" lon="103.3314836"><ele>2485.38</ele><time>2026-08-15T23:53:54.000Z</time></trkpt>
        <trkpt lat="29.534776" lon="103.3315951"><ele>2485.53</ele><time>2026-08-15T23:54:06.000Z</time></trkpt>
        <trkpt lat="29.5347975" lon="103.331727"><ele>2487.06</ele><time>2026-08-15T23:54:16.000Z</time></trkpt>
        <trkpt lat="29.5348471" lon="103.3318349"><ele>2487.46</ele><time>2026-08-15T23:54:28.000Z</time></trkpt>
        <trkpt lat="29.5348629" lon="103.3319553"><ele>2490.43</ele><time>2026-08-15T23:54:36.000Z</time></trkpt>
        <trkpt lat="29.5348385" lon="103.3320719"><ele>2491.51</ele><time>2026-08-15T23:54:46.000Z</time></trkpt>
        <trkpt lat="29.5348087" lon="103.3321832"><ele>2491.69</ele><time>2026-08-15T23:54:52.000Z</time></trkpt>
        <trkpt lat="29.53478" lon="103.3322889"><ele>2490.2</ele><time>2026-08-15T23:55:00.000Z</time></trkpt>
        <trkpt lat="29.5347566" lon="103.3323971"><ele>2489.91</ele><time>2026-08-15T23:55:10.000Z</time></trkpt>
        <trkpt lat="29.5347436" lon="103.3325113"><ele>2491.42</ele><time>2026-08-15T23:55:20.000Z</time></trkpt>
        <trkpt lat="29.5347613" lon="103.3326296"><ele>2491.63</ele><time>2026-08-15T23:55:28.000Z</time></trkpt>
        <trkpt lat="29.5348102" lon="103.3327346"><ele>2494.08</ele><time>2026-08-15T23:55:38.000Z</time></trkpt>
        <trkpt lat="29.5348626" lon="103.332845"><ele>2494.81</ele><time>2026-08-15T23:55:50.000Z</time></trkpt>
        <trkpt lat="29.5348825" lon="103.3329057"><ele>2496.84</ele><time>2026-08-15T23:55:56.000Z</time></trkpt>
        <trkpt lat="29.5348213" lon="103.3329507"><ele>2496.58</ele><time>2026-08-15T23:56:08.000Z</time></trkpt>
        <trkpt lat="29.5347317" lon="103.332993"><ele>2496.43</ele><time>2026-08-15T23:56:36.000Z</time></trkpt>
        <trkpt lat="29.5346367" lon="103.3330336"><ele>2497.53</ele><time>2026-08-15T23:57:14.000Z</time></trkpt>
        <trkpt lat="29.5345395" lon="103.3330563"><ele>2500.33</ele><time>2026-08-15T23:57:48.000Z</time></trkpt>
        <trkpt lat="29.5344487" lon="103.3330989"><ele>2502.9</ele><time>2026-08-15T23:58:08.000Z</time></trkpt>
        <trkpt lat="29.5343636" lon="103.3331588"><ele>2505.28</ele><time>2026-08-15T23:58:38.000Z</time></trkpt>
        <trkpt lat="29.5342716" lon="103.3331568"><ele>2507.93</ele><time>2026-08-15T23:58:52.000Z</time></trkpt>
        <trkpt lat="29.5341806" lon="103.3331576"><ele>2510.37</ele><time>2026-08-15T23:59:26.000Z</time></trkpt>
        <trkpt lat="29.5341167" lon="103.3332304"><ele>2513.43</ele><time>2026-08-15T23:59:54.000Z</time></trkpt>
        <trkpt lat="29.534038" lon="103.333234"><ele>2518.53</ele><time>2026-08-16T00:00:18.000Z</time></trkpt>
        <trkpt lat="29.5339467" lon="103.33323"><ele>2520.6</ele><time>2026-08-16T00:00:52.000Z</time></trkpt>
        <trkpt lat="29.5338569" lon="103.3332053"><ele>2524.21</ele><time>2026-08-16T00:01:10.000Z</time></trkpt>
        <trkpt lat="29.5337914" lon="103.3331338"><ele>2526.2</ele><time>2026-08-16T00:01:52.000Z</time></trkpt>
        <trkpt lat="29.5337165" lon="103.3330639"><ele>2528.86</ele><time>2026-08-16T00:02:26.000Z</time></trkpt>
        <trkpt lat="29.5336429" lon="103.3329934"><ele>2533.29</ele><time>2026-08-16T00:03:02.000Z</time></trkpt>
        <trkpt lat="29.5335692" lon="103.3329242"><ele>2535.2</ele><time>2026-08-16T00:03:34.000Z</time></trkpt>
        <trkpt lat="29.5334988" lon="103.3328559"><ele>2538.08</ele><time>2026-08-16T00:04:04.000Z</time></trkpt>
        <trkpt lat="29.5334253" lon="103.3327932"><ele>2543.18</ele><time>2026-08-16T00:04:44.000Z</time></trkpt>
        <trkpt lat="29.5333434" lon="103.3327278"><ele>2548.07</ele><time>2026-08-16T00:05:08.000Z</time></trkpt>
        <trkpt lat="29.5332592" lon="103.3326783"><ele>2551.89</ele><time>2026-08-16T00:05:36.000Z</time></trkpt>
        <trkpt lat="29.5331831" lon="103.3326182"><ele>2555.35</ele><time>2026-08-16T00:06:06.000Z</time></trkpt>
        <trkpt lat="29.5331095" lon="103.3325557"><ele>2558.94</ele><time>2026-08-16T00:06:32.000Z</time></trkpt>
        <trkpt lat="29.5330402" lon="103.3324784"><ele>2562.57</ele><time>2026-08-16T00:06:56.000Z</time></trkpt>
        <trkpt lat="29.5329959" lon="103.3324389"><ele>2564.08</ele><time>2026-08-16T00:07:08.000Z</time></trkpt>
        <trkpt lat="29.5329329" lon="103.3323863"><ele>2565.83</ele><time>2026-08-16T00:07:32.000Z</time></trkpt>
        <trkpt lat="29.5328615" lon="103.3323265"><ele>2569.03</ele><time>2026-08-16T00:08:02.000Z</time></trkpt>
        <trkpt lat="29.5328141" lon="103.3322376"><ele>2571.59</ele><time>2026-08-16T00:08:26.000Z</time></trkpt>
        <trkpt lat="29.532761" lon="103.3321453"><ele>2573.55</ele><time>2026-08-16T00:08:54.000Z</time></trkpt>
        <trkpt lat="29.5327014" lon="103.332058"><ele>2575.23</ele><time>2026-08-16T00:09:24.000Z</time></trkpt>
        <trkpt lat="29.5326334" lon="103.3319846"><ele>2578.52</ele><time>2026-08-16T00:10:10.000Z</time></trkpt>
        <trkpt lat="29.5325583" lon="103.3319151"><ele>2582.29</ele><time>2026-08-16T00:10:30.000Z</time></trkpt>
        <trkpt lat="29.532493" lon="103.3318691"><ele>2583.95</ele><time>2026-08-16T00:10:50.000Z</time></trkpt>
        <trkpt lat="29.5324508" lon="103.3317845"><ele>2586.58</ele><time>2026-08-16T00:11:36.000Z</time></trkpt>
        <trkpt lat="29.5324528" lon="103.3316821"><ele>2591.73</ele><time>2026-08-16T00:12:10.000Z</time></trkpt>
        <trkpt lat="29.5324461" lon="103.331562"><ele>2597.13</ele><time>2026-08-16T00:12:48.000Z</time></trkpt>
        <trkpt lat="29.5324166" lon="103.3314521"><ele>2603.51</ele><time>2026-08-16T00:13:18.000Z</time></trkpt>
        <trkpt lat="29.5323793" lon="103.3313487"><ele>2607.41</ele><time>2026-08-16T00:13:40.000Z</time></trkpt>
        <trkpt lat="29.532331" lon="103.3312554"><ele>2609.83</ele><time>2026-08-16T00:14:06.000Z</time></trkpt>
        <trkpt lat="29.532306" lon="103.3311547"><ele>2612.49</ele><time>2026-08-16T00:14:28.000Z</time></trkpt>
        <trkpt lat="29.5323191" lon="103.3312631"><ele>2614.35</ele><time>2026-08-16T00:18:18.000Z</time></trkpt>
        <trkpt lat="29.5322388" lon="103.3313248"><ele>2616.44</ele><time>2026-08-16T00:18:40.000Z</time></trkpt>
        <trkpt lat="29.5321861" lon="103.3314131"><ele>2617.3</ele><time>2026-08-16T00:18:54.000Z</time></trkpt>
        <trkpt lat="29.5321458" lon="103.3313614"><ele>2618.47</ele><time>2026-08-16T00:19:10.000Z</time></trkpt>
        <trkpt lat="29.5321257" lon="103.3312599"><ele>2621.24</ele><time>2026-08-16T00:19:22.000Z</time></trkpt>
        <trkpt lat="29.5321163" lon="103.3311406"><ele>2624.65</ele><time>2026-08-16T00:19:38.000Z</time></trkpt>
        <trkpt lat="29.5321305" lon="103.3310242"><ele>2628.31</ele><time>2026-08-16T00:19:54.000Z</time></trkpt>
        <trkpt lat="29.5321478" lon="103.330913"><ele>2631.56</ele><time>2026-08-16T00:20:12.000Z</time></trkpt>
        <trkpt lat="29.5321561" lon="103.3307918"><ele>2634.21</ele><time>2026-08-16T00:20:24.000Z</time></trkpt>
        <trkpt lat="29.5321677" lon="103.3306707"><ele>2635.82</ele><time>2026-08-16T00:20:36.000Z</time></trkpt>
        <trkpt lat="29.5321595" lon="103.3305542"><ele>2636.96</ele><time>2026-08-16T00:20:50.000Z</time></trkpt>
        <trkpt lat="29.5321478" lon="103.3304431"><ele>2637.44</ele><time>2026-08-16T00:21:14.000Z</time></trkpt>
        <trkpt lat="29.5321098" lon="103.3303448"><ele>2639.19</ele><time>2026-08-16T00:21:56.000Z</time></trkpt>
        <trkpt lat="29.5321199" lon="103.3302454"><ele>2641.28</ele><time>2026-08-16T00:22:28.000Z</time></trkpt>
        <trkpt lat="29.5320362" lon="103.330249"><ele>2645.37</ele><time>2026-08-16T00:24:52.000Z</time></trkpt>
        <trkpt lat="29.5319427" lon="103.3302688"><ele>2652.87</ele><time>2026-08-16T00:25:26.000Z</time></trkpt>
        <trkpt lat="29.5318495" lon="103.3302604"><ele>2659.06</ele><time>2026-08-16T00:26:02.000Z</time></trkpt>
        <trkpt lat="29.5317772" lon="103.3302013"><ele>2664.98</ele><time>2026-08-16T00:26:24.000Z</time></trkpt>
        <trkpt lat="29.5317049" lon="103.330134"><ele>2668.25</ele><time>2026-08-16T00:26:44.000Z</time></trkpt>
        <trkpt lat="29.5316271" lon="103.3300714"><ele>2670.12</ele><time>2026-08-16T00:27:16.000Z</time></trkpt>
        <trkpt lat="29.5315451" lon="103.3300204"><ele>2673.62</ele><time>2026-08-16T00:27:48.000Z</time></trkpt>
        <trkpt lat="29.5314621" lon="103.3299729"><ele>2678.69</ele><time>2026-08-16T00:28:22.000Z</time></trkpt>
        <trkpt lat="29.5313964" lon="103.3299026"><ele>2683.66</ele><time>2026-08-16T00:29:32.000Z</time></trkpt>
        <trkpt lat="29.5313069" lon="103.3298639"><ele>2688.07</ele><time>2026-08-16T00:30:04.000Z</time></trkpt>
        <trkpt lat="29.5312725" lon="103.3298256"><ele>2691.02</ele><time>2026-08-16T00:30:26.000Z</time></trkpt>
        <trkpt lat="29.5312011" lon="103.3297896"><ele>2693.42</ele><time>2026-08-16T00:30:44.000Z</time></trkpt>
        <trkpt lat="29.5311673" lon="103.329702"><ele>2695.4</ele><time>2026-08-16T00:31:30.000Z</time></trkpt>
        <trkpt lat="29.5311222" lon="103.329606"><ele>2701.53</ele><time>2026-08-16T00:32:02.000Z</time></trkpt>
        <trkpt lat="29.5310488" lon="103.3295277"><ele>2707.26</ele><time>2026-08-16T00:32:18.000Z</time></trkpt>
        <trkpt lat="29.5309953" lon="103.3294342"><ele>2709.46</ele><time>2026-08-16T00:32:40.000Z</time></trkpt>
        <trkpt lat="29.5309957" lon="103.3293288"><ele>2710.22</ele><time>2026-08-16T00:32:58.000Z</time></trkpt>
        <trkpt lat="29.5310079" lon="103.329212"><ele>2714.74</ele><time>2026-08-16T00:33:14.000Z</time></trkpt>
        <trkpt lat="29.5310551" lon="103.3291113"><ele>2717.89</ele><time>2026-08-16T00:33:32.000Z</time></trkpt>
        <trkpt lat="29.5310713" lon="103.3290063"><ele>2723.59</ele><time>2026-08-16T00:35:00.000Z</time></trkpt>
        <trkpt lat="29.5310773" lon="103.3288928"><ele>2729.01</ele><time>2026-08-16T00:35:24.000Z</time></trkpt>
        <trkpt lat="29.5310866" lon="103.3287876"><ele>2733.92</ele><time>2026-08-16T00:35:34.000Z</time></trkpt>
        <trkpt lat="29.5310954" lon="103.3286749"><ele>2736.4</ele><time>2026-08-16T00:36:02.000Z</time></trkpt>
        <trkpt lat="29.5311074" lon="103.3285603"><ele>2739.47</ele><time>2026-08-16T00:36:20.000Z</time></trkpt>
        <trkpt lat="29.5311374" lon="103.328457"><ele>2740.61</ele><time>2026-08-16T00:36:36.000Z</time></trkpt>
        <trkpt lat="29.531178" lon="103.3283559"><ele>2742.39</ele><time>2026-08-16T00:36:50.000Z</time></trkpt>
        <trkpt lat="29.5312121" lon="103.3282484"><ele>2744.03</ele><time>2026-08-16T00:37:16.000Z</time></trkpt>
        <trkpt lat="29.5312216" lon="103.3281417"><ele>2746.25</ele><time>2026-08-16T00:37:28.000Z</time></trkpt>
        <trkpt lat="29.5312192" lon="103.3280239"><ele>2748</ele><time>2026-08-16T00:37:42.000Z</time></trkpt>
        <trkpt lat="29.5312288" lon="103.3279132"><ele>2748.6</ele><time>2026-08-16T00:37:58.000Z</time></trkpt>
        <trkpt lat="29.5312058" lon="103.3278109"><ele>2749.05</ele><time>2026-08-16T00:38:16.000Z</time></trkpt>
        <trkpt lat="29.531201" lon="103.3277057"><ele>2750.9</ele><time>2026-08-16T00:38:34.000Z</time></trkpt>
        <trkpt lat="29.5311982" lon="103.3275975"><ele>2754.6</ele><time>2026-08-16T00:38:52.000Z</time></trkpt>
        <trkpt lat="29.5311838" lon="103.327493"><ele>2757.66</ele><time>2026-08-16T00:39:10.000Z</time></trkpt>
        <trkpt lat="29.5312443" lon="103.3274061"><ele>2758.18</ele><time>2026-08-16T00:40:18.000Z</time></trkpt>
        <trkpt lat="29.5311874" lon="103.3273252"><ele>2761.36</ele><time>2026-08-16T00:40:34.000Z</time></trkpt>
        <trkpt lat="29.5311733" lon="103.3272167"><ele>2763.54</ele><time>2026-08-16T00:41:06.000Z</time></trkpt>
        <trkpt lat="29.5311338" lon="103.3271188"><ele>2766.34</ele><time>2026-08-16T00:41:38.000Z</time></trkpt>
        <trkpt lat="29.531061" lon="103.3270486"><ele>2769.42</ele><time>2026-08-16T00:41:58.000Z</time></trkpt>
        <trkpt lat="29.5309712" lon="103.3270293"><ele>2771.22</ele><time>2026-08-16T00:42:14.000Z</time></trkpt>
        <trkpt lat="29.5308822" lon="103.327001"><ele>2775.89</ele><time>2026-08-16T00:42:34.000Z</time></trkpt>
        <trkpt lat="29.5308299" lon="103.3269073"><ele>2779.14</ele><time>2026-08-16T00:43:50.000Z</time></trkpt>
        <trkpt lat="29.5307385" lon="103.3268891"><ele>2784.13</ele><time>2026-08-16T00:44:26.000Z</time></trkpt>
        <trkpt lat="29.530732" lon="103.3268834"><ele>2786.54</ele><time>2026-08-16T00:44:28.000Z</time></trkpt>
        <trkpt lat="29.5306693" lon="103.3268492"><ele>2788.86</ele><time>2026-08-16T00:44:52.000Z</time></trkpt>
        <trkpt lat="29.5305955" lon="103.3268927"><ele>2790.16</ele><time>2026-08-16T00:45:16.000Z</time></trkpt>
        <trkpt lat="29.5305654" lon="103.3269156"><ele>2792.66</ele><time>2026-08-16T00:45:20.000Z</time></trkpt>
        <trkpt lat="29.530492" lon="103.3269461"><ele>2794.4</ele><time>2026-08-16T00:46:10.000Z</time></trkpt>
        <trkpt lat="29.5304131" lon="103.3270029"><ele>2797.17</ele><time>2026-08-16T00:46:42.000Z</time></trkpt>
        <trkpt lat="29.5303458" lon="103.3270786"><ele>2801.07</ele><time>2026-08-16T00:47:00.000Z</time></trkpt>
        <trkpt lat="29.5302544" lon="103.3271127"><ele>2804.28</ele><time>2026-08-16T00:47:14.000Z</time></trkpt>
        <trkpt lat="29.5301667" lon="103.3271548"><ele>2807.45</ele><time>2026-08-16T00:47:26.000Z</time></trkpt>
        <trkpt lat="29.5301304" lon="103.3272521"><ele>2810.04</ele><time>2026-08-16T00:47:36.000Z</time></trkpt>
        <trkpt lat="29.530055" lon="103.3272889"><ele>2810.2</ele><time>2026-08-16T00:47:44.000Z</time></trkpt>
        <trkpt lat="29.5300401" lon="103.3273719"><ele>2810.46</ele><time>2026-08-16T00:47:58.000Z</time></trkpt>
        <trkpt lat="29.5299715" lon="103.3274081"><ele>2811.74</ele><time>2026-08-16T00:48:04.000Z</time></trkpt>
        <trkpt lat="29.5299293" lon="103.3274938"><ele>2810.67</ele><time>2026-08-16T00:48:22.000Z</time></trkpt>
        <trkpt lat="29.5298863" lon="103.3275884"><ele>2812.49</ele><time>2026-08-16T00:48:32.000Z</time></trkpt>
        <trkpt lat="29.529852" lon="103.3277008"><ele>2814.14</ele><time>2026-08-16T00:48:48.000Z</time></trkpt>
        <trkpt lat="29.5297935" lon="103.3278022"><ele>2815.84</ele><time>2026-08-16T00:49:00.000Z</time></trkpt>
        <trkpt lat="29.5297087" lon="103.327838"><ele>2817.46</ele><time>2026-08-16T00:49:08.000Z</time></trkpt>
        <trkpt lat="29.529612" lon="103.3278563"><ele>2817.52</ele><time>2026-08-16T00:49:18.000Z</time></trkpt>
        <trkpt lat="29.5295075" lon="103.3278378"><ele>2817.25</ele><time>2026-08-16T00:49:42.000Z</time></trkpt>
        <trkpt lat="29.5294102" lon="103.3278261"><ele>2817.59</ele><time>2026-08-16T00:49:54.000Z</time></trkpt>
        <trkpt lat="29.5293081" lon="103.3278031"><ele>2817.66</ele><time>2026-08-16T00:50:10.000Z</time></trkpt>
        <trkpt lat="29.5292737" lon="103.327876"><ele>2818.73</ele><time>2026-08-16T00:50:34.000Z</time></trkpt>
        <trkpt lat="29.5292151" lon="103.327962"><ele>2818.25</ele><time>2026-08-16T00:52:10.000Z</time></trkpt>
        <trkpt lat="29.5292067" lon="103.3280781"><ele>2818.27</ele><time>2026-08-16T00:52:18.000Z</time></trkpt>
        <trkpt lat="29.52918" lon="103.3281824"><ele>2817.69</ele><time>2026-08-16T00:52:30.000Z</time></trkpt>
        <trkpt lat="29.529188" lon="103.3282836"><ele>2816.38</ele><time>2026-08-16T00:52:48.000Z</time></trkpt>
        <trkpt lat="29.5291958" lon="103.3283866"><ele>2817.59</ele><time>2026-08-16T00:53:10.000Z</time></trkpt>
        <trkpt lat="29.5291968" lon="103.3284513"><ele>2822.11</ele><time>2026-08-16T00:53:24.000Z</time></trkpt>
        <trkpt lat="29.5291427" lon="103.3285388"><ele>2826.61</ele><time>2026-08-16T00:54:06.000Z</time></trkpt>
        <trkpt lat="29.5291127" lon="103.3286595"><ele>2832.55</ele><time>2026-08-16T00:54:16.000Z</time></trkpt>
        <trkpt lat="29.5290557" lon="103.3287704"><ele>2834.77</ele><time>2026-08-16T00:54:30.000Z</time></trkpt>
        <trkpt lat="29.5290613" lon="103.3288833"><ele>2836.21</ele><time>2026-08-16T00:54:52.000Z</time></trkpt>
        <trkpt lat="29.5289941" lon="103.32894"><ele>2839.75</ele><time>2026-08-16T00:55:00.000Z</time></trkpt>
        <trkpt lat="29.5289825" lon="103.3290312"><ele>2841.94</ele><time>2026-08-16T00:55:18.000Z</time></trkpt>
        <trkpt lat="29.5289093" lon="103.3290903"><ele>2846.37</ele><time>2026-08-16T00:55:28.000Z</time></trkpt>
        <trkpt lat="29.528834" lon="103.3291852"><ele>2848.81</ele><time>2026-08-16T00:55:54.000Z</time></trkpt>
        <trkpt lat="29.5287433" lon="103.329251"><ele>2849.98</ele><time>2026-08-16T00:56:04.000Z</time></trkpt>
        <trkpt lat="29.5287555" lon="103.3293299"><ele>2850.69</ele><time>2026-08-16T00:56:12.000Z</time></trkpt>
        <trkpt lat="29.5287325" lon="103.3294206"><ele>2851.67</ele><time>2026-08-16T00:56:30.000Z</time></trkpt>
        <trkpt lat="29.5287384" lon="103.3295408"><ele>2854.42</ele><time>2026-08-16T00:56:46.000Z</time></trkpt>
        <trkpt lat="29.5287078" lon="103.3296431"><ele>2856.52</ele><time>2026-08-16T00:56:56.000Z</time></trkpt>
        <trkpt lat="29.5286642" lon="103.3297456"><ele>2858.45</ele><time>2026-08-16T00:57:12.000Z</time></trkpt>
        <trkpt lat="29.5286377" lon="103.3298506"><ele>2859.6</ele><time>2026-08-16T00:57:24.000Z</time></trkpt>
        <trkpt lat="29.528597" lon="103.3299544"><ele>2860.35</ele><time>2026-08-16T00:57:30.000Z</time></trkpt>
        <trkpt lat="29.5285703" lon="103.3300411"><ele>2860.85</ele><time>2026-08-16T00:57:40.000Z</time></trkpt>
        <trkpt lat="29.5284997" lon="103.3301197"><ele>2862.09</ele><time>2026-08-16T00:58:12.000Z</time></trkpt>
        <trkpt lat="29.5284117" lon="103.3301955"><ele>2862.55</ele><time>2026-08-16T00:58:20.000Z</time></trkpt>
        <trkpt lat="29.5283508" lon="103.330287"><ele>2862.47</ele><time>2026-08-16T00:58:38.000Z</time></trkpt>
        <trkpt lat="29.5283014" lon="103.3303925"><ele>2864.24</ele><time>2026-08-16T00:58:48.000Z</time></trkpt>
        <trkpt lat="29.5283349" lon="103.3304879"><ele>2864.81</ele><time>2026-08-16T00:59:14.000Z</time></trkpt>
        <trkpt lat="29.528352" lon="103.3305954"><ele>2867.58</ele><time>2026-08-16T00:59:32.000Z</time></trkpt>
        <trkpt lat="29.5283275" lon="103.3306993"><ele>2867.87</ele><time>2026-08-16T00:59:46.000Z</time></trkpt>
        <trkpt lat="29.5283035" lon="103.3308027"><ele>2867.84</ele><time>2026-08-16T01:00:12.000Z</time></trkpt>
        <trkpt lat="29.5282255" lon="103.3308615"><ele>2868.77</ele><time>2026-08-16T01:00:24.000Z</time></trkpt>
        <trkpt lat="29.5281543" lon="103.3309381"><ele>2868.9</ele><time>2026-08-16T01:00:56.000Z</time></trkpt>
        <trkpt lat="29.528076" lon="103.3310093"><ele>2872.5</ele><time>2026-08-16T01:01:10.000Z</time></trkpt>
        <trkpt lat="29.5281076" lon="103.3310738"><ele>2875.43</ele><time>2026-08-16T01:01:16.000Z</time></trkpt>
        <trkpt lat="29.5280716" lon="103.3311587"><ele>2877.99</ele><time>2026-08-16T01:01:32.000Z</time></trkpt>
        <trkpt lat="29.528041" lon="103.3312056"><ele>2878.97</ele><time>2026-08-16T01:01:46.000Z</time></trkpt>
        <trkpt lat="29.5280001" lon="103.331291"><ele>2881.16</ele><time>2026-08-16T01:02:02.000Z</time></trkpt>
        <trkpt lat="29.5279256" lon="103.3313468"><ele>2881.88</ele><time>2026-08-16T01:02:20.000Z</time></trkpt>
        <trkpt lat="29.5278564" lon="103.3314263"><ele>2882.81</ele><time>2026-08-16T01:02:50.000Z</time></trkpt>
        <trkpt lat="29.5278001" lon="103.3315129"><ele>2883.51</ele><time>2026-08-16T01:03:04.000Z</time></trkpt>
        <trkpt lat="29.5277806" lon="103.3316169"><ele>2885.45</ele><time>2026-08-16T01:03:24.000Z</time></trkpt>
        <trkpt lat="29.5278062" lon="103.3317234"><ele>2888.29</ele><time>2026-08-16T01:03:40.000Z</time></trkpt>
        <trkpt lat="29.5277821" lon="103.3318254"><ele>2890.63</ele><time>2026-08-16T01:03:56.000Z</time></trkpt>
        <trkpt lat="29.5277443" lon="103.3319214"><ele>2893.26</ele><time>2026-08-16T01:04:04.000Z</time></trkpt>
        <trkpt lat="29.527762" lon="103.3320031"><ele>2893.35</ele><time>2026-08-16T01:04:18.000Z</time></trkpt>
        <trkpt lat="29.5277099" lon="103.33207"><ele>2895.06</ele><time>2026-08-16T01:04:38.000Z</time></trkpt>
        <trkpt lat="29.5276318" lon="103.3321339"><ele>2896.32</ele><time>2026-08-16T01:05:08.000Z</time></trkpt>
        <trkpt lat="29.5275848" lon="103.3321455"><ele>2899.18</ele><time>2026-08-16T01:05:12.000Z</time></trkpt>
        <trkpt lat="29.5275541" lon="103.3322156"><ele>2900.26</ele><time>2026-08-16T01:05:36.000Z</time></trkpt>
        <trkpt lat="29.5276128" lon="103.3322751"><ele>2901.48</ele><time>2026-08-16T01:05:54.000Z</time></trkpt>
        <trkpt lat="29.5275879" lon="103.3323474"><ele>2902.83</ele><time>2026-08-16T01:06:12.000Z</time></trkpt>
        <trkpt lat="29.5275328" lon="103.3324555"><ele>2904.69</ele><time>2026-08-16T01:07:50.000Z</time></trkpt>
        <trkpt lat="29.5274595" lon="103.3325262"><ele>2905.99</ele><time>2026-08-16T01:08:18.000Z</time></trkpt>
        <trkpt lat="29.5273717" lon="103.3325317"><ele>2908.47</ele><time>2026-08-16T01:08:34.000Z</time></trkpt>
        <trkpt lat="29.5273134" lon="103.3325183"><ele>2907.47</ele><time>2026-08-16T01:08:40.000Z</time></trkpt>
        <trkpt lat="29.52727" lon="103.3324359"><ele>2908.14</ele><time>2026-08-16T01:09:08.000Z</time></trkpt>
        <trkpt lat="29.5272156" lon="103.3323397"><ele>2911.66</ele><time>2026-08-16T01:09:16.000Z</time></trkpt>
        <trkpt lat="29.5271774" lon="103.3322884"><ele>2913.11</ele><time>2026-08-16T01:09:22.000Z</time></trkpt>
        <trkpt lat="29.5271081" lon="103.332232"><ele>2914.5</ele><time>2026-08-16T01:09:42.000Z</time></trkpt>
        <trkpt lat="29.5270511" lon="103.3322832"><ele>2917.16</ele><time>2026-08-16T01:09:52.000Z</time></trkpt>
        <trkpt lat="29.5270062" lon="103.3323813"><ele>2917.49</ele><time>2026-08-16T01:10:00.000Z</time></trkpt>
        <trkpt lat="29.5270669" lon="103.3324399"><ele>2916.4</ele><time>2026-08-16T01:10:08.000Z</time></trkpt>
        <trkpt lat="29.5270842" lon="103.3325389"><ele>2917.49</ele><time>2026-08-16T01:10:34.000Z</time></trkpt>
        <trkpt lat="29.5271293" lon="103.3326494"><ele>2918.61</ele><time>2026-08-16T01:10:44.000Z</time></trkpt>
        <trkpt lat="29.5271329" lon="103.3327657"><ele>2919.6</ele><time>2026-08-16T01:11:00.000Z</time></trkpt>
        <trkpt lat="29.5271244" lon="103.332893"><ele>2921.3</ele><time>2026-08-16T01:11:16.000Z</time></trkpt>
        <trkpt lat="29.5271263" lon="103.3329489"><ele>2923.48</ele><time>2026-08-16T01:11:24.000Z</time></trkpt>
        <trkpt lat="29.527122" lon="103.3330346"><ele>2925.84</ele><time>2026-08-16T01:11:36.000Z</time></trkpt>
        <trkpt lat="29.5271385" lon="103.3331355"><ele>2927.68</ele><time>2026-08-16T01:11:48.000Z</time></trkpt>
        <trkpt lat="29.5271896" lon="103.3332269"><ele>2928.01</ele><time>2026-08-16T01:11:58.000Z</time></trkpt>
        <trkpt lat="29.5271414" lon="103.3333027"><ele>2929.13</ele><time>2026-08-16T01:12:10.000Z</time></trkpt>
        <trkpt lat="29.5270561" lon="103.3333556"><ele>2929.11</ele><time>2026-08-16T01:12:18.000Z</time></trkpt>
        <trkpt lat="29.5269698" lon="103.3334219"><ele>2928.43</ele><time>2026-08-16T01:12:34.000Z</time></trkpt>
        <trkpt lat="29.526888" lon="103.3334666"><ele>2928.06</ele><time>2026-08-16T01:12:54.000Z</time></trkpt>
        <trkpt lat="29.5268045" lon="103.3335138"><ele>2929.18</ele><time>2026-08-16T01:13:54.000Z</time></trkpt>
        <trkpt lat="29.526725" lon="103.333572"><ele>2934.16</ele><time>2026-08-16T01:14:20.000Z</time></trkpt>
        <trkpt lat="29.5266312" lon="103.3336033"><ele>2939.17</ele><time>2026-08-16T01:14:34.000Z</time></trkpt>
        <trkpt lat="29.526568" lon="103.3336811"><ele>2942.13</ele><time>2026-08-16T01:14:54.000Z</time></trkpt>
        <trkpt lat="29.5264833" lon="103.3337373"><ele>2943.96</ele><time>2026-08-16T01:15:06.000Z</time></trkpt>
        <trkpt lat="29.5264061" lon="103.333807"><ele>2946.9</ele><time>2026-08-16T01:15:22.000Z</time></trkpt>
        <trkpt lat="29.5263196" lon="103.3338221"><ele>2949.1</ele><time>2026-08-16T01:15:30.000Z</time></trkpt>
        <trkpt lat="29.5262304" lon="103.3338435"><ele>2951.34</ele><time>2026-08-16T01:15:42.000Z</time></trkpt>
        <trkpt lat="29.5261414" lon="103.3338636"><ele>2953.04</ele><time>2026-08-16T01:16:00.000Z</time></trkpt>
        <trkpt lat="29.5260357" lon="103.3338885"><ele>2955.51</ele><time>2026-08-16T01:16:10.000Z</time></trkpt>
        <trkpt lat="29.5259731" lon="103.3339324"><ele>2955.57</ele><time>2026-08-16T01:16:26.000Z</time></trkpt>
        <trkpt lat="29.5259059" lon="103.3340034"><ele>2955.87</ele><time>2026-08-16T01:17:12.000Z</time></trkpt>
        <trkpt lat="29.5258493" lon="103.3340933"><ele>2960.88</ele><time>2026-08-16T01:17:28.000Z</time></trkpt>
        <trkpt lat="29.5257605" lon="103.3341253"><ele>2962.95</ele><time>2026-08-16T01:17:38.000Z</time></trkpt>
        <trkpt lat="29.5256639" lon="103.3341682"><ele>2963.54</ele><time>2026-08-16T01:17:54.000Z</time></trkpt>
        <trkpt lat="29.5255898" lon="103.3342329"><ele>2963.67</ele><time>2026-08-16T01:18:10.000Z</time></trkpt>
        <trkpt lat="29.5255334" lon="103.3343215"><ele>2963.61</ele><time>2026-08-16T01:18:28.000Z</time></trkpt>
        <trkpt lat="29.5254758" lon="103.3344155"><ele>2965</ele><time>2026-08-16T01:18:46.000Z</time></trkpt>
        <trkpt lat="29.5254415" lon="103.3345223"><ele>2965.46</ele><time>2026-08-16T01:19:12.000Z</time></trkpt>
        <trkpt lat="29.5254093" lon="103.3346234"><ele>2967.3</ele><time>2026-08-16T01:19:32.000Z</time></trkpt>
        <trkpt lat="29.5253586" lon="103.3347125"><ele>2970.75</ele><time>2026-08-16T01:19:44.000Z</time></trkpt>
        <trkpt lat="29.5252795" lon="103.3347612"><ele>2973.38</ele><time>2026-08-16T01:19:58.000Z</time></trkpt>
        <trkpt lat="29.5251887" lon="103.3347574"><ele>2974.2</ele><time>2026-08-16T01:20:12.000Z</time></trkpt>
        <trkpt lat="29.5251315" lon="103.3348185"><ele>2973.63</ele><time>2026-08-16T01:20:38.000Z</time></trkpt>
        <trkpt lat="29.5250434" lon="103.334844"><ele>2974.4</ele><time>2026-08-16T01:21:02.000Z</time></trkpt>
        <trkpt lat="29.5250067" lon="103.3348509"><ele>2978.09</ele><time>2026-08-16T01:21:08.000Z</time></trkpt>
        <trkpt lat="29.5249257" lon="103.3348549"><ele>2981.48</ele><time>2026-08-16T01:21:52.000Z</time></trkpt>
        <trkpt lat="29.5248378" lon="103.3348224"><ele>2984.83</ele><time>2026-08-16T01:22:14.000Z</time></trkpt>
        <trkpt lat="29.5247475" lon="103.3348341"><ele>2986.01</ele><time>2026-08-16T01:22:42.000Z</time></trkpt>
        <trkpt lat="29.5246517" lon="103.3348264"><ele>2988.36</ele><time>2026-08-16T01:22:52.000Z</time></trkpt>
        <trkpt lat="29.5245458" lon="103.3348433"><ele>2989.74</ele><time>2026-08-16T01:23:00.000Z</time></trkpt>
        <trkpt lat="29.5244762" lon="103.3349168"><ele>2992.64</ele><time>2026-08-16T01:23:12.000Z</time></trkpt>
        <trkpt lat="29.5243989" lon="103.3350017"><ele>2990.82</ele><time>2026-08-16T01:23:24.000Z</time></trkpt>
        <trkpt lat="29.5243032" lon="103.3350268"><ele>2991.52</ele><time>2026-08-16T01:23:32.000Z</time></trkpt>
        <trkpt lat="29.5242088" lon="103.3350268"><ele>2991.61</ele><time>2026-08-16T01:23:42.000Z</time></trkpt>
        <trkpt lat="29.5241154" lon="103.3350463"><ele>2991.54</ele><time>2026-08-16T01:23:52.000Z</time></trkpt>
        <trkpt lat="29.5240195" lon="103.3350246"><ele>2990.87</ele><time>2026-08-16T01:24:00.000Z</time></trkpt>
        <trkpt lat="29.5239332" lon="103.3349814"><ele>2991.98</ele><time>2026-08-16T01:24:16.000Z</time></trkpt>
        <trkpt lat="29.5238397" lon="103.334976"><ele>2994.67</ele><time>2026-08-16T01:24:30.000Z</time></trkpt>
        <trkpt lat="29.5237362" lon="103.3349473"><ele>2996.55</ele><time>2026-08-16T01:24:42.000Z</time></trkpt>
        <trkpt lat="29.5236379" lon="103.3349333"><ele>2998.25</ele><time>2026-08-16T01:24:54.000Z</time></trkpt>
        <trkpt lat="29.5235391" lon="103.3349193"><ele>2997.91</ele><time>2026-08-16T01:25:10.000Z</time></trkpt>
        <trkpt lat="29.5234313" lon="103.3349047"><ele>2998.33</ele><time>2026-08-16T01:25:24.000Z</time></trkpt>
        <trkpt lat="29.5233356" lon="103.3348683"><ele>2998.76</ele><time>2026-08-16T01:25:38.000Z</time></trkpt>
        <trkpt lat="29.5232463" lon="103.3348304"><ele>3000.21</ele><time>2026-08-16T01:25:48.000Z</time></trkpt>
        <trkpt lat="29.5231916" lon="103.3348069"><ele>3000.18</ele><time>2026-08-16T01:25:55.000Z</time></trkpt>
        <trkpt lat="29.5231127" lon="103.3347864"><ele>3000.68</ele><time>2026-08-16T01:26:20.000Z</time></trkpt>
        <trkpt lat="29.5230246" lon="103.3347729"><ele>3001.87</ele><time>2026-08-16T01:26:44.000Z</time></trkpt>
        <trkpt lat="29.522934" lon="103.3347662"><ele>3001.82</ele><time>2026-08-16T01:27:14.000Z</time></trkpt>
        <trkpt lat="29.5228706" lon="103.3348415"><ele>3002.97</ele><time>2026-08-16T01:27:44.000Z</time></trkpt>
        <trkpt lat="29.5227983" lon="103.3348752"><ele>3002.68</ele><time>2026-08-16T01:27:54.000Z</time></trkpt>
        <trkpt lat="29.5227347" lon="103.3349514"><ele>3002.15</ele><time>2026-08-16T01:29:00.000Z</time></trkpt>
        <trkpt lat="29.5227728" lon="103.3350581"><ele>3004.41</ele><time>2026-08-16T01:29:28.000Z</time></trkpt>
        <trkpt lat="29.5227778" lon="103.3350871"><ele>3005.94</ele><time>2026-08-16T01:29:32.000Z</time></trkpt>
        <trkpt lat="29.5227634" lon="103.3351911"><ele>3006.89</ele><time>2026-08-16T01:30:36.000Z</time></trkpt>
        <trkpt lat="29.522782" lon="103.3352991"><ele>3009.94</ele><time>2026-08-16T01:30:52.000Z</time></trkpt>
        <trkpt lat="29.5227967" lon="103.3354055"><ele>3012.61</ele><time>2026-08-16T01:31:06.000Z</time></trkpt>
        <trkpt lat="29.5228085" lon="103.335508"><ele>3015.84</ele><time>2026-08-16T01:32:48.000Z</time></trkpt>
        <trkpt lat="29.5228226" lon="103.3356202"><ele>3017.84</ele><time>2026-08-16T01:33:08.000Z</time></trkpt>
        <trkpt lat="29.5228512" lon="103.3357258"><ele>3019.29</ele><time>2026-08-16T01:33:20.000Z</time></trkpt>
        <trkpt lat="29.5228479" lon="103.3358364"><ele>3020.98</ele><time>2026-08-16T01:33:36.000Z</time></trkpt>
        <trkpt lat="29.5228041" lon="103.3359322"><ele>3022.59</ele><time>2026-08-16T01:33:50.000Z</time></trkpt>
        <trkpt lat="29.5227196" lon="103.3359676"><ele>3023.92</ele><time>2026-08-16T01:34:04.000Z</time></trkpt>
        <trkpt lat="29.5227892" lon="103.335903"><ele>3024.93</ele><time>2026-08-16T01:35:34.000Z</time></trkpt>
        <trkpt lat="29.522832" lon="103.3357893"><ele>3024.83</ele><time>2026-08-16T01:35:46.000Z</time></trkpt>
        <trkpt lat="29.5228413" lon="103.3356683"><ele>3023.65</ele><time>2026-08-16T01:35:56.000Z</time></trkpt>
        <trkpt lat="29.5228341" lon="103.3355595"><ele>3022</ele><time>2026-08-16T01:36:04.000Z</time></trkpt>
        <trkpt lat="29.5228294" lon="103.3354482"><ele>3020.91</ele><time>2026-08-16T01:36:14.000Z</time></trkpt>
        <trkpt lat="29.5228185" lon="103.3353404"><ele>3019.74</ele><time>2026-08-16T01:36:24.000Z</time></trkpt>
        <trkpt lat="29.5228063" lon="103.3352326"><ele>3018.36</ele><time>2026-08-16T01:36:32.000Z</time></trkpt>
        <trkpt lat="29.5227993" lon="103.3351269"><ele>3017.81</ele><time>2026-08-16T01:36:40.000Z</time></trkpt>
        <trkpt lat="29.5227865" lon="103.3350139"><ele>3016.55</ele><time>2026-08-16T01:36:48.000Z</time></trkpt>
        <trkpt lat="29.5227526" lon="103.3348971"><ele>3015.62</ele><time>2026-08-16T01:36:56.000Z</time></trkpt>
        <trkpt lat="29.5227687" lon="103.3347878"><ele>3015.9</ele><time>2026-08-16T01:37:10.000Z</time></trkpt>
        <trkpt lat="29.5228506" lon="103.334755"><ele>3012.01</ele><time>2026-08-16T01:37:20.000Z</time></trkpt>
        <trkpt lat="29.5229471" lon="103.3347397"><ele>3008.02</ele><time>2026-08-16T01:37:28.000Z</time></trkpt>
        <trkpt lat="29.5230509" lon="103.3347512"><ele>3005.51</ele><time>2026-08-16T01:37:38.000Z</time></trkpt>
        <trkpt lat="29.5231505" lon="103.3347823"><ele>3002.47</ele><time>2026-08-16T01:37:46.000Z</time></trkpt>
        <trkpt lat="29.5232491" lon="103.3348151"><ele>2999.89</ele><time>2026-08-16T01:37:56.000Z</time></trkpt>
        <trkpt lat="29.5233394" lon="103.3348621"><ele>2998.04</ele><time>2026-08-16T01:38:04.000Z</time></trkpt>
        <trkpt lat="29.5234297" lon="103.3349004"><ele>2996.14</ele><time>2026-08-16T01:38:12.000Z</time></trkpt>
        <trkpt lat="29.5235266" lon="103.3349277"><ele>2994.48</ele><time>2026-08-16T01:38:20.000Z</time></trkpt>
        <trkpt lat="29.5236179" lon="103.3349775"><ele>2994.69</ele><time>2026-08-16T01:38:28.000Z</time></trkpt>
        <trkpt lat="29.5237115" lon="103.3350332"><ele>2994.95</ele><time>2026-08-16T01:38:38.000Z</time></trkpt>
        <trkpt lat="29.5238099" lon="103.3350983"><ele>2994.86</ele><time>2026-08-16T01:38:46.000Z</time></trkpt>
        <trkpt lat="29.5239183" lon="103.3351544"><ele>2995.78</ele><time>2026-08-16T01:38:54.000Z</time></trkpt>
        <trkpt lat="29.5239842" lon="103.3352533"><ele>2997.09</ele><time>2026-08-16T01:39:02.000Z</time></trkpt>
        <trkpt lat="29.5240101" lon="103.335367"><ele>2998</ele><time>2026-08-16T01:39:10.000Z</time></trkpt>
        <trkpt lat="29.5240583" lon="103.3354591"><ele>2998.26</ele><time>2026-08-16T01:39:18.000Z</time></trkpt>
        <trkpt lat="29.5241323" lon="103.3355316"><ele>2998.45</ele><time>2026-08-16T01:39:26.000Z</time></trkpt>
        <trkpt lat="29.5242072" lon="103.3355939"><ele>2999.81</ele><time>2026-08-16T01:39:34.000Z</time></trkpt>
        <trkpt lat="29.5242695" lon="103.3356681"><ele>3000.7</ele><time>2026-08-16T01:39:42.000Z</time></trkpt>
        <trkpt lat="29.5243288" lon="103.3357463"><ele>3002.21</ele><time>2026-08-16T01:39:52.000Z</time></trkpt>
        <trkpt lat="29.5244029" lon="103.3358212"><ele>3003.86</ele><time>2026-08-16T01:40:06.000Z</time></trkpt>
        <trkpt lat="29.5244851" lon="103.3358849"><ele>3004.61</ele><time>2026-08-16T01:40:16.000Z</time></trkpt>
        <trkpt lat="29.5245762" lon="103.3359435"><ele>3005</ele><time>2026-08-16T01:40:26.000Z</time></trkpt>
        <trkpt lat="29.524673" lon="103.3359316"><ele>3006.46</ele><time>2026-08-16T01:40:36.000Z</time></trkpt>
        <trkpt lat="29.5247735" lon="103.33587"><ele>3006.03</ele><time>2026-08-16T01:40:46.000Z</time></trkpt>
        <trkpt lat="29.5248699" lon="103.3358194"><ele>3004.96</ele><time>2026-08-16T01:40:54.000Z</time></trkpt>
        <trkpt lat="29.5249681" lon="103.3357976"><ele>3004.06</ele><time>2026-08-16T01:41:02.000Z</time></trkpt>
        <trkpt lat="29.5250717" lon="103.3358005"><ele>3003.5</ele><time>2026-08-16T01:41:10.000Z</time></trkpt>
        <trkpt lat="29.5251664" lon="103.3358438"><ele>3003.17</ele><time>2026-08-16T01:41:18.000Z</time></trkpt>
        <trkpt lat="29.5252028" lon="103.3359005"><ele>3004.44</ele><time>2026-08-16T01:41:26.000Z</time></trkpt>
        <trkpt lat="29.5252028" lon="103.3359005"><ele>3004.44</ele><time>2026-08-16T01:41:29.000Z</time></trkpt>
      </trkseg>
  </trk>
</gpx>